[[{"header":{"parameterUnit":"m.s-1","parameterCategory":1,"la1":31.0,"la2":29.5877,"lo1":-88.7671,"lo2":-86.6584,"dy":0.0162,"dx":0.0185,"nx":115,"ny":88,"refTime":"2023-07-18T00:00:00:Z","depth":0,"parameterNumber":2,"parameterNumberName":"U-component_of_WINDS"},"data":[0.0,0.0,0.0,0.0,0.0,0.0,0.0,0.0,0.0,0.0,0.0,0.0,0.0,0.0,0.0,0.0,0.0,0.0,0.0,0.0,0.0,0.0,0.0,0.0,0.0,0.0,0.0,0.0,0.0,0.0,0.0,0.0,0.0,0.0,0.0,0.0,0.0,0.0,0.0,0.0,0.0,0.0,0.0,0.0,0.0,0.0,0.0,0.0,0.0,0.0,0.0,0.0,0.0,0.0,0.0,0.0,0.0,0.0,0.0,0.0,0.0,0.0,0.0,0.0,0.0,0.0,0.0,0.0,0.0,0.0,0.0,0.0,0.0,0.0,0.0,0.0,0.0,0.0,0.0,0.0,0.0,0.0,0.0,0.0,0.0,0.0,0.0,0.0,0.0,0.0,0.0,0.0,0.0,0.0,0.0,0.0,0.0,0.0,0.0,0.0,0.0,0.0,0.0,0.0,0.0,0.0,0.0,0.0,0.0,0.0,0.0,0.0,0.0,0.0,0.0,0.0,0.0,0.0,0.0,0.0,0.0,0.0,0.0,0.0,0.0,0.0,0.0,0.0,0.0,0.0,0.0,0.0,0.0,0.0,0.0,0.0,0.0,0.0,0.0,0.0,0.0,0.0,0.0,0.0,0.0,0.0,0.0,0.0,0.0,0.0,0.0,0.0,0.0,0.0,0.0,0.0,0.0,0.0,0.0,0.0,0.0,0.0,0.0,0.0,0.0,0.0,0.0,0.0,0.0,0.0,0.0,0.0,0.0,0.0,0.0,0.0,0.0,0.0,0.0,0.0,0.0,0.0,0.0,0.0,0.0,0.0,0.0,0.0,0.0,0.0,0.0,0.0,0.0,0.0,0.0,0.0,0.0,0.0,0.0,0.0,0.0,0.0,0.0,0.0,0.0,0.0,0.0,0.0,0.0,0.0,0.0,0.0,0.0,0.0,0.0,0.0,0.0,0.0,0.0,0.0,0.0,0.0,0.0,0.0,0.0,0.0,0.0,0.0,0.0,0.0,0.0,0.0,0.0,0.0,0.0,0.0,0.0,0.0,0.0,0.0,0.0,0.0,0.0,0.0,0.0,0.0,0.0,0.0,0.0,0.0,0.0,0.0,0.0,0.0,0.0,0.0,0.0,0.0,0.0,0.0,0.0,0.0,0.0,0.0,0.0,0.0,0.0,0.0,0.0,0.0,0.0,0.0,0.0,0.0,0.0,0.0,0.0,0.0,0.0,0.0,0.0,0.0,0.0,0.0,0.0,0.0,0.0,0.0,0.0,0.0,0.0,0.0,0.0,0.0,0.0,0.0,0.0,0.0,0.0,0.0,0.0,0.0,0.0,0.0,0.0,0.0,0.0,0.0,0.0,0.0,0.0,0.0,0.0,0.0,0.0,0.0,0.0,0.0,0.0,0.0,0.0,0.0,0.0,0.0,0.0,0.0,0.0,0.0,0.0,0.0,0.0,0.0,0.0,0.0,0.0,0.0,0.0,0.0,0.0,0.0,0.0,0.0,0.0,0.0,0.0,0.0,0.0,0.0,0.0,0.0,0.0,0.0,0.0,0.0,0.0,0.0,0.0,0.0,0.0,0.0,0.0,0.0,0.0,0.0,0.0,0.0,0.0,0.0,0.0,0.0,0.0,0.0,0.0,0.0,0.0,0.0,0.0,0.0,0.0,0.0,0.0,0.0,0.0,0.0,0.0,0.0,0.0,0.0,0.0,0.0,0.0,0.0,0.0,0.0,0.0,0.0,0.0,0.0,0.0,0.0,0.0,0.0,0.0,0.0,0.0,0.0,0.0,0.0,0.0,0.0,0.0,0.0,0.0,0.0,0.0,0.0,0.0,0.0,0.0,0.0,0.0,0.0,0.0,0.0,0.0,0.0,0.0,0.0,0.0,0.0,0.0,0.0,0.0,0.0,0.0,0.0,0.0,0.0,0.0,0.0,0.0,0.0,0.0,0.0,0.0,0.0,0.0,0.0,0.0,0.0,0.0,0.0,0.0,0.0,0.0,0.0,0.0,0.0,0.0,0.0,0.0,0.0,0.0,0.0,0.0,0.0,0.0,0.0,0.0,0.0,0.0,0.0,0.0,0.0,0.0,0.0,0.0,0.0,0.0,0.0,0.0,0.0,0.0,0.0,0.0,0.0,0.0,0.0,0.0,0.0,0.0,0.0,0.0,0.0,0.0,0.0,0.0,0.0,0.0,0.0,0.0,0.0,0.0,0.0,0.0,0.0,0.0,0.0,0.0,0.0,0.0,0.0,0.0,0.0,0.0,0.0,0.0,0.0,0.0,0.0,0.0,0.0,0.0,0.0,0.0,0.0,0.0,0.0,0.0,0.0,0.0,0.0,0.0,0.0,0.0,0.0,0.0,0.0,0.0,0.0,0.0,0.0,0.0,0.0,0.0,0.0,0.0,0.0,0.0,0.0,0.0,0.0,0.0,0.0,0.0,0.0,0.0,0.0,0.0,0.0,0.0,0.0,0.0,0.0,0.0,0.0,0.0,0.0,0.0,0.0,0.0,0.0,0.0,0.0,0.0,0.0,0.0,0.0,0.0,0.0,0.0,0.0,0.0,0.0,0.0,0.0,0.0,0.0,0.0,0.0,0.0,0.0,0.0,0.0,0.0,0.0,0.0,0.0,0.0,0.0,0.0,0.0,0.0,0.0,0.0,0.0,0.0,0.0,0.0,0.0,0.0,0.0,0.0,0.0,0.0,0.0,0.0,0.0,0.0,0.0,0.0,0.0,0.0,0.0,0.0,0.0,0.0,0.0,0.0,0.0,0.0,0.0,0.0,0.0,0.0,0.0,0.0,0.0,0.0,0.0,0.0,0.0,0.0,0.0,0.0,0.0,0.0,0.0,0.0,0.0,0.0,0.0,0.0,0.0,0.0,0.0,0.0,0.0,0.0,0.0,0.0,0.0,0.0,0.0,0.0,0.0,0.0,0.0,0.0,0.0,0.0,0.0,0.0,0.0,0.0,0.0,0.0,0.0,0.0,0.0,0.0,0.0,0.0,0.0,0.0,0.0,0.0,0.0,0.0,0.0,0.0,0.0,0.0,0.0,0.0,0.0,0.0,0.0,0.0,0.0,0.0,0.0,0.0,0.0,0.0,0.0,0.0,0.0,0.0,0.0,0.0,0.0,0.0,0.0,0.0,0.0,0.0,0.0,0.0,0.0,0.0,0.0,0.0,0.0,0.0,0.0,0.0,0.0,0.0,0.0,0.0,0.0,0.0,0.0,0.0,0.0,0.0,0.0,0.0,0.0,0.0,0.0,0.0,0.0,0.0,0.0,0.0,0.0,0.0,0.0,0.0,0.0,0.0,0.0,0.0,0.0,0.0,0.0,0.0,0.0,0.0,0.0,0.0,0.0,0.0,0.0,0.0,0.0,0.0,0.0,0.0,0.0,0.0,0.0,0.0,0.0,0.0,0.0,0.0,0.0,0.0,0.0,0.0,0.0,0.0,0.0,0.0,0.0,0.0,0.0,0.0,0.0,0.0,0.0,0.0,0.0,0.0,0.0,0.0,0.0,0.0,0.0,0.0,0.0,0.0,0.0,0.0,0.0,0.0,0.0,0.0,0.0,0.0,0.0,0.0,0.0,0.0,0.0,0.0,0.0,0.0,0.0,0.0,0.0,0.0,0.0,0.0,0.0,0.0,0.0,0.0,0.0,0.0,0.0,0.0,0.0,0.0,0.0,0.0,0.0,0.0,0.0,0.0,0.0,0.0,0.0,0.0,0.0,0.0,0.0,0.0,0.0,0.0,0.0,0.0,0.0,0.0,0.0,0.0,0.0,0.0,0.0,0.0,0.0,0.0,0.0,0.0,0.0,0.0,0.0,0.0,0.0,0.0,0.0,0.0,0.0,0.0,0.0,0.0,0.0,0.0,0.0,0.0,0.0,0.0,0.0,0.0,0.0,0.0,0.0,0.0,0.0,0.0,0.0,0.0,0.0,0.0,0.0,0.0,0.0,0.0,0.0,0.0,0.0,0.0,0.0,0.0,0.0,0.0,0.0,0.0,0.0,0.0,0.0,0.0,0.0,0.0,0.0,0.0,0.0,0.0,0.0,0.0,0.0,0.0,0.0,0.0,0.0,0.0,0.0,0.0,0.0,0.0,0.0,0.0,0.0,0.0,0.0,0.0,0.0,0.0,0.0,0.0,0.0,0.0,0.0,0.0,0.0,0.0,0.0,0.0,0.0,0.0,0.0,0.0,0.0,0.0,0.0,0.0,0.0,0.0,0.0,0.0,0.0,0.0,0.0,-2.9624,0.0,0.0,0.0,0.0,0.0,0.0,0.0,0.0,0.0,0.0,0.0,0.0,0.0,0.0,0.0,0.0,0.0,0.0,0.0,0.0,0.0,0.0,0.0,0.0,0.0,0.0,0.0,0.0,0.0,0.0,0.0,0.0,0.0,0.0,0.0,0.0,0.0,0.0,0.0,0.0,0.0,0.0,0.0,0.0,0.0,0.0,0.0,0.0,0.0,0.0,0.0,0.0,0.0,0.0,0.0,0.0,0.0,0.0,0.0,0.0,0.0,0.0,0.0,0.0,0.0,0.0,0.0,0.0,0.0,0.0,0.0,0.0,0.0,0.0,0.0,0.0,0.0,0.0,0.0,0.0,0.0,0.0,0.0,0.0,0.0,0.0,0.0,0.0,0.0,0.0,0.0,0.0,0.0,0.0,0.0,0.0,0.0,0.0,0.0,0.0,0.0,0.0,0.0,0.0,0.0,0.0,0.0,0.0,0.0,0.0,-3.1165,-3.1734,-3.0317,-2.9665,-2.9957,0.0,0.0,0.0,0.0,0.0,0.0,0.0,0.0,0.0,0.0,0.0,0.0,0.0,0.0,0.0,0.0,0.0,0.0,0.0,0.0,0.0,0.0,0.0,0.0,0.0,0.0,0.0,0.0,0.0,0.0,0.0,0.0,0.0,0.0,0.0,0.0,0.0,0.0,0.0,0.0,0.0,0.0,0.0,0.0,0.0,0.0,0.0,0.0,0.0,0.0,0.0,0.0,0.0,0.0,0.0,0.0,0.0,0.0,0.0,0.0,0.0,0.0,0.0,0.0,0.0,0.0,0.0,0.0,0.0,0.0,0.0,0.0,0.0,0.0,0.0,0.0,0.0,0.0,0.0,0.0,0.0,0.0,0.0,0.0,0.0,0.0,0.0,0.0,0.0,0.0,0.0,0.0,0.0,0.0,0.0,0.0,0.0,0.0,0.0,0.0,0.0,0.0,0.0,0.0,0.0,0.0,0.0,0.0,0.0,0.0,0.0,0.0,-3.0656,-2.9971,-3.0201,0.0,0.0,0.0,0.0,0.0,0.0,0.0,0.0,0.0,0.0,0.0,0.0,0.0,0.0,0.0,0.0,0.0,0.0,0.0,0.0,0.0,0.0,0.0,0.0,0.0,0.0,0.0,0.0,0.0,0.0,0.0,0.0,0.0,0.0,0.0,0.0,0.0,0.0,0.0,0.0,0.0,0.0,0.0,0.0,0.0,0.0,0.0,0.0,0.0,0.0,0.0,0.0,0.0,0.0,0.0,0.0,0.0,0.0,0.0,0.0,0.0,0.0,0.0,0.0,0.0,0.0,0.0,0.0,0.0,0.0,0.0,0.0,0.0,0.0,0.0,0.0,0.0,0.0,0.0,0.0,0.0,0.0,0.0,0.0,0.0,0.0,0.0,0.0,0.0,0.0,0.0,0.0,0.0,0.0,0.0,0.0,0.0,0.0,0.0,0.0,0.0,0.0,0.0,0.0,0.0,0.0,0.0,0.0,0.0,0.0,-3.0771,-3.1355,-3.1205,0.0,-2.9746,0.0,0.0,0.0,0.0,0.0,0.0,0.0,0.0,0.0,0.0,0.0,0.0,0.0,0.0,0.0,0.0,0.0,0.0,0.0,0.0,0.0,0.0,0.0,0.0,0.0,0.0,0.0,0.0,0.0,0.0,0.0,0.0,0.0,0.0,0.0,0.0,0.0,0.0,0.0,0.0,0.0,0.0,0.0,0.0,0.0,0.0,0.0,0.0,0.0,0.0,0.0,0.0,0.0,0.0,0.0,0.0,0.0,0.0,0.0,0.0,0.0,0.0,0.0,0.0,0.0,0.0,0.0,0.0,0.0,0.0,0.0,0.0,0.0,0.0,0.0,0.0,0.0,0.0,0.0,0.0,0.0,0.0,0.0,0.0,0.0,0.0,0.0,0.0,0.0,0.0,0.0,0.0,0.0,0.0,0.0,0.0,0.0,0.0,0.0,0.0,0.0,0.0,0.0,0.0,0.0,0.0,0.0,0.0,0.0,0.0,-3.1042,-3.13,-3.0948,-3.0378,0.0,0.0,0.0,0.0,0.0,0.0,0.0,0.0,0.0,0.0,0.0,0.0,0.0,0.0,0.0,0.0,0.0,0.0,0.0,0.0,0.0,0.0,0.0,0.0,0.0,0.0,0.0,0.0,0.0,0.0,0.0,0.0,0.0,0.0,0.0,0.0,0.0,0.0,0.0,0.0,0.0,0.0,0.0,0.0,0.0,0.0,0.0,0.0,0.0,0.0,0.0,0.0,0.0,0.0,0.0,0.0,0.0,0.0,0.0,0.0,0.0,0.0,0.0,0.0,0.0,0.0,0.0,0.0,0.0,0.0,0.0,0.0,0.0,0.0,0.0,0.0,0.0,0.0,0.0,0.0,0.0,0.0,0.0,0.0,0.0,0.0,0.0,0.0,0.0,0.0,0.0,0.0,0.0,0.0,0.0,0.0,0.0,0.0,0.0,0.0,0.0,0.0,0.0,0.0,0.0,0.0,0.0,0.0,0.0,0.0,-3.0839,-3.1137,-3.126,-3.088,-3.0283,-2.9543,0.0,0.0,0.0,0.0,0.0,0.0,0.0,0.0,0.0,0.0,0.0,0.0,0.0,0.0,0.0,0.0,0.0,0.0,0.0,0.0,0.0,0.0,0.0,0.0,0.0,0.0,0.0,0.0,0.0,0.0,0.0,0.0,0.0,0.0,0.0,0.0,0.0,0.0,0.0,0.0,0.0,0.0,0.0,0.0,0.0,0.0,0.0,0.0,0.0,0.0,0.0,0.0,0.0,0.0,0.0,0.0,0.0,0.0,0.0,0.0,0.0,0.0,0.0,0.0,0.0,0.0,0.0,0.0,0.0,0.0,0.0,0.0,0.0,0.0,0.0,0.0,0.0,0.0,0.0,0.0,0.0,0.0,0.0,0.0,0.0,0.0,0.0,0.0,0.0,0.0,0.0,0.0,0.0,0.0,0.0,0.0,0.0,0.0,0.0,0.0,0.0,0.0,0.0,0.0,0.0,0.0,0.0,0.0,-3.0364,-3.0418,-3.0717,-3.1273,-3.1273,-3.069,0.0,0.0,0.0,0.0,0.0,0.0,0.0,0.0,0.0,0.0,0.0,0.0,0.0,0.0,0.0,0.0,0.0,0.0,0.0,0.0,0.0,0.0,0.0,0.0,0.0,0.0,0.0,0.0,0.0,0.0,0.0,0.0,0.0,0.0,0.0,0.0,0.0,0.0,0.0,0.0,0.0,0.0,0.0,0.0,0.0,0.0,0.0,0.0,0.0,0.0,0.0,0.0,0.0,0.0,0.0,0.0,0.0,0.0,0.0,0.0,0.0,0.0,0.0,0.0,0.0,0.0,0.0,0.0,0.0,0.0,0.0,0.0,0.0,0.0,0.0,0.0,0.0,0.0,0.0,0.0,0.0,0.0,0.0,0.0,0.0,0.0,0.0,0.0,0.0,0.0,0.0,0.0,0.0,0.0,0.0,0.0,0.0,0.0,0.0,0.0,0.0,0.0,0.0,0.0,0.0,0.0,0.0,0.0,0.0,-2.9252,-2.9604,-3.0296,-3.1232,-3.054,-2.995,0.0,0.0,0.0,0.0,0.0,0.0,0.0,0.0,0.0,0.0,0.0,0.0,0.0,0.0,0.0,0.0,0.0,0.0,0.0,0.0,0.0,0.0,0.0,0.0,0.0,0.0,0.0,0.0,0.0,0.0,0.0,0.0,0.0,0.0,0.0,0.0,0.0,0.0,0.0,0.0,0.0,0.0,0.0,0.0,0.0,0.0,0.0,0.0,0.0,0.0,0.0,0.0,0.0,0.0,0.0,0.0,0.0,0.0,0.0,0.0,0.0,0.0,0.0,0.0,0.0,0.0,0.0,0.0,0.0,0.0,0.0,0.0,0.0,0.0,0.0,0.0,0.0,0.0,0.0,0.0,0.0,0.0,0.0,0.0,0.0,0.0,0.0,0.0,0.0,0.0,0.0,0.0,0.0,0.0,0.0,0.0,0.0,0.0,0.0,0.0,0.0,0.0,0.0,0.0,0.0,0.0,0.0,0.0,0.0,-2.9184,0.0,-3.0364,-3.0934,-3.0011,-2.9434,0.0,0.0,0.0,0.0,0.0,0.0,0.0,0.0,0.0,0.0,0.0,0.0,0.0,0.0,0.0,0.0,0.0,0.0,0.0,0.0,0.0,0.0,0.0,0.0,0.0,0.0,0.0,0.0,0.0,0.0,0.0,0.0,0.0,0.0,0.0,0.0,0.0,0.0,0.0,0.0,0.0,0.0,0.0,0.0,0.0,0.0,0.0,0.0,0.0,0.0,0.0,0.0,0.0,0.0,0.0,0.0,0.0,0.0,0.0,0.0,0.0,0.0,0.0,0.0,0.0,0.0,0.0,0.0,0.0,0.0,0.0,0.0,0.0,0.0,0.0,0.0,0.0,0.0,0.0,0.0,0.0,0.0,0.0,0.0,0.0,0.0,0.0,0.0,0.0,0.0,0.0,0.0,0.0,0.0,0.0,0.0,0.0,0.0,0.0,0.0,0.0,0.0,0.0,0.0,0.0,0.0,0.0,0.0,-2.9197,-3.0351,-3.092,-3.0948,-3.0446,-2.9821,-2.9244,0.0,0.0,0.0,0.0,0.0,0.0,0.0,0.0,0.0,0.0,0.0,0.0,0.0,0.0,0.0,0.0,0.0,0.0,0.0,0.0,0.0,0.0,0.0,0.0,0.0,0.0,0.0,0.0,0.0,0.0,0.0,0.0,0.0,0.0,0.0,0.0,0.0,0.0,0.0,0.0,0.0,0.0,0.0,0.0,0.0,0.0,0.0,0.0,0.0,0.0,0.0,0.0,0.0,0.0,0.0,0.0,0.0,0.0,0.0,0.0,0.0,0.0,0.0,0.0,0.0,0.0,0.0,0.0,0.0,0.0,0.0,0.0,0.0,0.0,0.0,0.0,0.0,0.0,0.0,0.0,0.0,0.0,0.0,0.0,0.0,0.0,0.0,0.0,0.0,0.0,0.0,0.0,0.0,0.0,0.0,0.0,0.0,0.0,0.0,0.0,0.0,0.0,0.0,0.0,0.0,0.0,0.0,0.0,0.0,-3.0391,-3.0581,-3.0785,-3.0975,-3.0045,-2.942,0.0,0.0,0.0,0.0,0.0,0.0,0.0,0.0,0.0,0.0,0.0,0.0,0.0,0.0,0.0,0.0,0.0,0.0,0.0,0.0,0.0,0.0,0.0,0.0,0.0,0.0,0.0,0.0,0.0,0.0,0.0,0.0,0.0,0.0,0.0,0.0,0.0,0.0,0.0,0.0,0.0,0.0,0.0,0.0,0.0,0.0,0.0,0.0,0.0,0.0,0.0,0.0,0.0,0.0,0.0,0.0,0.0,0.0,0.0,0.0,0.0,0.0,0.0,0.0,0.0,0.0,0.0,0.0,0.0,0.0,0.0,0.0,0.0,0.0,0.0,0.0,0.0,0.0,0.0,0.0,0.0,0.0,0.0,0.0,0.0,0.0,0.0,0.0,0.0,0.0,0.0,0.0,0.0,0.0,0.0,0.0,0.0,0.0,0.0,0.0,0.0,0.0,0.0,0.0,0.0,0.0,0.0,0.0,0.0,-3.0405,-3.0405,-3.0581,-3.0961,-2.9781,-2.9172,-2.9208,0.0,0.0,0.0,0.0,0.0,0.0,0.0,0.0,0.0,0.0,0.0,0.0,0.0,0.0,0.0,0.0,0.0,0.0,0.0,0.0,0.0,0.0,0.0,0.0,0.0,0.0,0.0,0.0,0.0,0.0,0.0,0.0,0.0,0.0,0.0,0.0,0.0,0.0,0.0,0.0,0.0,0.0,0.0,0.0,0.0,0.0,0.0,0.0,0.0,0.0,0.0,0.0,0.0,0.0,0.0,0.0,0.0,0.0,0.0,0.0,0.0,0.0,0.0,0.0,0.0,0.0,0.0,0.0,0.0,0.0,0.0,0.0,0.0,0.0,0.0,0.0,0.0,0.0,0.0,0.0,0.0,0.0,0.0,0.0,0.0,0.0,0.0,0.0,0.0,0.0,0.0,0.0,0.0,0.0,0.0,0.0,0.0,0.0,0.0,0.0,0.0,0.0,0.0,0.0,0.0,0.0,0.0,0.0,-3.0405,-3.0378,-3.0364,-3.0418,-2.9246,-2.8623,0.0,0.0,0.0,0.0,0.0,0.0,0.0,0.0,0.0,0.0,0.0,0.0,0.0,0.0,0.0,0.0,0.0,0.0,0.0,0.0,0.0,0.0,0.0,0.0,0.0,0.0,0.0,0.0,0.0,0.0,0.0,0.0,0.0,0.0,0.0,0.0,0.0,0.0,0.0,0.0,0.0,0.0,0.0,0.0,0.0,0.0,0.0,0.0,0.0,0.0,0.0,0.0,0.0,0.0,0.0,0.0,0.0,0.0,0.0,0.0,0.0,0.0,0.0,0.0,0.0,0.0,0.0,0.0,0.0,0.0,0.0,0.0,0.0,0.0,0.0,0.0,0.0,0.0,0.0,0.0,0.0,0.0,0.0,0.0,0.0,0.0,0.0,0.0,0.0,0.0,0.0,0.0,0.0,0.0,0.0,0.0,0.0,0.0,0.0,0.0,0.0,0.0,0.0,0.0,0.0,0.0,0.0,0.0,0.0,-3.0378,-2.9957,-2.9944,-3.033,-2.9295,-2.8859,0.0,0.0,0.0,0.0,0.0,0.0,0.0,0.0,0.0,0.0,0.0,0.0,0.0,0.0,0.0,0.0,0.0,0.0,0.0,0.0,0.0,0.0,0.0,0.0,0.0,0.0,0.0,0.0,0.0,0.0,0.0,0.0,0.0,0.0,0.0,0.0,0.0,0.0,0.0,0.0,0.0,0.0,0.0,0.0,0.0,0.0,0.0,0.0,0.0,0.0,0.0,0.0,0.0,0.0,0.0,0.0,0.0,0.0,0.0,0.0,0.0,0.0,0.0,0.0,0.0,0.0,0.0,0.0,0.0,0.0,0.0,0.0,0.0,0.0,0.0,0.0,0.0,0.0,0.0,0.0,0.0,0.0,0.0,0.0,0.0,0.0,0.0,0.0,0.0,0.0,0.0,0.0,0.0,0.0,0.0,0.0,0.0,0.0,0.0,0.0,0.0,0.0,0.0,0.0,0.0,0.0,0.0,0.0,-2.955,-3.036,-2.9611,-2.9295,-2.9609,-2.9241,-2.9038,0.0,0.0,0.0,0.0,0.0,0.0,0.0,0.0,0.0,0.0,0.0,0.0,0.0,0.0,0.0,0.0,0.0,0.0,0.0,0.0,0.0,0.0,0.0,0.0,0.0,0.0,0.0,0.0,0.0,0.0,0.0,0.0,0.0,0.0,0.0,0.0,0.0,0.0,0.0,0.0,0.0,0.0,0.0,0.0,0.0,0.0,0.0,0.0,0.0,0.0,0.0,0.0,0.0,0.0,0.0,0.0,0.0,0.0,0.0,0.0,0.0,0.0,0.0,0.0,0.0,0.0,0.0,0.0,0.0,0.0,0.0,0.0,0.0,0.0,0.0,0.0,0.0,0.0,0.0,0.0,0.0,0.0,0.0,0.0,0.0,0.0,0.0,0.0,0.0,0.0,0.0,0.0,0.0,0.0,0.0,0.0,0.0,0.0,0.0,0.0,0.0,0.0,0.0,0.0,0.0,0.0,0.0,0.0,-2.9282,-3.0266,-2.9372,-2.8757,-2.8623,-2.9181,-2.9225,0.0,0.0,0.0,0.0,0.0,0.0,0.0,0.0,0.0,0.0,0.0,0.0,0.0,0.0,0.0,0.0,0.0,0.0,0.0,0.0,0.0,0.0,0.0,0.0,0.0,0.0,0.0,0.0,0.0,0.0,0.0,0.0,0.0,0.0,0.0,0.0,0.0,0.0,0.0,0.0,0.0,0.0,0.0,0.0,0.0,0.0,0.0,0.0,0.0,0.0,0.0,0.0,0.0,0.0,0.0,0.0,0.0,0.0,0.0,0.0,0.0,0.0,0.0,0.0,0.0,0.0,0.0,0.0,0.0,0.0,0.0,0.0,0.0,0.0,0.0,0.0,0.0,0.0,0.0,0.0,0.0,0.0,0.0,0.0,0.0,0.0,0.0,0.0,0.0,0.0,0.0,0.0,0.0,0.0,0.0,0.0,0.0,0.0,0.0,0.0,0.0,0.0,0.0,0.0,0.0,0.0,0.0,0.0,-2.9879,-2.9693,-2.9862,-2.9523,-2.8615,-2.9241,-2.9257,0.0,0.0,0.0,0.0,0.0,0.0,0.0,0.0,0.0,0.0,0.0,0.0,0.0,0.0,0.0,0.0,0.0,0.0,0.0,0.0,0.0,0.0,0.0,0.0,0.0,0.0,0.0,0.0,0.0,0.0,0.0,0.0,0.0,0.0,0.0,0.0,0.0,0.0,0.0,0.0,0.0,0.0,0.0,0.0,0.0,0.0,0.0,0.0,-1.9943,0.0,0.0,0.0,0.0,0.0,0.0,0.0,0.0,0.0,0.0,0.0,0.0,0.0,0.0,0.0,0.0,0.0,0.0,0.0,0.0,0.0,0.0,0.0,0.0,0.0,0.0,0.0,0.0,0.0,0.0,0.0,0.0,0.0,0.0,0.0,0.0,0.0,0.0,0.0,0.0,0.0,0.0,0.0,0.0,0.0,0.0,0.0,0.0,0.0,0.0,0.0,0.0,0.0,0.0,0.0,0.0,0.0,0.0,0.0,-2.886,-2.905,-2.9094,-2.8826,-2.8243,-2.9065,-2.9116,0.0,0.0,0.0,0.0,0.0,0.0,0.0,0.0,0.0,0.0,0.0,0.0,0.0,0.0,0.0,0.0,0.0,0.0,0.0,0.0,0.0,0.0,0.0,0.0,0.0,0.0,0.0,0.0,0.0,0.0,0.0,0.0,0.0,0.0,0.0,0.0,0.0,0.0,0.0,0.0,0.0,0.0,0.0,0.0,0.0,0.0,0.0,0.0,0.0,0.0,0.0,0.0,0.0,0.0,0.0,0.0,0.0,0.0,0.0,0.0,0.0,0.0,0.0,0.0,0.0,0.0,0.0,0.0,0.0,0.0,0.0,0.0,0.0,0.0,0.0,0.0,0.0,0.0,0.0,0.0,0.0,0.0,0.0,0.0,0.0,0.0,0.0,0.0,0.0,0.0,0.0,0.0,0.0,0.0,0.0,0.0,0.0,0.0,0.0,0.0,0.0,0.0,0.0,0.0,0.0,0.0,0.0,-2.7225,-2.7664,-2.8175,-2.8102,-2.7854,-2.7508,-2.8598,-2.8711,-2.7631,0.0,0.0,0.0,0.0,0.0,0.0,0.0,0.0,0.0,0.0,0.0,0.0,0.0,0.0,0.0,0.0,0.0,0.0,0.0,0.0,0.0,0.0,0.0,0.0,0.0,0.0,0.0,0.0,0.0,0.0,0.0,0.0,0.0,0.0,0.0,0.0,0.0,0.0,-1.8043,-1.9603,0.0,0.0,0.0,0.0,0.0,0.0,0.0,0.0,-1.9637,0.0,0.0,0.0,0.0,0.0,0.0,0.0,0.0,0.0,0.0,0.0,0.0,0.0,0.0,0.0,0.0,0.0,0.0,0.0,0.0,0.0,0.0,0.0,0.0,0.0,0.0,0.0,0.0,0.0,0.0,0.0,0.0,0.0,0.0,0.0,0.0,0.0,0.0,0.0,0.0,0.0,0.0,0.0,0.0,0.0,0.0,0.0,0.0,0.0,0.0,0.0,0.0,0.0,0.0,0.0,0.0,-2.6348,-2.8572,-2.8712,-2.6602,-2.8234,-2.8272,-2.6481,-2.7427,-2.7694,-2.7097,0.0,0.0,0.0,0.0,0.0,0.0,0.0,0.0,0.0,0.0,0.0,0.0,0.0,0.0,0.0,0.0,0.0,0.0,0.0,0.0,0.0,0.0,0.0,0.0,0.0,0.0,0.0,0.0,0.0,0.0,0.0,0.0,0.0,0.0,0.0,0.0,0.0,0.0,0.0,-1.92,-2.0107,0.0,0.0,0.0,0.0,0.0,0.0,0.0,0.0,-2.0708,0.0,0.0,0.0,0.0,0.0,0.0,0.0,0.0,0.0,0.0,0.0,0.0,0.0,0.0,0.0,0.0,0.0,0.0,0.0,0.0,0.0,0.0,0.0,0.0,0.0,0.0,0.0,0.0,0.0,0.0,0.0,0.0,0.0,0.0,0.0,0.0,0.0,0.0,0.0,0.0,0.0,0.0,0.0,0.0,0.0,0.0,0.0,0.0,0.0,0.0,0.0,0.0,0.0,0.0,0.0,-2.5879,-2.731,-2.7484,-2.6178,-2.7138,-2.7162,-2.6142,-2.6899,-2.6816,0.0,0.0,0.0,0.0,0.0,0.0,0.0,0.0,0.0,0.0,0.0,0.0,0.0,0.0,0.0,0.0,0.0,0.0,0.0,0.0,0.0,0.0,0.0,0.0,0.0,0.0,0.0,0.0,0.0,0.0,0.0,0.0,0.0,0.0,0.0,0.0,0.0,0.0,0.0,0.0,-1.9616,-2.0238,-2.1428,0.0,0.0,0.0,0.0,0.0,0.0,-2.0905,-2.0905,0.0,0.0,0.0,0.0,0.0,0.0,0.0,0.0,0.0,0.0,0.0,0.0,0.0,0.0,0.0,0.0,0.0,0.0,0.0,0.0,0.0,0.0,0.0,0.0,0.0,0.0,0.0,0.0,0.0,0.0,0.0,0.0,0.0,0.0,0.0,0.0,0.0,0.0,0.0,0.0,0.0,0.0,0.0,0.0,0.0,0.0,0.0,0.0,0.0,0.0,0.0,0.0,0.0,0.0,0.0,-2.5348,-2.5865,-2.6056,-2.5852,-2.5875,-2.5838,-2.5743,-2.64,-2.6231,0.0,0.0,0.0,0.0,0.0,0.0,0.0,0.0,0.0,0.0,0.0,0.0,0.0,0.0,0.0,0.0,0.0,0.0,0.0,0.0,0.0,0.0,0.0,0.0,0.0,0.0,0.0,0.0,0.0,0.0,0.0,0.0,0.0,0.0,0.0,0.0,0.0,0.0,0.0,0.0,0.0,-2.0576,-2.1461,-2.154,0.0,0.0,0.0,0.0,-2.1157,-2.119,0.0,0.0,0.0,0.0,0.0,0.0,0.0,0.0,0.0,0.0,0.0,0.0,0.0,0.0,0.0,0.0,0.0,0.0,0.0,0.0,0.0,0.0,0.0,0.0,0.0,0.0,0.0,0.0,0.0,0.0,0.0,0.0,0.0,0.0,0.0,0.0,0.0,0.0,0.0,0.0,0.0,0.0,0.0,0.0,0.0,0.0,0.0,0.0,0.0,0.0,0.0,0.0,0.0,0.0,0.0,0.0,-2.5372,-2.5929,-2.5851,-2.5026,-2.505,-2.4914,-2.4461,-2.5677,-2.613,0.0,0.0,0.0,0.0,0.0,0.0,0.0,0.0,0.0,0.0,0.0,0.0,0.0,0.0,0.0,0.0,0.0,0.0,0.0,0.0,0.0,0.0,0.0,0.0,0.0,0.0,0.0,0.0,0.0,0.0,0.0,0.0,0.0,0.0,0.0,0.0,0.0,0.0,0.0,0.0,0.0,-2.1015,-2.1551,-2.1255,-2.1419,0.0,0.0,-2.12,-2.2007,-2.2149,0.0,0.0,0.0,0.0,0.0,0.0,0.0,0.0,0.0,0.0,0.0,0.0,0.0,0.0,0.0,0.0,0.0,0.0,0.0,0.0,0.0,0.0,0.0,0.0,0.0,0.0,0.0,0.0,0.0,0.0,0.0,0.0,0.0,0.0,0.0,0.0,0.0,0.0,0.0,0.0,0.0,0.0,0.0,0.0,0.0,0.0,0.0,0.0,0.0,0.0,0.0,0.0,0.0,0.0,0.0,-2.5242,-2.504,-2.5091,-2.4993,-2.4777,-2.4638,-2.454,-2.4538,-2.5477,-2.5858,0.0,0.0,0.0,0.0,0.0,0.0,0.0,0.0,0.0,0.0,0.0,0.0,0.0,0.0,0.0,0.0,0.0,0.0,0.0,0.0,0.0,0.0,0.0,0.0,0.0,0.0,0.0,0.0,0.0,0.0,0.0,0.0,0.0,0.0,0.0,0.0,0.0,0.0,0.0,0.0,0.0,0.0,-2.1516,-2.1647,0.0,0.0,0.0,-2.1843,-2.2212,0.0,0.0,0.0,0.0,0.0,0.0,0.0,0.0,0.0,0.0,0.0,0.0,0.0,0.0,0.0,0.0,0.0,0.0,0.0,0.0,0.0,0.0,0.0,0.0,0.0,0.0,0.0,0.0,0.0,0.0,0.0,0.0,0.0,0.0,0.0,0.0,0.0,0.0,0.0,0.0,0.0,0.0,0.0,0.0,0.0,0.0,0.0,0.0,0.0,0.0,0.0,0.0,0.0,0.0,0.0,0.0,0.0,-2.511,-2.4512,-2.4403,-2.4796,-2.4336,-2.4331,-2.4848,-2.5429,0.0,0.0,0.0,0.0,0.0,0.0,0.0,0.0,0.0,0.0,0.0,0.0,0.0,0.0,0.0,0.0,0.0,0.0,0.0,0.0,0.0,0.0,0.0,0.0,0.0,0.0,0.0,-1.7606,0.0,0.0,0.0,0.0,0.0,0.0,0.0,0.0,0.0,0.0,0.0,0.0,0.0,0.0,-2.1255,-2.1701,-2.1985,-2.2215,0.0,0.0,-2.2357,-2.2477,-2.2462,-2.2499,0.0,0.0,0.0,0.0,0.0,0.0,0.0,0.0,0.0,0.0,0.0,0.0,0.0,0.0,0.0,0.0,0.0,0.0,0.0,0.0,0.0,0.0,0.0,0.0,0.0,0.0,0.0,0.0,0.0,0.0,0.0,0.0,0.0,0.0,0.0,0.0,0.0,0.0,0.0,0.0,0.0,0.0,0.0,0.0,0.0,0.0,0.0,0.0,0.0,0.0,0.0,0.0,0.0,0.0,0.0,-2.5937,-2.482,-2.4418,-2.4855,-2.4125,-2.4167,-2.5048,-2.5554,-2.5984,0.0,0.0,0.0,0.0,0.0,0.0,0.0,0.0,0.0,0.0,0.0,0.0,0.0,0.0,0.0,0.0,0.0,0.0,0.0,0.0,0.0,0.0,0.0,0.0,0.0,0.0,0.0,0.0,0.0,0.0,0.0,0.0,0.0,0.0,0.0,0.0,0.0,0.0,0.0,0.0,0.0,-2.1712,-2.2204,-2.1909,-2.1953,0.0,0.0,-2.2455,-2.2892,-2.2947,-2.2947,-2.2957,0.0,0.0,0.0,0.0,0.0,0.0,0.0,0.0,0.0,0.0,0.0,0.0,0.0,0.0,0.0,0.0,0.0,0.0,0.0,0.0,0.0,0.0,0.0,0.0,0.0,0.0,0.0,0.0,0.0,0.0,0.0,0.0,0.0,0.0,0.0,0.0,0.0,0.0,0.0,0.0,0.0,0.0,0.0,0.0,0.0,0.0,0.0,0.0,0.0,0.0,0.0,0.0,0.0,-2.4775,-2.5386,-2.4676,-2.4476,-2.4939,-2.4443,-2.4592,-2.5472,-2.5462,-2.588,0.0,0.0,0.0,0.0,0.0,0.0,0.0,0.0,0.0,0.0,0.0,0.0,0.0,0.0,0.0,0.0,0.0,0.0,0.0,0.0,0.0,0.0,0.0,0.0,0.0,0.0,0.0,0.0,-1.8851,-1.9375,-1.9997,0.0,0.0,0.0,0.0,0.0,0.0,0.0,0.0,0.0,0.0,-2.2106,-2.2291,-2.24,0.0,0.0,-2.2848,-2.2794,-2.2968,-2.3001,-2.3001,-2.3001,-2.3001,0.0,0.0,0.0,0.0,0.0,0.0,0.0,0.0,0.0,0.0,0.0,0.0,0.0,0.0,0.0,0.0,0.0,0.0,0.0,0.0,0.0,0.0,0.0,0.0,0.0,0.0,0.0,0.0,0.0,0.0,0.0,0.0,0.0,0.0,0.0,0.0,0.0,0.0,0.0,0.0,0.0,0.0,0.0,0.0,0.0,0.0,0.0,0.0,0.0,0.0,0.0,0.0,-2.4748,-2.5408,-2.4841,-2.4753,-2.5234,-2.4882,-2.5119,-2.5876,-2.5735,-2.6145,0.0,0.0,0.0,0.0,0.0,0.0,0.0,0.0,0.0,0.0,0.0,0.0,0.0,0.0,0.0,0.0,0.0,0.0,0.0,0.0,0.0,0.0,0.0,0.0,0.0,0.0,0.0,0.0,-1.9311,-2.0019,-2.1004,0.0,0.0,0.0,0.0,0.0,0.0,0.0,0.0,0.0,0.0,-2.2379,-2.2499,-2.2794,-2.3001,-2.3001,-2.3001,-2.3001,-2.3001,-2.3001,-2.3001,-2.3001,0.0,0.0,0.0,0.0,0.0,0.0,0.0,0.0,0.0,0.0,0.0,0.0,0.0,0.0,0.0,0.0,0.0,0.0,0.0,0.0,0.0,0.0,0.0,0.0,0.0,0.0,0.0,0.0,0.0,0.0,-3.1205,0.0,0.0,0.0,0.0,0.0,0.0,0.0,0.0,0.0,0.0,0.0,0.0,0.0,0.0,0.0,0.0,0.0,0.0,0.0,0.0,0.0,0.0,-2.5408,-2.6314,-2.5453,-2.5245,-2.5748,-2.5396,-2.5606,-2.6449,-2.6453,-2.6887,-2.7794,0.0,0.0,0.0,0.0,0.0,0.0,0.0,0.0,0.0,0.0,0.0,0.0,0.0,0.0,0.0,0.0,0.0,0.0,0.0,0.0,0.0,0.0,0.0,0.0,0.0,0.0,-1.9442,-1.9813,-2.0478,0.0,0.0,0.0,0.0,0.0,0.0,0.0,0.0,0.0,0.0,-2.2313,-2.2451,-2.2936,-2.3001,-2.3023,-2.3012,-2.3012,-2.3012,-2.3001,-2.3012,-2.3001,0.0,0.0,0.0,0.0,0.0,0.0,0.0,0.0,0.0,0.0,0.0,0.0,0.0,0.0,0.0,0.0,0.0,0.0,0.0,0.0,0.0,0.0,0.0,0.0,0.0,0.0,0.0,-3.1093,-3.0933,0.0,0.0,0.0,0.0,0.0,0.0,0.0,0.0,0.0,0.0,0.0,-3.062,-3.0996,0.0,0.0,0.0,0.0,0.0,0.0,0.0,0.0,0.0,0.0,0.0,0.0,-2.5344,-2.6032,-2.5742,-2.565,-2.5851,-2.5749,-2.6094,-2.6928,-2.6415,-2.6229,-2.6502,0.0,0.0,0.0,0.0,0.0,0.0,0.0,0.0,0.0,0.0,0.0,0.0,0.0,0.0,0.0,0.0,0.0,0.0,0.0,0.0,0.0,0.0,0.0,0.0,0.0,-2.0588,0.0,0.0,0.0,0.0,0.0,0.0,0.0,0.0,0.0,0.0,0.0,-2.2586,-2.275,-2.3351,-2.3689,-2.3514,-2.3444,-2.3482,0.0,0.0,0.0,0.0,0.0,0.0,0.0,0.0,0.0,0.0,0.0,0.0,0.0,0.0,-2.2953,-2.2815,-2.188,-2.1008,-2.0763,0.0,0.0,0.0,0.0,0.0,0.0,0.0,0.0,0.0,0.0,0.0,0.0,0.0,0.0,-3.1662,0.0,-3.1636,0.0,0.0,0.0,0.0,0.0,0.0,0.0,0.0,-3.1684,-3.1552,-3.0972,-3.1357,-3.1233,0.0,-3.0165,-2.938,0.0,0.0,0.0,0.0,0.0,0.0,0.0,0.0,-2.5577,-2.6091,-2.592,-2.5867,-2.5884,-2.5895,-2.6218,-2.694,-2.6715,-2.6476,-2.6289,-2.7344,-2.7316,0.0,0.0,0.0,0.0,0.0,0.0,0.0,0.0,0.0,0.0,0.0,0.0,0.0,0.0,0.0,0.0,0.0,0.0,0.0,0.0,0.0,0.0,0.0,-2.1222,0.0,0.0,0.0,0.0,0.0,0.0,0.0,0.0,0.0,-2.3034,-2.3154,-2.3263,-2.3252,-2.382,-2.4159,-2.4017,0.0,0.0,0.0,0.0,0.0,0.0,0.0,-2.3575,-2.3307,-2.311,-2.3001,-2.3001,-2.3143,-2.3198,-2.3034,0.0,0.0,-2.2852,-2.2117,-2.1448,-2.1181,-2.0777,-2.0237,-1.9408,-1.9416,-1.963,0.0,0.0,0.0,0.0,0.0,0.0,0.0,0.0,-3.2223,-3.2535,0.0,-3.2426,0.0,0.0,0.0,0.0,0.0,-3.1321,0.0,0.0,-3.1335,-3.1639,-3.2155,-3.2169,-3.1863,-3.1307,-3.1827,-3.1022,-2.8949,-2.7782,0.0,0.0,0.0,0.0,0.0,0.0,-2.6135,-2.6445,-2.6082,-2.5895,-2.5895,-2.5895,-2.6093,-2.6517,-2.7412,-2.7696,-2.7278,-2.7684,-2.7782,-2.7406,-2.6444,0.0,0.0,0.0,0.0,0.0,0.0,0.0,0.0,0.0,0.0,0.0,0.0,0.0,0.0,0.0,0.0,0.0,0.0,0.0,0.0,-2.1898,0.0,0.0,0.0,0.0,0.0,0.0,0.0,0.0,0.0,0.0,-2.3198,-2.3493,-2.3766,-2.3716,0.0,0.0,0.0,0.0,-2.388,-2.4377,-2.4465,-2.4443,-2.441,-2.4039,-2.3684,-2.3651,0.0,0.0,-2.3001,-2.3383,-2.3498,-2.3088,-2.3001,-2.3001,-2.3001,-2.2654,-2.2264,-2.1813,-2.1434,-2.1026,-2.054,-2.038,-2.0365,-3.3566,0.0,0.0,0.0,0.0,-3.2145,-3.2407,-3.283,-3.2843,-3.2938,-3.3074,-3.2477,0.0,0.0,0.0,0.0,0.0,0.0,-3.1933,-3.1936,-3.192,-3.2042,-3.2205,-3.2205,-3.2109,-3.19,-3.1616,-3.1334,-3.0923,-2.8861,-2.7637,-2.7174,0.0,0.0,0.0,0.0,-2.658,-2.6093,-2.5937,-2.5895,-2.5895,-2.5895,-2.6093,-2.6487,-2.7966,-2.8419,-2.776,-2.8259,-2.8307,-2.7766,-2.7521,0.0,0.0,0.0,0.0,0.0,0.0,0.0,0.0,0.0,0.0,0.0,0.0,0.0,0.0,0.0,0.0,0.0,0.0,0.0,-2.2331,-2.2193,-2.2291,0.0,0.0,0.0,0.0,0.0,0.0,0.0,0.0,0.0,-2.4061,-2.4465,-2.4639,0.0,0.0,-2.5076,-2.4563,-2.4366,-2.4203,-2.3945,-2.3913,0.0,0.0,-2.3602,-2.3575,-2.3263,-2.3099,-2.3001,-2.3001,-2.311,-2.3154,-2.3023,-2.3001,-2.3001,-2.3001,-2.2927,-2.2723,-2.2445,-2.22,-2.1829,-2.124,-2.099,-2.0788,-3.5452,-3.384,-3.2972,-3.2995,-3.3542,-3.3292,-3.3519,-3.4095,-3.3851,-3.3756,-3.3753,-3.2925,-3.2572,-3.2558,-3.2314,0.0,0.0,0.0,-3.2205,-3.2205,-3.2205,-3.2205,-3.2205,-3.2205,-3.2205,-3.2169,-3.1542,-3.1357,-3.1606,-2.9601,-2.8307,-2.7758,0.0,0.0,-2.7033,-2.6828,-2.6498,-2.6135,-2.5979,-2.5895,-2.5895,-2.6052,-2.6249,-2.6517,-2.8115,-2.8447,-2.7412,-2.8435,-2.8712,-2.7995,-2.7795,-2.7246,0.0,0.0,0.0,0.0,0.0,0.0,0.0,0.0,0.0,0.0,0.0,-2.2641,0.0,0.0,0.0,0.0,-2.2728,-2.2968,-2.2844,-2.2881,0.0,0.0,0.0,0.0,0.0,0.0,0.0,-2.4523,-2.4421,-2.4421,-2.4727,-2.504,-2.5051,-2.4552,-2.4803,-2.4967,-2.4781,0.0,-2.4508,-2.4574,-2.4421,-2.4203,-2.3908,-2.3787,-2.352,-2.3088,-2.3001,-2.3001,-2.3001,-2.3001,-2.3001,-2.3001,-2.3001,-2.3001,-2.3001,-2.3001,-2.2927,-2.274,-2.2553,-2.2259,-2.1882,-2.1718,-2.1523,-3.7446,-3.6782,-3.5615,-3.5276,-3.5588,-3.5019,-3.5127,-3.5669,-3.5087,-3.4883,-3.4843,-3.3808,-3.3264,-3.3129,-3.2599,0.0,-3.2218,-3.2314,-3.2331,-3.2354,-3.2314,-3.2264,-3.2354,-3.2223,-3.2205,-3.2205,-3.1579,-3.127,-3.1196,-3.0063,-2.9639,-2.9781,-2.7366,-2.7021,-2.8593,-2.7103,-2.6373,-2.6682,-2.6332,-2.6135,-2.6093,-2.6487,-2.6723,-2.6723,-2.8023,-2.8143,-2.6917,-2.8383,-2.8924,-2.8215,-2.7609,-2.7105,-2.6767,0.0,0.0,0.0,0.0,0.0,0.0,0.0,0.0,0.0,0.0,0.0,0.0,0.0,0.0,0.0,-2.287,0.0,-2.3705,-2.376,0.0,0.0,0.0,-2.4727,-2.5215,-2.5226,-2.536,-2.5841,0.0,0.0,-2.5259,-2.5237,-2.5051,-2.4596,-2.4181,-2.4213,-2.5095,-2.4854,-2.4847,-2.5546,-2.5371,-2.5128,-2.4803,-2.417,-2.3444,-2.3078,-2.3001,-2.3001,-2.3001,-2.3001,-2.3001,-2.3001,-2.3001,-2.3001,-2.3001,-2.3001,-2.2953,-2.2777,-2.2553,-2.244,-2.2371,-2.2322,-2.2264,-3.9916,-3.9237,-3.8057,-3.655,-3.5005,-3.4856,-3.5167,-3.5656,-3.556,-3.5764,-3.613,-3.5411,-3.4597,-3.3691,-3.3555,-3.3037,-3.2209,-3.3081,-3.3487,-3.346,-3.3064,-3.3091,-3.3433,-3.2603,-3.2205,-3.2169,-3.2059,-3.1913,-3.168,-3.0784,-3.0671,-3.1222,-2.9305,-2.843,-2.873,-2.9057,-2.8888,-2.8164,-2.8219,-2.8032,-2.7626,-2.8295,-2.8557,-2.8275,-2.8462,-2.8846,-2.9342,-2.8279,-2.8131,-2.9003,-2.8171,-2.7643,-2.7589,-2.6662,0.0,0.0,0.0,0.0,0.0,0.0,0.0,0.0,0.0,-2.3929,-2.382,0.0,-2.3973,0.0,-2.4071,-2.4181,-2.429,-2.4312,0.0,0.0,-2.5011,-2.5196,-2.5677,-2.5404,-2.536,-2.5841,-2.5522,-2.5347,-2.5677,-2.5445,-2.5171,-2.5062,-2.5229,-2.5349,-2.5259,-2.5128,-2.4996,-2.488,-2.4781,-2.4519,-2.4148,-2.358,-2.3154,-2.3023,-2.3001,-2.3001,-2.3001,-2.3001,-2.3001,-2.3001,-2.3001,-2.3001,-2.3001,-2.3001,-2.3001,-2.2927,-2.2777,-2.2628,-2.2628,-2.2515,-2.2413,-4.1313,-4.0838,-3.9142,-3.7594,-3.6333,-3.5805,-3.5913,-3.6482,-3.6482,-3.6551,-3.6564,-3.5967,-3.5317,-3.4707,-3.4694,-3.438,-3.381,-3.4124,-3.4301,-3.426,-3.3729,-3.3634,-3.388,-3.323,-3.2969,-3.2969,-3.2694,-3.2619,-3.2718,-3.1507,-3.1389,-3.2391,-3.0799,-3.0037,-3.0101,-2.9846,-2.9395,-2.8706,-2.8878,-2.8929,-2.8809,-2.9071,-2.9096,-2.8831,-2.925,-2.951,-2.9626,-2.9225,-2.9018,-2.9106,-2.8371,-2.781,-2.7615,-2.6869,-2.6346,0.0,0.0,0.0,0.0,0.0,0.0,0.0,0.0,0.0,0.0,0.0,-2.4526,-2.4526,-2.4526,-2.4614,-2.477,-2.4803,-2.4978,-2.5448,-2.5491,-2.56,-2.5874,-2.5655,-2.56,-2.5863,-2.5469,-2.5273,-2.5535,-2.5338,-2.5215,-2.5215,-2.559,-2.5721,-2.5284,-2.5215,-2.5193,-2.5109,-2.4934,-2.453,-2.3804,-2.3318,-2.3001,-2.3001,-2.3001,-2.3001,-2.3001,-2.3001,-2.3001,-2.3001,-2.3001,-2.3001,-2.3001,-2.3001,-2.3001,-2.3001,-2.2927,-2.2852,-2.2852,-2.274,-2.2665,-4.1964,-4.1679,-3.9549,-3.86,-3.8437,-3.7229,-3.6985,-3.7377,-3.754,-3.7338,-3.6795,-3.6117,-3.5791,-3.571,-3.571,-3.5628,-3.5425,-3.5073,-3.4897,-3.487,-3.4301,-3.4057,-3.4138,-3.3975,-3.3908,-3.3869,-3.3353,-3.3392,-3.3856,-3.2305,-3.2068,-3.3,-3.199,-3.1572,-3.1803,-3.0241,-2.9319,-2.9137,-2.9319,-2.9576,-2.9884,-2.9487,-2.9227,-2.9133,-3.0012,-3.0114,-2.9328,-3.0355,-3.0431,-2.9184,-2.8585,-2.8096,-2.7609,-2.708,-2.6764,0.0,-2.6652,0.0,0.0,0.0,0.0,0.0,0.0,0.0,0.0,-2.4672,-2.4672,-2.4672,-2.4683,-2.4836,-2.527,-2.5273,-2.5426,-2.5841,-2.5895,-2.5895,-2.5895,-2.5895,-2.5895,-2.5895,-2.5565,-2.5314,-2.5306,-2.5303,-2.5314,-2.5368,-2.5633,-2.5753,-2.5382,-2.5336,-2.5478,-2.5852,-2.548,-2.4825,-2.4039,-2.3438,-2.3088,-2.3034,-2.3001,-2.3001,-2.3001,-2.3001,-2.3001,-2.3001,-2.3001,-2.3001,-2.3001,-2.3001,-2.3001,-2.3001,-2.3001,-2.3001,-2.3001,-2.3001,-2.2927,-4.1734,-4.1205,-4.0255,-3.9576,-3.9034,-3.7853,-3.7092,-3.6849,-3.7813,-3.8193,-3.7989,-3.6917,-3.6171,-3.5723,-3.571,-3.5154,-3.4301,-3.5167,-3.5507,-3.552,-3.4897,-3.4883,-3.5263,-3.4368,-3.3908,-3.3908,-3.3792,-3.3792,-3.3908,-3.3542,-3.3297,-3.3064,-3.2854,-3.2472,-3.1917,0.0,0.0,0.0,-3.1579,-3.1394,-3.0921,-3.0833,-3.0782,-3.0733,-3.0152,0.0,-3.1431,-3.0545,-3.0241,-3.0696,-2.9884,0.0,0.0,0.0,0.0,0.0,0.0,0.0,0.0,0.0,0.0,0.0,-2.5633,-2.5622,-2.5633,-2.5622,-2.5633,-2.5633,-2.5633,-2.5666,-2.5753,-2.5764,-2.5797,-2.5895,-2.5895,-2.5895,-2.5895,-2.5895,-2.5895,-2.5895,-2.5808,-2.5753,-2.5742,-2.5764,-2.5753,-2.5742,-2.5841,-2.5863,-2.5775,-2.5732,-2.5786,-2.5863,-2.5491,-2.4989,-2.4432,-2.3908,-2.3367,-2.3132,-2.3001,-2.3001,-2.3001,-2.3001,-2.3001,-2.3001,-2.3001,-2.3001,-2.3001,-2.3001,-2.3001,-2.3001,-2.3001,-2.3001,-2.3001,-2.3001,-2.3001,-4.1829,0.0,-4.0892,-4.0472,0.0,-3.9224,-3.8328,-3.7541,-3.8152,-3.841,-3.8396,-3.8084,-3.7609,-3.7066,-3.7351,-3.6957,-3.613,-3.6442,-3.6442,-3.6117,-3.5547,-3.5385,-3.5696,-3.5073,-3.4788,-3.4775,-3.4788,-3.4788,-3.4761,-3.4477,-3.4192,-3.3932,-3.3647,-3.3311,-3.2901,-3.2729,-3.2517,-3.2218,-3.2205,-3.2023,-3.1703,-3.1703,-3.1542,-3.1233,0.0,0.0,0.0,0.0,0.0,0.0,0.0,0.0,0.0,0.0,0.0,-2.925,-2.8727,-2.8079,-2.7354,-2.6928,-2.6528,-2.6207,-2.601,-2.5895,-2.5895,-2.5895,-2.5895,-2.5895,-2.5895,-2.5895,-2.5895,-2.5895,-2.5895,-2.5895,-2.5895,-2.5895,-2.5895,-2.5895,-2.5895,-2.5895,-2.5895,-2.5895,-2.5895,-2.5895,-2.5895,-2.5895,-2.5895,-2.5895,-2.5895,-2.5895,-2.5895,-2.5884,-2.548,-2.5062,-2.4552,-2.405,-2.3531,-2.3132,-2.3001,-2.3001,-2.3001,-2.3001,-2.3001,-2.3001,-2.3001,-2.3001,-2.3001,-2.3001,-2.3001,-2.3001,-2.3001,-2.2903,-2.275,-2.2837,-2.3001,-4.1747,-4.1815,-4.1313,-4.1177,-4.1232,-4.0608,-3.9726,-3.8722,0.0,0.0,0.0,-3.8817,-3.8708,-3.8258,-3.8776,-3.8667,-3.807,-3.7553,-3.7026,-3.6429,-3.594,-3.571,-3.571,-3.571,-3.571,-3.571,-3.571,-3.571,-3.5696,-3.5181,-3.4897,-3.4748,-3.4301,-3.3962,-3.3731,-3.3308,-3.2816,-3.2246,-3.2205,-3.2205,-3.2205,-3.2205,-3.195,-3.1394,-3.19,-3.1936,-3.1418,-3.19,-3.1936,-3.1381,-3.1071,-3.0809,-3.0633,-3.0279,-3.0063,-2.9973,-2.9858,-2.9381,-2.8454,-2.8016,-2.7424,-2.6723,-2.6218,-2.5895,-2.5895,-2.5895,-2.5895,-2.5895,-2.5895,-2.5895,-2.5895,-2.5895,-2.5895,-2.5895,-2.5895,-2.5895,-2.5895,-2.5895,-2.5895,-2.5895,-2.5895,-2.5895,-2.5895,-2.5895,-2.5895,-2.5895,-2.5895,-2.5895,-2.5895,-2.5895,-2.5895,-2.5863,-2.5579,-2.5204,-2.4683,-2.4213,-2.3689,-2.3263,-2.3078,-2.3001,-2.3001,-2.3001,-2.3001,-2.3001,-2.3001,-2.3001,-2.3001,-2.3001,-2.2968,-2.2903,-2.2881,-2.275,-2.2346,-2.2477,-2.2739,-4.0757,-4.1232,-4.115,-4.1422,-4.1829,-4.1245,-4.058,-3.9821,-3.8328,-3.7892,-3.8396,-3.7919,-3.7702,-3.7621,-3.7702,-3.7404,-3.6849,-3.6768,-3.6402,0.0,-3.571,-3.571,-3.571,-3.571,-3.571,-3.571,-3.571,-3.571,-3.5696,-3.5628,-3.5343,-3.4843,-3.4707,-3.4204,-3.3305,-3.3142,-3.2816,-3.2232,-3.2205,-3.2205,-3.2205,-3.2205,-3.2132,-3.2059,-3.2132,-3.2169,-3.2059,-3.2132,-3.2169,-3.2059,-3.2009,-3.1973,-3.1936,-3.168,-3.1408,-3.0996,-3.0507,-3.0012,-2.9498,-2.902,-2.8378,-2.7424,-2.6456,-2.5895,-2.5895,-2.5895,-2.5895,-2.5895,-2.5895,-2.5895,-2.5895,-2.5895,-2.5895,-2.5895,-2.5895,-2.5895,-2.5895,-2.5895,-2.5895,-2.5895,-2.5895,-2.5895,-2.5895,-2.5895,-2.5895,-2.5895,-2.5895,-2.5895,-2.5895,-2.5895,-2.5895,-2.5895,-2.5852,-2.56,-2.5098,-2.4683,-2.4159,-2.3662,-2.3263,-2.3001,-2.3001,-2.3001,-2.3001,-2.3001,-2.3001,-2.3001,-2.3001,-2.3001,-2.287,-2.2608,-2.2531,-2.2335,-2.1909,-2.1887,-2.2007,-4.035,-4.0689,-4.1327,-4.1747,-4.1978,-4.1707,-4.1435,-4.1069,-3.997,-3.9003,-3.845,-3.845,-3.8271,-3.7987,-3.796,-3.7634,-3.7094,-3.6754,-3.628,-3.5737,-3.571,-3.571,-3.571,-3.571,-3.571,-3.571,-3.571,-3.571,-3.571,-3.571,-3.5574,-3.5276,-3.5276,-3.4719,-3.362,-3.3552,-3.3091,-3.2246,-3.2205,-3.2205,-3.2205,-3.2205,-3.2205,-3.2205,-3.2205,-3.2205,-3.2205,-3.2205,-3.2205,-3.2205,-3.2205,-3.2205,-3.2205,-3.2109,-3.195,-3.174,-3.1482,-3.1097,-3.0532,-2.9833,-2.9045,-2.8203,-2.7706,-2.7395,-2.7284,-2.6415,-2.5895,-2.5895,-2.5895,-2.5895,-2.5895,-2.5895,-2.5895,-2.5895,-2.5895,-2.5895,-2.5895,-2.5895,-2.5895,-2.5895,-2.5895,-2.5895,-2.5895,-2.5895,-2.5895,-2.5895,-2.5895,-2.5895,-2.5895,-2.5895,-2.5895,-2.5895,-2.5895,-2.5688,-2.5292,-2.4792,-2.4323,-2.3771,-2.3318,-2.3045,-2.3001,-2.3001,-2.3001,-2.3001,-2.3001,-2.3001,-2.3001,-2.3001,-2.2892,-2.2794,-2.2684,-2.2488,-2.2127,-2.1985,-2.2073,-4.0268,-4.0499,-4.1557,-4.2073,-4.2181,-4.2059,-4.1991,-4.1951,-4.1354,-4.0336,-3.921,-3.9509,-3.9386,-3.883,-3.8695,-3.8176,-3.7485,-3.6984,-3.6442,-3.5954,-3.5913,-3.5981,-3.6076,-3.5873,-3.5778,-3.5873,-3.5751,-3.571,-3.571,-3.571,-3.571,-3.5696,-3.5547,-3.5019,-3.4138,-3.384,-3.3281,-3.2426,-3.2286,-3.2205,-3.2205,-3.2205,-3.2205,-3.2205,-3.2205,-3.2205,-3.2205,-3.2205,-3.2205,-3.2205,-3.2205,-3.2205,-3.2205,-3.2205,-3.2205,-3.2205,-3.2205,-3.1986,-3.1418,-3.0456,-2.9679,-2.9176,-2.8903,-2.8667,-2.8426,-2.7273,-2.6415,-2.626,-2.6415,-2.6456,-2.6343,-2.6415,-2.6415,-2.626,-2.6188,-2.6146,-2.5937,-2.5895,-2.5895,-2.5895,-2.6063,-2.6177,-2.599,-2.6063,-2.6135,-2.5937,-2.5895,-2.5895,-2.5895,-2.5895,-2.5895,-2.5874,-2.5819,-2.559,-2.5237,-2.4661,-2.4181,-2.3716,-2.3291,-2.3067,-2.3001,-2.3001,-2.3001,-2.3001,-2.3001,-2.3001,-2.3001,-2.3001,-2.2936,-2.2805,-2.2739,-2.2597,-2.1985,-2.1996,-2.2171,-4.0499,-4.1096,-4.1707,-4.2331,-4.2711,-4.2236,-4.2019,-4.1951,-4.1381,-4.1055,-4.0865,-4.0933,-4.0594,-3.9997,-3.9441,-3.8586,-3.7526,-3.7431,-3.7038,-3.6537,-3.6524,-3.6822,-3.7106,-3.6239,-3.5995,-3.6375,-3.5981,-3.575,-3.571,-3.571,-3.571,-3.5642,-3.5141,-3.4829,-3.4585,-3.3688,-3.3129,-3.3006,-3.249,-3.2205,-3.2205,-3.2205,-3.2205,-3.2205,-3.2205,-3.2205,-3.2205,-3.2205,-3.2205,-3.2205,-3.2205,-3.2205,-3.2205,-3.2205,-3.2205,-3.2205,-3.2205,-3.2169,-3.2046,-3.1121,-3.0494,-3.0367,-2.9564,-2.8969,-2.8785,-2.86,-2.8016,-2.7447,-2.7758,-2.7758,-2.7255,-2.7637,-2.7678,-2.7133,-2.7021,-2.6787,-2.6146,-2.5895,-2.5895,-2.5895,-2.6467,-2.6787,-2.6104,-2.6467,-2.6622,-2.5979,-2.5895,-2.5895,-2.5895,-2.5895,-2.5895,-2.5819,-2.5546,-2.5303,-2.5117,-2.4377,-2.3908,-2.3662,-2.3329,-2.3056,-2.3001,-2.3001,-2.3001,-2.3001,-2.3001,-2.3001,-2.3001,-2.299,-2.287,-2.2652,-2.2466,-2.2149,-2.1386,-2.145,-2.1865,-4.0011,-4.0621,-4.1218,-4.2032,-4.2778,-4.2616,-4.2521,-4.2493,-4.2276,-4.2154,-4.2168,-4.2154,-4.1435,-4.0173,-3.9563,-3.8654,-3.7499,-3.7106,-3.6863,-3.6605,-3.6592,-3.6741,-3.6931,-3.6862,-3.6537,-3.6144,-3.6171,-3.6062,-3.5764,-3.571,-3.571,-3.5696,-3.5425,-3.4978,-3.4301,-3.3837,-3.3254,-3.2585,-3.2341,-3.2205,-3.2205,-3.2205,-3.2205,-3.2205,-3.2205,-3.2205,-3.2205,-3.2205,-3.2205,-3.2205,-3.2205,-3.2205,-3.2205,-3.2205,-3.2205,-3.2205,-3.2205,-3.2205,-3.2205,-3.179,-3.1482,-3.1408,-3.0959,-3.0658,-3.0431,-3.0444,-3.0037,-2.9186,-2.8664,-2.8227,-2.7959,-2.781,-2.773,-2.7799,-2.7487,-2.7062,-2.6745,-2.6663,-2.6498,-2.6063,-2.6218,-2.6343,-2.6021,-2.6218,-2.626,-2.5937,-2.5937,-2.5979,-2.5937,-2.5895,-2.5895,-2.5808,-2.5273,-2.4945,-2.504,-2.4355,-2.3793,-2.3607,-2.3318,-2.3012,-2.3001,-2.3001,-2.3001,-2.3001,-2.3001,-2.3001,-2.3001,-2.3001,-2.2914,-2.2652,-2.2386,-2.2124,-2.1778,-2.1876,-2.2116,-3.9902,-4.0526,-4.1272,-4.21,-4.2873,-4.29,-4.29,-4.29,-4.29,-4.29,-4.29,-4.29,-4.2086,-4.0716,-3.9888,-3.8898,-3.777,-3.7297,-3.7107,-3.7094,-3.7094,-3.7189,-3.7365,-3.7377,-3.7038,-3.6333,-3.6483,-3.628,-3.5778,-3.571,-3.571,-3.5696,-3.5507,-3.5087,-3.4423,-3.3975,-3.3376,-3.2725,-3.2386,-3.2205,-3.2205,-3.2205,-3.2205,-3.2205,-3.2205,-3.2205,-3.2205,-3.2205,-3.2205,-3.2205,-3.2205,-3.2205,-3.2205,-3.2205,-3.2205,-3.2205,-3.2205,-3.2205,-3.2205,-3.2205,-3.2146,-3.2,-3.1963,-3.1904,-3.1706,-3.1669,-3.136,-3.0697,-2.9807,-2.9252,-2.8782,-2.8505,-2.8518,-2.8703,-2.8199,-2.781,-2.7568,-2.7528,-2.7296,-2.6693,-2.704,-2.6928,-2.6928,-2.6846,-2.6734,-2.6734,-2.6652,-2.6569,-2.658,-2.6652,-2.6535,-2.6091,-2.5329,-2.4951,-2.4916,-2.4126,-2.3635,-2.3433,-2.3176,-2.3001,-2.3001,-2.3001,-2.3001,-2.3001,-2.3001,-2.3001,-2.3001,-2.3001,-2.2903,-2.2783,-2.2531,-2.2179,-2.1953,-2.2171,-2.2291,-4.0513,-4.1205,-4.2331,-4.2792,-4.29,-4.29,-4.29,-4.29,-4.29,-4.29,-4.29,-4.29,-4.2521,-4.1788,-4.0689,-3.9509,-3.8491,-3.8369,-3.8328,-3.8342,-3.8328,-3.864,-3.9088,-3.8041,-3.7485,-3.7296,-3.6877,-3.6347,-3.575,-3.571,-3.571,-3.5696,-3.5181,-3.5114,-3.5208,-3.3946,-3.3363,-3.3515,-3.2684,-3.2205,-3.2205,-3.2205,-3.2205,-3.2205,-3.2205,-3.2205,-3.2205,-3.2205,-3.2205,-3.2205,-3.2205,-3.2205,-3.2205,-3.2205,-3.2205,-3.2205,-3.2205,-3.2205,-3.2205,-3.2205,-3.2169,-3.2182,-3.2132,-3.2109,-3.1927,-3.189,-3.178,-3.1535,-3.136,-3.091,-3.0139,-3.0279,-3.0368,-2.9768,-2.9588,-2.9147,-2.8466,-2.8426,-2.8359,-2.8307,-2.8664,-2.89,-2.9225,-2.8782,-2.8187,-2.8119,-2.8199,-2.8148,-2.8039,-2.8108,-2.7651,-2.6736,-2.6005,-2.5383,-2.4668,-2.3979,-2.3359,-2.3137,-2.3185,-2.3038,-2.3038,-2.3001,-2.3038,-2.3038,-2.3001,-2.3001,-2.3001,-2.2914,-2.2761,-2.2597,-2.2368,-2.2116,-2.1854,-2.2095,-2.2226,-4.0784,-4.1747,-4.2548,-4.29,-4.29,-4.29,-4.29,-4.29,-4.29,-4.29,-4.29,-4.29,-4.2561,-4.1978,-4.1557,-4.0689,-3.9604,-3.9549,-3.9563,-3.9549,-3.9549,-3.9468,-3.9278,-3.9197,-3.879,-3.8041,-3.7473,-3.6645,-3.5791,-3.571,-3.571,-3.5696,-3.552,-3.5343,-3.4965,-3.4149,-3.358,-3.3322,-3.2576,-3.2205,-3.2205,-3.2205,-3.2205,-3.2205,-3.2205,-3.2205,-3.2205,-3.2205,-3.2205,-3.2205,-3.2205,-3.2205,-3.2205,-3.2205,-3.2205,-3.2205,-3.2205,-3.2205,-3.2205,-3.2205,-3.2205,-3.2205,-3.2205,-3.2169,-3.2109,-3.2073,-3.2073,-3.2,-3.2,-3.168,-3.1296,-3.091,-3.0759,-3.0848,-3.0406,-2.9973,-2.973,-2.9601,-2.9395,-2.8981,-2.8993,-2.9005,-2.903,-2.8585,-2.8426,-2.8398,-2.8438,-2.8466,-2.8426,-2.8426,-2.8239,-2.77,-2.7017,-2.6396,-2.6142,-2.4659,-2.368,-2.3361,-2.325,-2.3313,-2.3313,-2.325,-2.3213,-2.3324,-2.325,-2.3065,-2.3065,-2.2979,-2.2783,-2.2408,-2.2179,-2.1909,-2.1636,-2.1854,-2.2062,-4.1245,-4.2032,-4.2643,-4.29,-4.29,-4.29,-4.29,-4.29,-4.29,-4.29,-4.29,-4.29,-4.2656,-4.2331,-4.2276,-4.1883,-4.1042,-4.0689,-4.0472,-4.0485,-4.0485,-4.0173,-3.9726,-3.9997,-3.9563,-3.8437,-3.7553,-3.6768,-3.6062,-3.5764,-3.571,-3.571,-3.571,-3.5533,-3.5019,-3.4314,-3.3729,-3.3281,-3.2612,-3.2205,-3.2205,-3.2205,-3.2205,-3.2205,-3.2205,-3.2205,-3.2205,-3.2205,-3.2205,-3.2205,-3.2205,-3.2205,-3.2205,-3.2205,-3.2205,-3.2205,-3.2205,-3.2205,-3.2205,-3.2205,-3.2205,-3.2205,-3.2205,-3.2205,-3.2205,-3.2205,-3.2205,-3.2205,-3.2205,-3.2132,-3.1913,-3.1334,-3.111,-3.1485,-3.1086,-3.0722,-3.0735,-3.0722,-3.0469,-3.0063,-2.9871,-2.9653,-2.9447,-2.9408,-2.9408,-2.9342,-2.9303,-2.9264,-2.9252,-2.9213,-2.901,-2.8607,-2.7835,-2.7113,-2.6587,-2.5456,-2.4707,-2.4396,-2.4118,-2.3998,-2.3815,-2.368,-2.3607,-2.3655,-2.3508,-2.3287,-2.3139,-2.3075,-2.2787,-2.2415,-2.2018,-2.1701,-2.1603,-2.1603,-2.1843,-4.1978,-4.2127,-4.2643,-4.29,-4.29,-4.29,-4.29,-4.29,-4.29,-4.29,-4.29,-4.29,-4.286,-4.2846,-4.2792,-4.2792,-4.248,-4.1639,-4.1218,-4.1218,-4.1191,-4.0865,-4.0309,-4.035,-3.9712,-3.8518,-3.7324,-3.6741,-3.6592,-3.6157,-3.5886,-3.5778,-3.5805,-3.575,-3.5683,-3.4558,-3.3935,-3.3623,-3.2806,-3.2273,-3.2205,-3.2205,-3.2205,-3.2205,-3.2205,-3.2205,-3.2205,-3.2205,-3.2205,-3.2205,-3.2205,-3.2205,-3.2205,-3.2205,-3.2205,-3.2205,-3.2205,-3.2205,-3.2205,-3.2205,-3.2205,-3.2205,-3.2205,-3.2205,-3.2205,-3.2205,-3.2205,-3.2205,-3.2205,-3.2169,-3.2169,-3.2059,-3.1913,-3.1669,-3.1559,-3.1522,-3.1572,-3.1572,-3.1559,-3.1434,-3.1323,-3.1535,-3.1498,-3.1123,-3.0923,-3.0923,-3.0848,-3.0748,-3.0697,-3.0659,-3.03,-2.9427,-2.861,-2.7984,-2.7095,-2.6242,-2.588,-2.5546,-2.5335,-2.5123,-2.4838,-2.4659,-2.4587,-2.4587,-2.4288,-2.407,-2.3827,-2.3731,-2.3371,-2.2965,-2.2329,-2.1858,-2.1814,-2.186,-2.1769,-4.2249,-4.2616,-4.2806,-4.29,-4.29,-4.29,-4.29,-4.29,-4.29,-4.29,-4.29,-4.29,-4.29,-4.29,-4.29,-4.29,-4.286,-4.248,-4.2331,-4.2317,-4.2317,-4.1991,-4.1503,-4.1422,-4.0594,-3.9292,-3.9088,-3.8396,-3.7392,-3.6997,-3.674,-3.6402,-3.6307,-3.6103,-3.5696,-3.491,-3.4355,-3.3853,-3.32,-3.264,-3.2273,-3.2218,-3.2218,-3.2205,-3.2205,-3.2205,-3.2205,-3.2205,-3.2205,-3.2205,-3.2205,-3.2205,-3.2205,-3.2205,-3.2205,-3.2205,-3.2205,-3.2205,-3.2205,-3.2205,-3.2205,-3.2205,-3.2205,-3.2205,-3.2205,-3.2205,-3.2205,-3.2205,-3.2205,-3.2205,-3.2205,-3.2205,-3.2132,-3.2036,-3.2,-3.2,-3.1977,-3.2,-3.1963,-3.183,-3.1817,-3.1743,-3.1633,-3.1522,-3.1522,-3.1535,-3.1447,-3.1373,-3.141,-3.1373,-3.1397,-3.0784,-2.9892,-2.8948,-2.8273,-2.7449,-2.6837,-2.6517,-2.6277,-2.6047,-2.5791,-2.5629,-2.5558,-2.5335,-2.5075,-2.4826,-2.4587,-2.4326,-2.4033,-2.364,-2.3202,-2.2765,-2.2389,-2.2228,-2.2146,-4.2548,-4.2887,-4.29,-4.29,-4.29,-4.29,-4.29,-4.29,-4.29,-4.29,-4.29,-4.29,-4.29,-4.29,-4.29,-4.29,-4.29,-4.29,-4.29,-4.29,-4.29,-4.2561,-4.2019,-4.1761,-4.1177,-4.0201,-4.0119,-3.9495,-3.819,-3.7731,-3.7216,-3.6673,-3.6388,-3.609,-3.5683,-3.514,-3.4572,-3.4192,-3.3702,-3.3105,-3.2667,-3.2544,-3.2436,-3.2246,-3.2205,-3.2205,-3.2205,-3.2205,-3.2205,-3.2205,-3.2205,-3.2205,-3.2205,-3.2205,-3.2205,-3.2205,-3.2205,-3.2205,-3.2205,-3.2205,-3.2205,-3.2205,-3.2205,-3.2205,-3.2205,-3.2205,-3.2205,-3.2205,-3.2205,-3.2205,-3.2205,-3.2205,-3.2205,-3.2205,-3.2169,-3.2205,-3.2205,-3.2205,-3.2132,-3.2036,-3.2036,-3.1977,-3.1853,-3.1743,-3.1706,-3.172,-3.1646,-3.1609,-3.1609,-3.1572,-3.1596,-3.1343,-3.0351,-2.9715,-2.9535,-2.8765,-2.7841,-2.749,-2.7175,-2.6939,-2.6654,-2.6517,-2.6414,-2.6035,-2.5709,-2.5394,-2.5123,-2.5052,-2.4838,-2.4445,-2.411,-2.3622,-2.3185,-2.276,-2.2614,-4.2887,-4.29,-4.29,-4.29,-4.29,-4.29,-4.29,-4.29,-4.29,-4.29,-4.29,-4.29,-4.29,-4.29,-4.29,-4.29,-4.29,-4.29,-4.29,-4.29,-4.2873,-4.2602,-4.2141,-4.1734,-4.1381,-4.1055,-4.0635,-4.0038,-3.9386,-3.8437,-3.7296,-3.6877,-3.6361,-3.5751,-3.5669,-3.5114,-3.4856,-3.4653,-3.4151,-3.3607,-3.3074,-3.2979,-3.2748,-3.2232,-3.2205,-3.2205,-3.2205,-3.2205,-3.2205,-3.2205,-3.2205,-3.2205,-3.2205,-3.2205,-3.2205,-3.2205,-3.2205,-3.2205,-3.2205,-3.2205,-3.2205,-3.2205,-3.2205,-3.2205,-3.2205,-3.2205,-3.2205,-3.2205,-3.2205,-3.2205,-3.2205,-3.2205,-3.2205,-3.2205,-3.2205,-3.2205,-3.2205,-3.2205,-3.2169,-3.2169,-3.2205,-3.2169,-3.2146,-3.2,-3.1927,-3.189,-3.1793,-3.172,-3.172,-3.1743,-3.1656,-3.1126,-3.0468,-2.9926,-2.9566,-2.8797,-2.7961,-2.7921,-2.7723,-2.7523,-2.7377,-2.7242,-2.7175,-2.679,-2.6414,-2.607,-2.5896,-2.5965,-2.5861,-2.5628,-2.5144,-2.4505,-2.3965,-2.3556,-2.2956,-4.29,-4.29,-4.29,-4.29,-4.29,-4.29,-4.29,-4.29,-4.29,-4.29,-4.29,-4.29,-4.29,-4.29,-4.29,-4.29,-4.29,-4.29,-4.29,-4.29,-4.29,-4.2819,-4.267,-4.2493,-4.2141,-4.1761,-4.1503,-4.1218,-4.0621,-3.9712,-3.8844,-3.7948,-3.7133,-3.6469,-3.5832,-3.5533,-3.5195,-3.4775,-3.4219,-3.3688,-3.3169,-3.2694,-3.2395,-3.2259,-3.2205,-3.2205,-3.2205,-3.2205,-3.2205,-3.2205,-3.2205,-3.2205,-3.2205,-3.2205,-3.2205,-3.2205,-3.2205,-3.2205,-3.2205,-3.2205,-3.2205,-3.2205,-3.2205,-3.2205,-3.2205,-3.2205,-3.2205,-3.2205,-3.2205,-3.2205,-3.2205,-3.2205,-3.2205,-3.2205,-3.2205,-3.2205,-3.2205,-3.2205,-3.2205,-3.2205,-3.2205,-3.2205,-3.2182,-3.2146,-3.2109,-3.2109,-3.2036,-3.2013,-3.1977,-3.1963,-3.1886,-3.1254,-3.0629,-2.996,-2.9328,-2.8599,-2.8152,-2.8197,-2.8085,-2.7967,-2.7868,-2.7802,-2.7802,-2.7689,-2.731,-2.696,-2.7074,-2.7175,-2.7007,-2.6654,-2.6105,-2.5415,-2.481,-2.428,-2.3438,-4.2521,-4.2534,-4.2778,-4.29,-4.29,-4.29,-4.29,-4.29,-4.29,-4.29,-4.29,-4.29,-4.29,-4.29,-4.29,-4.29,-4.29,-4.29,-4.29,-4.29,-4.29,-4.2887,-4.2819,-4.2683,-4.2331,-4.2059,-4.2005,-4.1327,-4.0485,-4.0201,-3.9278,-3.7799,-3.7268,-3.6604,-3.5791,-3.571,-3.5534,-3.5127,-3.4585,-3.4041,-3.3457,-3.2898,-3.2463,-3.23,-3.2205,-3.2205,-3.2205,-3.2205,-3.2205,-3.2205,-3.2205,-3.2205,-3.2205,-3.2205,-3.2205,-3.2205,-3.2205,-3.2205,-3.2205,-3.2205,-3.2205,-3.2205,-3.2205,-3.2205,-3.2205,-3.2205,-3.2205,-3.2205,-3.2205,-3.2205,-3.2205,-3.2205,-3.2205,-3.2205,-3.2205,-3.2205,-3.2205,-3.2205,-3.2205,-3.2205,-3.2205,-3.2205,-3.2205,-3.2205,-3.2205,-3.2169,-3.2169,-3.2182,-3.2169,-3.2191,-3.2033,-3.1468,-3.0972,-3.0429,-2.9828,-2.9127,-2.8456,-2.846,-2.8346,-2.8276,-2.8177,-2.8145,-2.8112,-2.8033,-2.7967,-2.7921,-2.7855,-2.7789,-2.7623,-2.7239,-2.6808,-2.6288,-2.5657,-2.5163,-2.4284,-4.1937,-4.2046,-4.2575,-4.2833,-4.2887,-4.29,-4.29,-4.29,-4.29,-4.29,-4.29,-4.29,-4.29,-4.29,-4.29,-4.29,-4.29,-4.29,-4.29,-4.29,-4.29,-4.29,-4.2846,-4.2507,-4.229,-4.2181,-4.2114,-4.1205,-4.035,-4.0214,-3.8979,-3.7501,-3.6877,-3.6361,-3.5859,-3.571,-3.571,-3.556,-3.4992,-3.4409,-3.3865,-3.3305,-3.2748,-3.2273,-3.2205,-3.2205,-3.2205,-3.2205,-3.2205,-3.2205,-3.2205,-3.2205,-3.2205,-3.2205,-3.2205,-3.2205,-3.2205,-3.2205,-3.2205,-3.2205,-3.2205,-3.2205,-3.2205,-3.2205,-3.2205,-3.2205,-3.2205,-3.2205,-3.2205,-3.2205,-3.2205,-3.2205,-3.2205,-3.2205,-3.2205,-3.2205,-3.2205,-3.2205,-3.2205,-3.2205,-3.2205,-3.2205,-3.2205,-3.2205,-3.2205,-3.2205,-3.2205,-3.2205,-3.2205,-3.2205,-3.2096,-3.1802,-3.1368,-3.0975,-3.033,-2.9706,-2.9124,-2.8717,-2.8563,-2.8471,-2.8308,-2.8276,-2.821,-2.8177,-2.8151,-2.8118,-2.8085,-2.802,-2.7967,-2.7861,-2.7426,-2.6935,-2.6399,-2.6077,-2.5396,-4.1584,-4.2005,-4.2141,-4.2466,-4.2846,-4.29,-4.29,-4.29,-4.29,-4.29,-4.29,-4.29,-4.29,-4.29,-4.286,-4.29,-4.2887,-4.29,-4.29,-4.29,-4.29,-4.29,-4.2873,-4.2697,-4.267,-4.2629,-4.267,-4.1924,-4.0974,-4.039,-3.9685,-3.7553,-3.7094,-3.6726,-3.5859,-3.571,-3.571,-3.5615,-3.5087,-3.4531,-3.3975,-3.339,-3.2816,-3.2286,-3.2205,-3.2205,-3.2205,-3.2205,-3.2205,-3.2205,-3.2205,-3.2205,-3.2205,-3.2205,-3.2205,-3.2205,-3.2205,-3.2205,-3.2205,-3.2205,-3.2205,-3.2205,-3.2205,-3.2205,-3.2205,-3.2205,-3.2205,-3.2205,-3.2205,-3.2205,-3.2205,-3.2205,-3.2205,-3.2205,-3.2205,-3.2205,-3.2205,-3.2205,-3.2205,-3.2205,-3.2205,-3.2205,-3.2205,-3.2205,-3.2205,-3.2205,-3.2205,-3.2205,-3.2205,-3.2205,-3.2096,-3.1897,-3.168,-3.1232,-3.0513,-2.9876,-2.9252,-2.8823,-2.8641,-2.8587,-2.8471,-2.8438,-2.8373,-2.836,-2.8346,-2.8314,-2.8281,-2.8197,-2.8099,-2.8066,-2.802,-2.7517,-2.7063,-2.682,-2.6338,-4.1205,-4.1978,-4.1991,-4.2358,-4.2846,-4.29,-4.29,-4.29,-4.29,-4.29,-4.29,-4.29,-4.29,-4.286,-4.2616,-4.2602,-4.286,-4.29,-4.29,-4.29,-4.29,-4.29,-4.29,-4.2846,-4.2778,-4.2521,-4.2141,-4.1394,-4.0553,-4.0173,-3.9102,-3.7284,-3.7134,-3.6564,-3.5859,-3.571,-3.571,-3.5601,-3.51,-3.4626,-3.4273,-3.3498,-3.2816,-3.2341,-3.2205,-3.2205,-3.2205,-3.2205,-3.2205,-3.2205,-3.2205,-3.2205,-3.2205,-3.2205,-3.2205,-3.2205,-3.2205,-3.2205,-3.2205,-3.2205,-3.2205,-3.2205,-3.2205,-3.2205,-3.2205,-3.2205,-3.2205,-3.2205,-3.2205,-3.2205,-3.2205,-3.2205,-3.2205,-3.2205,-3.2205,-3.2205,-3.2205,-3.2205,-3.2205,-3.2205,-3.2205,-3.2205,-3.2205,-3.2205,-3.2205,-3.2205,-3.2205,-3.2205,-3.2205,-3.2205,-3.2137,-3.2015,-3.187,-3.145,-3.0697,-2.9991,-2.9279,-2.8872,-2.8614,-2.8587,-2.8554,-2.8554,-2.8554,-2.8522,-2.8476,-2.849,-2.8457,-2.8373,-2.8262,-2.8216,-2.8097,-2.786,-2.7536,-2.7029,-2.6519,-4.0974,-4.1991,-4.1991,-4.2344,-4.2846,-4.29,-4.29,-4.29,-4.29,-4.29,-4.29,-4.29,-4.2833,-4.2643,-4.2249,-4.2344,-4.2643,-4.29,-4.29,-4.29,-4.29,-4.29,-4.29,-4.2846,-4.2683,-4.21,-4.1883,-4.0974,-4.0133,-3.9536,-3.9102,-3.7216,-3.6944,-3.6592,-3.5954,-3.571,-3.571,-3.5642,-3.5263,-3.4883,-3.4666,-3.3878,-3.321,-3.2531,-3.2246,-3.2218,-3.2205,-3.2205,-3.2205,-3.2205,-3.2205,-3.2205,-3.2205,-3.2205,-3.2205,-3.2205,-3.2205,-3.2205,-3.2205,-3.2205,-3.2205,-3.2205,-3.2205,-3.2205,-3.2205,-3.2205,-3.2205,-3.2205,-3.2205,-3.2205,-3.2205,-3.2205,-3.2205,-3.2205,-3.2205,-3.2205,-3.2205,-3.2205,-3.2205,-3.2205,-3.2205,-3.2205,-3.2205,-3.2205,-3.2205,-3.2205,-3.2205,-3.2205,-3.2205,-3.2205,-3.2151,-3.2123,-3.2028,-3.145,-3.0663,-2.9699,-2.9062,-2.8858,-2.8587,-2.8587,-2.8587,-2.8587,-2.8587,-2.8587,-2.8554,-2.8587,-2.8554,-2.849,-2.8425,-2.8365,-2.8274,-2.8141,-2.7725,-2.7186,-2.6839,-4.1367,-4.1991,-4.1991,-4.2344,-4.2846,-4.29,-4.29,-4.29,-4.29,-4.29,-4.286,-4.2873,-4.2575,-4.2222,-4.2073,-4.2059,-4.2141,-4.2493,-4.2806,-4.2833,-4.286,-4.29,-4.29,-4.2887,-4.2792,-4.2765,-4.2439,-4.1747,-4.1137,-4.1137,-3.9604,-3.7948,-3.7677,-3.7202,-3.6049,-3.571,-3.571,-3.571,-3.5533,-3.5303,-3.4909,-3.4461,-3.3797,-3.2925,-3.2463,-3.2232,-3.2205,-3.2205,-3.2205,-3.2205,-3.2205,-3.2205,-3.2205,-3.2205,-3.2205,-3.2205,-3.2205,-3.2205,-3.2205,-3.2205,-3.2205,-3.2205,-3.2205,-3.2205,-3.2205,-3.2205,-3.2205,-3.2205,-3.2205,-3.2205,-3.2205,-3.2205,-3.2205,-3.2205,-3.2205,-3.2205,-3.2205,-3.2205,-3.2205,-3.2205,-3.2205,-3.2205,-3.2205,-3.2205,-3.2205,-3.2205,-3.2205,-3.2205,-3.2205,-3.2205,-3.2191,-3.2191,-3.2191,-3.1422,-3.0622,-2.9564,-2.8763,-2.8736,-2.8587,-2.8587,-2.8587,-2.8587,-2.8587,-2.8587,-2.8587,-2.8587,-2.8587,-2.8587,-2.8554,-2.8476,-2.8463,-2.8403,-2.8053,-2.7685,-2.7746,-4.1986,-4.2766,-4.2222,-4.2358,-4.2833,-4.29,-4.29,-4.29,-4.2887,-4.2711,-4.2493,-4.2412,-4.229,-4.1883,-4.1259,-4.1069,-4.1313,-4.2059,-4.2385,-4.2466,-4.2724,-4.29,-4.2887,-4.2887,-4.29,-4.2792,-4.2561,-4.2209,-4.153,-4.0743,-3.9753,-3.8383,-3.7745,-3.6849,-3.5995,-3.571,-3.571,-3.571,-3.5696,-3.5588,-3.5208,-3.4748,-3.3892,-3.3186,-3.2572,-3.2246,-3.2205,-3.2205,-3.2205,-3.2205,-3.2205,-3.2205,-3.2205,-3.2205,-3.2205,-3.2205,-3.2205,-3.2205,-3.2205,-3.2205,-3.2205,-3.2205,-3.2205,-3.2205,-3.2205,-3.2205,-3.2205,-3.2205,-3.2205,-3.2205,-3.2205,-3.2205,-3.2205,-3.2205,-3.2205,-3.2205,-3.2205,-3.2205,-3.2205,-3.2205,-3.2205,-3.2205,-3.2205,-3.2205,-3.2205,-3.2205,-3.2205,-3.2205,-3.2205,-3.2205,-3.2205,-3.2096,-3.2001,-3.1273,-3.0486,-2.9577,-2.8722,-2.8614,-2.8587,-2.8587,-2.8587,-2.8587,-2.8587,-2.8587,-2.8587,-2.8587,-2.8587,-2.8587,-2.8587,-2.8587,-2.8541,-2.8495,-2.8352,-2.8241,-2.8235,-4.287,-4.3668,-4.2847,-4.274,-4.3184,-4.3225,-4.3225,-4.3225,-4.3225,-4.2931,-4.2316,-4.2309,-4.2152,-4.1616,-4.0952,-4.0458,-4.0485,-4.1693,-4.2236,-4.2385,-4.2683,-4.29,-4.2873,-4.2751,-4.2643,-4.2521,-4.2086,-4.191,-4.1693,-4.0716,-3.9481,-3.8572,-3.7473,-3.6564,-3.6103,-3.5805,-3.5764,-3.571,-3.571,-3.571,-3.5398,-3.4558,-3.3718,-3.32,-3.2562,-3.2205,-3.2205,-3.2205,-3.2205,-3.2205,-3.2205,-3.2205,-3.2205,-3.2205,-3.2205,-3.2205,-3.2205,-3.2205,-3.2205,-3.2205,-3.2205,-3.2205,-3.2205,-3.2205,-3.2205,-3.2205,-3.2205,-3.2205,-3.2205,-3.2205,-3.2205,-3.2205,-3.2205,-3.2205,-3.2205,-3.2205,-3.2205,-3.2205,-3.2205,-3.2205,-3.2205,-3.2205,-3.2205,-3.2205,-3.2205,-3.2205,-3.2205,-3.2205,-3.2205,-3.2205,-3.2164,-3.1974,-3.1639,-3.1029,-3.0323,-2.9645,-2.894,-2.86,-2.8587,-2.8587,-2.8587,-2.8587,-2.8587,-2.8587,-2.8587,-2.8587,-2.8587,-2.8587,-2.8587,-2.8587,-2.8587,-2.8554,-2.8476,-2.8398,-2.8379,-4.4177,-4.4303,-4.4172,-4.4153,-4.4209,-4.4228,-4.4195,-4.4181,-4.4092,-4.3859,-4.298,-4.3054,-4.2268,-4.1328,-4.1104,-4.0993,-4.1319,-4.2018,-4.2596,-4.2658,-4.2876,-4.2944,-4.2834,-4.2317,-4.2311,-4.2208,-4.1643,-4.1584,-4.1624,-4.108,-4.0232,-3.92,-3.8388,-3.7609,-3.6497,-3.5967,-3.5723,-3.571,-3.571,-3.571,-3.552,-3.4531,-3.3935,-3.3515,-3.2857,-3.2241,-3.2277,-3.2314,-3.2314,-3.2241,-3.2205,-3.2205,-3.2205,-3.2205,-3.2205,-3.2205,-3.2205,-3.2205,-3.2205,-3.2205,-3.2205,-3.2205,-3.2205,-3.2205,-3.2205,-3.2205,-3.2205,-3.2205,-3.2205,-3.2205,-3.2205,-3.2205,-3.2205,-3.2205,-3.2205,-3.2205,-3.2205,-3.2205,-3.2205,-3.2205,-3.2205,-3.2205,-3.2205,-3.2205,-3.2205,-3.2205,-3.2205,-3.2205,-3.2205,-3.2205,-3.2205,-3.2055,-3.1599,-3.0988,-3.0622,-2.9862,-2.9279,-2.879,-2.8722,-2.8695,-2.8587,-2.8587,-2.8587,-2.8587,-2.8587,-2.8587,-2.8587,-2.8587,-2.8587,-2.8587,-2.8587,-2.8587,-2.8587,-2.8554,-2.8522,-4.5493,-4.5884,-4.5253,-4.5176,-4.5467,-4.5118,-4.475,-4.4362,-4.3972,-4.3279,-4.2531,-4.2371,-4.1777,-4.1037,-4.1214,-4.1448,-4.1511,-4.2062,-4.2452,-4.2772,-4.2956,-4.2984,-4.2782,-4.2754,-4.2666,-4.2095,-4.1758,-4.1526,-4.1556,-4.1178,-4.0498,-3.9716,-3.8743,-3.7853,-3.6935,-3.6144,-3.5818,-3.571,-3.571,-3.571,-3.5411,-3.4638,-3.3908,-3.3892,-3.3001,-3.2617,-3.2503,-3.2717,-3.2682,-3.2588,-3.2467,-3.2372,-3.2241,-3.2205,-3.2205,-3.2205,-3.2205,-3.2205,-3.2205,-3.2205,-3.2205,-3.2205,-3.2205,-3.2205,-3.2205,-3.2205,-3.2205,-3.2205,-3.2205,-3.2205,-3.2205,-3.2205,-3.2205,-3.2205,-3.2205,-3.2205,-3.2205,-3.2205,-3.2205,-3.2205,-3.2205,-3.2205,-3.2205,-3.2205,-3.2205,-3.2205,-3.2205,-3.2205,-3.2205,-3.2205,-3.2205,-3.2191,-3.1653,-3.1056,-3.0825,-3.0391,-2.9767,-2.9319,-2.919,-2.9067,-2.8668,-2.8587,-2.8587,-2.8587,-2.8587,-2.8587,-2.8587,-2.8587,-2.8587,-2.8587,-2.8587,-2.8587,-2.8587,-2.8587,-2.8554,-4.6585,-4.7228,-4.6058,-4.5776,-4.6175,-4.573,-4.5109,-4.4487,-4.4066,-4.3128,-4.2108,-4.175,-4.1324,-4.1054,-4.1449,-4.1667,-4.1627,-4.1876,-4.2157,-4.2576,-4.2834,-4.2859,-4.2674,-4.2803,-4.2593,-4.2261,-4.1229,-4.1021,-4.0893,-4.0681,-4.0314,-4.0073,-3.8587,-3.7924,-3.7331,-3.6415,-3.575,-3.5938,-3.6071,-3.6111,-3.5919,-3.5084,-3.4536,-3.4053,-3.3514,-3.3012,-3.2895,-3.3058,-3.3058,-3.2952,-3.2704,-3.2538,-3.2408,-3.2277,-3.2205,-3.2205,-3.2205,-3.2205,-3.2205,-3.2205,-3.2205,-3.2205,-3.2205,-3.2205,-3.2205,-3.2205,-3.2205,-3.2205,-3.2205,-3.2205,-3.2205,-3.2205,-3.2205,-3.2205,-3.2205,-3.2205,-3.2205,-3.2205,-3.2205,-3.2205,-3.2205,-3.2205,-3.2205,-3.2205,-3.2205,-3.2205,-3.2205,-3.2205,-3.2205,-3.2205,-3.2205,-3.2191,-3.1694,-3.1205,-3.1042,-3.0717,-3.0174,-2.9781,-2.9638,-2.9271,-2.8777,-2.86,-2.8587,-2.8587,-2.8587,-2.8587,-2.8587,-2.8587,-2.8587,-2.8587,-2.8587,-2.8587,-2.8587,-2.8587,-2.8587,-4.7174,-4.7736,-4.6355,-4.5828,-4.5919,-4.5787,-4.5428,-4.4914,-4.4798,-4.3992,-4.2805,-4.2021,-4.1608,-4.1539,-4.1781,-4.1874,-4.176,-4.2203,-4.2507,-4.2592,-4.2556,-4.265,-4.2497,-4.2157,-4.1801,-4.1535,-4.0873,-4.0279,-3.9984,-4.0394,-4.0334,-4.0308,-3.874,-3.8103,-3.751,-3.6686,-3.6126,-3.6338,-3.6561,-3.6744,-3.6615,-3.6084,-3.5525,-3.4962,-3.4419,-3.3874,-3.3312,-3.3388,-3.3374,-3.3269,-3.3023,-3.281,-3.2682,-3.2494,-3.2422,-3.2386,-3.2386,-3.2408,-3.248,-3.2314,-3.2218,-3.2218,-3.2241,-3.2314,-3.2386,-3.2277,-3.2241,-3.2277,-3.23,-3.2241,-3.2205,-3.2205,-3.2205,-3.2205,-3.2205,-3.2205,-3.2205,-3.2205,-3.2205,-3.2205,-3.2205,-3.2205,-3.2205,-3.2205,-3.2205,-3.2205,-3.2205,-3.2205,-3.2205,-3.2205,-3.2205,-3.211,-3.1694,-3.1382,-3.1273,-3.0934,-3.0608,-3.0133,-2.9794,-2.9279,-2.8722,-2.8641,-2.86,-2.8587,-2.8587,-2.8587,-2.8587,-2.8587,-2.8587,-2.8587,-2.8587,-2.8587,-2.8587,-2.8587,-2.8587,-4.636,-4.6539,-4.6006,-4.6299,-4.7029,-4.6594,-4.6043,-4.5511,-4.505,-4.4391,-4.3513,-4.314,-4.2941,-4.2942,-4.3099,-4.3324,-4.3575,-4.3431,-4.3423,-4.3396,-4.3354,-4.2938,-4.2494,-4.208,-4.1736,-4.1318,-4.0744,-4.0768,-4.119,-4.073,-4.14,-4.1113,-3.9218,-3.8538,-3.7918,-3.7221,-3.6751,-3.6719,-3.6915,-3.6978,-3.6852,-3.6455,-3.5991,-3.5738,-3.4909,-3.4526,-3.4221,-3.406,-3.3876,-3.3667,-3.3479,-3.3339,-3.3185,-3.3002,-3.2931,-3.2895,-3.2895,-3.3023,-3.3044,-3.2704,-3.2327,-3.248,-3.2516,-3.2624,-3.281,-3.286,-3.2704,-3.2632,-3.2503,-3.2444,-3.2241,-3.2205,-3.2205,-3.2205,-3.2205,-3.2205,-3.2205,-3.2205,-3.2205,-3.2205,-3.2205,-3.2205,-3.2205,-3.2205,-3.2205,-3.2205,-3.2205,-3.2205,-3.2205,-3.2205,-3.2205,-3.2205,-3.1843,-3.1762,-3.1667,-3.1395,-3.1083,-3.0568,-3.0038,-2.9577,-2.9089,-2.8641,-2.86,-2.86,-2.86,-2.8587,-2.8587,-2.8587,-2.8587,-2.8587,-2.8587,-2.8587,-2.8587,-2.8587,-2.8587,-4.5155,-4.5207,-4.5412,-4.6171,-4.7135,-4.6724,-4.6169,-4.5554,-4.5038,-4.4488,-4.3888,-4.3888,-4.3888,-4.3907,-4.3952,-4.4113,-4.4178,-4.4103,-4.3943,-4.3852,-4.3671,-4.3341,-4.2917,-4.2648,-4.2585,-4.1888,-4.1418,-4.1501,-4.1784,-4.1528,-4.1252,-4.0783,-3.9958,-3.9046,-3.8617,-3.7792,-3.7187,-3.7187,-3.7289,-3.7366,-3.7319,-3.7035,-3.6608,-3.6433,-3.5697,-3.5174,-3.494,-3.4714,-3.4501,-3.437,-3.4269,-3.4153,-3.3982,-3.3831,-3.3762,-3.3728,-3.3782,-3.3919,-3.3905,-3.3644,-3.3115,-3.3437,-3.3422,-3.3471,-3.3471,-3.3485,-3.3297,-3.2917,-3.281,-3.2632,-3.2372,-3.2314,-3.2205,-3.2205,-3.2205,-3.2205,-3.2205,-3.2205,-3.2205,-3.2205,-3.2205,-3.2205,-3.2218,-3.2218,-3.2205,-3.2205,-3.2205,-3.2205,-3.2205,-3.2205,-3.2205,-3.2205,-3.2137,-3.2137,-3.2164,-3.1829,-3.1504,-3.1056,-3.0568,-3.0161,-2.9686,-2.9157,-2.8877,-2.8953,-2.8899,-2.8682,-2.8587,-2.8587,-2.8587,-2.8587,-2.8587,-2.8587,-2.8587,-2.8587,-2.8587,-4.3797,-4.3813,-4.448,-4.5175,-4.5855,-4.5855,-4.551,-4.5117,-4.4933,-4.4601,-4.4159,-4.4082,-4.4082,-4.4112,-4.4257,-4.4327,-4.4327,-4.4204,-4.4087,-4.404,-4.4085,-4.391,-4.3717,-4.3524,-4.3211,-4.3401,-4.2675,-4.1995,-4.2181,-4.1513,-4.0688,-4.0174,-3.9953,-3.9242,-3.933,-3.8249,-3.7653,-3.7649,-3.8014,-3.8188,-3.8234,-3.8132,-3.7855,-3.7456,-3.6691,-3.6091,-3.5834,-3.5307,-3.5133,-3.5055,-3.5106,-3.5106,-3.5106,-3.4846,-3.4732,-3.4732,-3.4732,-3.4765,-3.4798,-3.4732,-3.4732,-3.4566,-3.4399,-3.4399,-3.4129,-3.4027,-3.3973,-3.3728,-3.3325,-3.2974,-3.2668,-3.2516,-3.248,-3.235,-3.2386,-3.2422,-3.2444,-3.2444,-3.2516,-3.2552,-3.235,-3.2205,-3.2218,-3.2218,-3.2218,-3.2205,-3.2205,-3.2205,-3.2205,-3.2205,-3.2205,-3.2205,-3.2205,-3.2205,-3.2205,-3.2205,-3.196,-3.149,-3.1042,-3.0595,-3.0133,-2.9591,-2.9387,-2.9387,-2.9021,-2.8641,-2.8587,-2.8587,-2.8587,-2.8587,-2.8587,-2.8587,-2.8587,-2.8587,-2.8587,-4.3687,-4.3703,-4.3924,-4.4161,-4.4524,-4.5444,-4.5646,-4.5468,-4.5447,-4.5336,-4.5225,-4.5188,-4.5188,-4.5136,-4.5067,-4.503,-4.5098,-4.5136,-4.5046,-4.4526,-4.4526,-4.4182,-4.399,-4.3747,-4.348,-4.3198,-4.2744,-4.2888,-4.3302,-4.2328,-4.2389,-4.2141,-4.048,-3.9674,-3.9016,-3.8446,-3.859,-3.8686,-3.9023,-3.932,-3.9284,-3.9269,-3.9128,-3.8859,-3.7854,-3.7152,-3.6809,-3.6177,-3.5718,-3.5672,-3.5753,-3.5832,-3.5817,-3.5563,-3.5563,-3.5546,-3.5546,-3.5706,-3.6039,-3.6228,-3.6055,-3.5642,-3.5272,-3.5305,-3.5207,-3.524,-3.5059,-3.4743,-3.4394,-3.4041,-3.3713,-3.3541,-3.3402,-3.3058,-3.3002,-3.3002,-3.3002,-3.3002,-3.3023,-3.3037,-3.2931,-3.2717,-3.2624,-3.2624,-3.261,-3.2444,-3.2444,-3.2277,-3.2205,-3.2205,-3.2205,-3.2205,-3.2205,-3.2205,-3.2205,-3.2205,-3.2055,-3.1585,-3.1246,-3.092,-3.0446,-3.0093,-2.9781,-2.9699,-2.9129,-2.8587,-2.8668,-2.8709,-2.8614,-2.8587,-2.8587,-2.8587,-2.8587,-2.8587,-2.8587,-4.2979,-4.2992,-4.3279,-4.3358,-4.3548,-4.4606,-4.5096,-4.5092,-4.5302,-4.5317,-4.5108,-4.525,-4.536,-4.5376,-4.5444,-4.5681,-4.5776,-4.5771,-4.5682,-4.5179,-4.5157,-4.4971,-4.4576,-4.4141,-4.435,-4.3895,-4.3686,-4.3811,-4.4087,-4.3617,-4.2911,-4.2077,-4.1346,-4.0019,-3.9245,-3.9199,-3.9364,-3.9421,-3.9657,-3.9783,-3.9783,-3.9804,-3.9804,-3.941,-3.8682,-3.7804,-3.757,-3.6968,-3.618,-3.6212,-3.6321,-3.6414,-3.643,-3.643,-3.643,-3.6476,-3.6492,-3.6662,-3.6968,-3.715,-3.6831,-3.6352,-3.6149,-3.6149,-3.618,-3.6086,-3.5849,-3.5625,-3.5561,-3.5124,-3.4647,-3.4466,-3.4197,-3.3817,-3.3796,-3.3782,-3.3831,-3.3817,-3.3817,-3.3782,-3.3555,-3.3311,-3.3115,-3.308,-3.308,-3.2917,-3.2717,-3.2552,-3.235,-3.2277,-3.2241,-3.2241,-3.2205,-3.2205,-3.2205,-3.2205,-3.2001,-3.1653,-3.1463,-3.13,-3.1178,-3.088,-3.0432,-3.0025,-2.9713,-2.9387,-2.9013,-2.8877,-2.8777,-2.8668,-2.8587,-2.8587,-2.8587,-2.8587,-2.8587,-4.1604,-4.1715,-4.2363,-4.2647,-4.2774,-4.3355,-4.3671,-4.3797,-4.4433,-4.4318,-4.3797,-4.4496,-4.4685,-4.4701,-4.4685,-4.4986,-4.536,-4.5523,-4.555,-4.5577,-4.5373,-4.5431,-4.5578,-4.5494,-4.5259,-4.5279,-4.5083,-4.4548,-4.4623,-4.3499,-4.2359,-4.1393,-4.081,-4.0252,-4.006,-4.003,-4.0045,-4.006,-4.0185,-4.0274,-4.0309,-4.0205,-4.0147,-3.9768,-3.8953,-3.8279,-3.7809,-3.72,-3.6832,-3.6877,-3.7135,-3.7315,-3.745,-3.748,-3.748,-3.7435,-3.7359,-3.7375,-3.7391,-3.748,-3.748,-3.7119,-3.7255,-3.7135,-3.6907,-3.6723,-3.6538,-3.6243,-3.6039,-3.5753,-3.5417,-3.5207,-3.4949,-3.4832,-3.4765,-3.4765,-3.4798,-3.4798,-3.4765,-3.4633,-3.4331,-3.4075,-3.3817,-3.3762,-3.3802,-3.3699,-3.3541,-3.3311,-3.3044,-3.2408,-3.2372,-3.2314,-3.2277,-3.2205,-3.2205,-3.2205,-3.2151,-3.187,-3.1988,-3.1843,-3.1748,-3.1517,-3.1029,-3.0649,-3.0527,-3.0201,-2.9659,-2.9238,-2.8953,-2.8872,-2.898,-2.8655,-2.8682,-2.8614,-2.8587,-4.1588,-4.162,-4.1825,-4.192,-4.1936,-4.2126,-4.2758,-4.369,-4.3908,-4.3829,-4.3703,-4.3876,-4.3971,-4.3987,-4.3971,-4.4129,-4.4255,-4.435,-4.4634,-4.4839,-4.5159,-4.5428,-4.5634,-4.5776,-4.5792,-4.5713,-4.5487,-4.502,-4.4503,-4.3364,-4.2325,-4.1502,-4.1062,-4.1005,-4.1024,-4.1091,-4.0836,-4.0699,-4.082,-4.0922,-4.099,-4.0956,-4.0738,-4.0162,-3.9413,-3.8775,-3.8185,-3.7591,-3.7258,-3.7315,-3.7421,-3.751,-3.751,-3.751,-3.751,-3.751,-3.748,-3.751,-3.751,-3.751,-3.751,-3.751,-3.751,-3.7464,-3.7285,-3.7195,-3.7119,-3.6831,-3.6693,-3.6492,-3.6274,-3.6071,-3.5819,-3.5723,-3.5691,-3.5659,-3.5674,-3.5659,-3.5659,-3.5467,-3.5142,-3.4963,-3.4728,-3.4581,-3.4633,-3.4551,-3.4432,-3.4211,-3.3782,-3.3171,-3.2739,-3.2717,-3.2386,-3.2314,-3.2241,-3.2205,-3.2205,-3.2191,-3.2205,-3.2191,-3.2015,-3.1721,-3.1436,-3.1165,-3.0907,-3.0608,-3.0228,-2.9849,-2.9496,-2.9591,-2.9659,-2.9157,-2.8763,-2.8709,-2.8763,-4.1588,-4.1588,-4.1588,-4.1588,-4.1588,-4.1604,-4.2141,-4.2853,-4.3184,-4.3184,-4.2932,-4.3184,-4.3311,-4.3311,-4.3327,-4.3485,-4.3766,-4.3861,-4.418,-4.4685,-4.4685,-4.5223,-4.5555,-4.5555,-4.5555,-4.5539,-4.5286,-4.4682,-4.429,-4.339,-4.2298,-4.1617,-4.1588,-4.1588,-4.1555,-4.1456,-4.1374,-4.1323,-4.1357,-4.1555,-4.1588,-4.1573,-4.1178,-4.0577,-3.9866,-3.9187,-3.8507,-3.7828,-3.7573,-3.751,-3.751,-3.751,-3.751,-3.751,-3.751,-3.751,-3.751,-3.751,-3.751,-3.751,-3.751,-3.751,-3.751,-3.748,-3.748,-3.7421,-3.7405,-3.7345,-3.7375,-3.7345,-3.7165,-3.6968,-3.6769,-3.6554,-3.6569,-3.6538,-3.6523,-3.6523,-3.643,-3.6274,-3.6102,-3.5944,-3.577,-3.5595,-3.5531,-3.5531,-3.5499,-3.5385,-3.4813,-3.4109,-3.3596,-3.3367,-3.2846,-3.2444,-3.2386,-3.235,-3.2314,-3.2277,-3.2205,-3.2178,-3.2123,-3.2042,-3.1825,-3.1539,-3.1192,-3.0948,-3.0758,-3.0446,-3.0188,-3.0283,-3.0269,-2.9903,-2.936,-2.8885,-2.9007,-4.1446,-4.1494,-4.1557,-4.1588,-4.1588,-4.1588,-4.1636,-4.1667,-4.2347,-4.2252,-4.1889,-4.2315,-4.26,-4.2584,-4.26,-4.2868,-4.309,-4.3216,-4.3548,-4.4543,-4.4496,-4.4875,-4.5191,-4.5128,-4.5191,-4.5065,-4.4701,-4.4113,-4.4038,-4.3153,-4.2094,-4.1604,-4.1588,-4.1588,-4.1588,-4.1588,-4.1522,-4.1522,-4.1522,-4.1588,-4.1588,-4.1509,-4.1241,-4.0482,-3.9803,-3.9155,-3.8428,-3.7891,-3.751,-3.751,-3.751,-3.751,-3.751,-3.751,-3.751,-3.751,-3.751,-3.751,-3.751,-3.751,-3.751,-3.751,-3.751,-3.751,-3.751,-3.751,-3.751,-3.751,-3.748,-3.748,-3.7315,-3.7285,-3.715,-3.7089,-3.7089,-3.7059,-3.7059,-3.7043,-3.6952,-3.6861,-3.6831,-3.6662,-3.6492,-3.6321,-3.6384,-3.6507,-3.6476,-3.6352,-3.5944,-3.5127,-3.4533,-3.4109,-3.3471,-3.2988,-3.2717,-3.2646,-3.248,-3.2372,-3.2408,-3.2408,-3.2547,-3.2417,-3.2241,-3.1978,-3.1714,-3.1512,-3.13,-3.107,-3.0907,-3.0839,-3.0785,-3.0608,-3.0133,-2.9577,-2.9414,-4.034,-4.0877,-4.1367,-4.1588,-4.1588,-4.1588,-4.1588,-4.1604,-4.1795,-4.1778,-4.1636,-4.1778,-4.1889,-4.1952,-4.1952,-4.2141,-4.2173,-4.2442,-4.26,-4.3279,-4.3737,-4.4322,-4.4828,-4.4654,-4.4764,-4.4638,-4.418,-4.3469,-4.3105,-4.2378,-4.1825,-4.162,-4.1588,-4.1588,-4.1588,-4.1588,-4.1588,-4.1588,-4.1588,-4.1588,-4.1588,-4.1399,-4.1083,-4.0214,-3.9455,-3.8886,-3.8223,-3.7654,-3.751,-3.751,-3.751,-3.751,-3.751,-3.751,-3.751,-3.751,-3.751,-3.751,-3.751,-3.751,-3.751,-3.751,-3.751,-3.751,-3.751,-3.751,-3.751,-3.751,-3.751,-3.751,-3.751,-3.751,-3.751,-3.751,-3.751,-3.751,-3.751,-3.748,-3.7421,-3.7421,-3.745,-3.7315,-3.7119,-3.7119,-3.7285,-3.7285,-3.724,-3.7119,-3.6922,-3.6321,-3.5449,-3.4912,-3.4177,-3.3679,-3.3416,-3.3206,-3.3136,-3.308,-3.315,-3.3129,-3.3023,-3.2881,-3.2739,-3.2525,-3.228,-3.2129,-3.2017,-3.1969,-3.1806,-3.1597,-3.1398,-3.127,-3.1159,-3.0703,-3.0405,-3.974,-4.0182,-4.0862,-4.1336,-4.1557,-4.1588,-4.1588,-4.1588,-4.1588,-4.1588,-4.1588,-4.1588,-4.1588,-4.1588,-4.1588,-4.1588,-4.1588,-4.162,-4.2205,-4.2742,-4.309,-4.3643,-4.3908,-4.4038,-4.4069,-4.3974,-4.3516,-4.29,-4.2284,-4.1936,-4.162,-4.1588,-4.1588,-4.1588,-4.1588,-4.1588,-4.1588,-4.1588,-4.1588,-4.1588,-4.1588,-4.1446,-4.1099,-4.023,-3.9534,-3.8902,-3.8254,-3.7717,-3.751,-3.751,-3.751,-3.751,-3.751,-3.751,-3.751,-3.751,-3.751,-3.751,-3.751,-3.751,-3.751,-3.751,-3.751,-3.751,-3.751,-3.751,-3.751,-3.751,-3.751,-3.751,-3.751,-3.751,-3.751,-3.751,-3.751,-3.751,-3.751,-3.748,-3.748,-3.748,-3.748,-3.745,-3.7315,-3.7315,-3.7405,-3.7405,-3.748,-3.748,-3.7345,-3.7255,-3.6445,-3.5785,-3.5109,-3.4681,-3.4495,-3.4245,-3.4027,-3.3973,-3.3919,-3.3817,-3.3713,-3.3471,-3.3248,-3.303,-3.2881,-3.2783,-3.269,-3.2588,-3.248,-3.2242,-3.2124,-3.1984,-3.185,-3.1746,-3.1474,-3.9266,-3.9471,-4.0166,-4.0767,-4.1272,-4.1304,-4.1257,-4.1288,-4.1415,-4.1446,-4.1446,-4.1525,-4.1588,-4.1588,-4.1588,-4.1588,-4.1588,-4.1588,-4.2062,-4.2363,-4.2663,-4.3121,-4.3216,-4.3137,-4.32,-4.309,-4.2742,-4.2268,-4.1731,-4.1588,-4.1588,-4.1588,-4.1588,-4.1588,-4.1588,-4.1588,-4.1588,-4.1588,-4.1588,-4.1588,-4.1588,-4.1573,-4.113,-4.0561,-3.9898,-3.9187,-3.8523,-3.7938,-3.7589,-3.751,-3.751,-3.751,-3.751,-3.751,-3.751,-3.751,-3.751,-3.751,-3.751,-3.751,-3.751,-3.751,-3.751,-3.751,-3.751,-3.751,-3.751,-3.751,-3.751,-3.751,-3.751,-3.751,-3.751,-3.751,-3.751,-3.751,-3.751,-3.751,-3.751,-3.751,-3.751,-3.751,-3.751,-3.751,-3.751,-3.751,-3.751,-3.751,-3.748,-3.7391,-3.6998,-3.66,-3.6196,-3.5834,-3.5464,-3.5175,-3.4898,-3.4865,-3.478,-3.4599,-3.4365,-3.4143,-3.3851,-3.3589,-3.343,-3.3234,-3.3178,-3.3072,-3.2952,-3.2846,-3.2741,-3.2573,-3.2516,-3.2404,-3.2371,-3.8191,-3.876,-3.9439,-3.9803,-3.9929,-3.9929,-3.9898,-4.0008,-4.0561,-4.0783,-4.0925,-4.1367,-4.1588,-4.1588,-4.1588,-4.1588,-4.1588,-4.1588,-4.1588,-4.181,-4.2331,-4.2679,-4.2774,-4.2616,-4.2378,-4.2189,-4.2031,-4.1778,-4.1588,-4.1588,-4.1588,-4.1588,-4.1588,-4.1588,-4.1588,-4.1588,-4.1588,-4.1588,-4.1588,-4.1588,-4.1588,-4.1478,-4.1178,-4.0593,-3.9898,-3.9202,-3.8523,-3.7844,-3.7605,-3.751,-3.751,-3.751,-3.751,-3.751,-3.751,-3.751,-3.751,-3.751,-3.751,-3.751,-3.751,-3.751,-3.751,-3.751,-3.751,-3.751,-3.751,-3.751,-3.751,-3.751,-3.751,-3.751,-3.751,-3.751,-3.751,-3.751,-3.751,-3.751,-3.751,-3.751,-3.751,-3.751,-3.751,-3.751,-3.751,-3.751,-3.751,-3.751,-3.751,-3.748,-3.745,-3.7225,-3.6998,-3.6538,-3.5976,-3.5944,-3.5723,-3.5738,-3.5674,-3.5546,-3.5272,-3.4795,-3.4509,-3.4361,-3.3865,-3.3548,-3.3479,-3.3673,-3.3374,-3.3269,-3.3199,-3.3136,-3.3072,-3.2966,-3.2874]},{"header":{"parameterUnit":"m.s-1","parameterCategory":1,"la1":31.0,"la2":29.5877,"lo1":-88.7671,"lo2":-86.6584,"dy":0.0162,"dx":0.0185,"nx":115,"ny":88,"refTime":"2023-07-18T00:00:00:Z","depth":0,"parameterNumber":3,"parameterNumberName":"V-component_of_WINDS"},"data":[0.0,0.0,0.0,0.0,0.0,0.0,0.0,0.0,0.0,0.0,0.0,0.0,0.0,0.0,0.0,0.0,0.0,0.0,0.0,0.0,0.0,0.0,0.0,0.0,0.0,0.0,0.0,0.0,0.0,0.0,0.0,0.0,0.0,0.0,0.0,0.0,0.0,0.0,0.0,0.0,0.0,0.0,0.0,0.0,0.0,0.0,0.0,0.0,0.0,0.0,0.0,0.0,0.0,0.0,0.0,0.0,0.0,0.0,0.0,0.0,0.0,0.0,0.0,0.0,0.0,0.0,0.0,0.0,0.0,0.0,0.0,0.0,0.0,0.0,0.0,0.0,0.0,0.0,0.0,0.0,0.0,0.0,0.0,0.0,0.0,0.0,0.0,0.0,0.0,0.0,0.0,0.0,0.0,0.0,0.0,0.0,0.0,0.0,0.0,0.0,0.0,0.0,0.0,0.0,0.0,0.0,0.0,0.0,0.0,0.0,0.0,0.0,0.0,0.0,0.0,0.0,0.0,0.0,0.0,0.0,0.0,0.0,0.0,0.0,0.0,0.0,0.0,0.0,0.0,0.0,0.0,0.0,0.0,0.0,0.0,0.0,0.0,0.0,0.0,0.0,0.0,0.0,0.0,0.0,0.0,0.0,0.0,0.0,0.0,0.0,0.0,0.0,0.0,0.0,0.0,0.0,0.0,0.0,0.0,0.0,0.0,0.0,0.0,0.0,0.0,0.0,0.0,0.0,0.0,0.0,0.0,0.0,0.0,0.0,0.0,0.0,0.0,0.0,0.0,0.0,0.0,0.0,0.0,0.0,0.0,0.0,0.0,0.0,0.0,0.0,0.0,0.0,0.0,0.0,0.0,0.0,0.0,0.0,0.0,0.0,0.0,0.0,0.0,0.0,0.0,0.0,0.0,0.0,0.0,0.0,0.0,0.0,0.0,0.0,0.0,0.0,0.0,0.0,0.0,0.0,0.0,0.0,0.0,0.0,0.0,0.0,0.0,0.0,0.0,0.0,0.0,0.0,0.0,0.0,0.0,0.0,0.0,0.0,0.0,0.0,0.0,0.0,0.0,0.0,0.0,0.0,0.0,0.0,0.0,0.0,0.0,0.0,0.0,0.0,0.0,0.0,0.0,0.0,0.0,0.0,0.0,0.0,0.0,0.0,0.0,0.0,0.0,0.0,0.0,0.0,0.0,0.0,0.0,0.0,0.0,0.0,0.0,0.0,0.0,0.0,0.0,0.0,0.0,0.0,0.0,0.0,0.0,0.0,0.0,0.0,0.0,0.0,0.0,0.0,0.0,0.0,0.0,0.0,0.0,0.0,0.0,0.0,0.0,0.0,0.0,0.0,0.0,0.0,0.0,0.0,0.0,0.0,0.0,0.0,0.0,0.0,0.0,0.0,0.0,0.0,0.0,0.0,0.0,0.0,0.0,0.0,0.0,0.0,0.0,0.0,0.0,0.0,0.0,0.0,0.0,0.0,0.0,0.0,0.0,0.0,0.0,0.0,0.0,0.0,0.0,0.0,0.0,0.0,0.0,0.0,0.0,0.0,0.0,0.0,0.0,0.0,0.0,0.0,0.0,0.0,0.0,0.0,0.0,0.0,0.0,0.0,0.0,0.0,0.0,0.0,0.0,0.0,0.0,0.0,0.0,0.0,0.0,0.0,0.0,0.0,0.0,0.0,0.0,0.0,0.0,0.0,0.0,0.0,0.0,0.0,0.0,0.0,0.0,0.0,0.0,0.0,0.0,0.0,0.0,0.0,0.0,0.0,0.0,0.0,0.0,0.0,0.0,0.0,0.0,0.0,0.0,0.0,0.0,0.0,0.0,0.0,0.0,0.0,0.0,0.0,0.0,0.0,0.0,0.0,0.0,0.0,0.0,0.0,0.0,0.0,0.0,0.0,0.0,0.0,0.0,0.0,0.0,0.0,0.0,0.0,0.0,0.0,0.0,0.0,0.0,0.0,0.0,0.0,0.0,0.0,0.0,0.0,0.0,0.0,0.0,0.0,0.0,0.0,0.0,0.0,0.0,0.0,0.0,0.0,0.0,0.0,0.0,0.0,0.0,0.0,0.0,0.0,0.0,0.0,0.0,0.0,0.0,0.0,0.0,0.0,0.0,0.0,0.0,0.0,0.0,0.0,0.0,0.0,0.0,0.0,0.0,0.0,0.0,0.0,0.0,0.0,0.0,0.0,0.0,0.0,0.0,0.0,0.0,0.0,0.0,0.0,0.0,0.0,0.0,0.0,0.0,0.0,0.0,0.0,0.0,0.0,0.0,0.0,0.0,0.0,0.0,0.0,0.0,0.0,0.0,0.0,0.0,0.0,0.0,0.0,0.0,0.0,0.0,0.0,0.0,0.0,0.0,0.0,0.0,0.0,0.0,0.0,0.0,0.0,0.0,0.0,0.0,0.0,0.0,0.0,0.0,0.0,0.0,0.0,0.0,0.0,0.0,0.0,0.0,0.0,0.0,0.0,0.0,0.0,0.0,0.0,0.0,0.0,0.0,0.0,0.0,0.0,0.0,0.0,0.0,0.0,0.0,0.0,0.0,0.0,0.0,0.0,0.0,0.0,0.0,0.0,0.0,0.0,0.0,0.0,0.0,0.0,0.0,0.0,0.0,0.0,0.0,0.0,0.0,0.0,0.0,0.0,0.0,0.0,0.0,0.0,0.0,0.0,0.0,0.0,0.0,0.0,0.0,0.0,0.0,0.0,0.0,0.0,0.0,0.0,0.0,0.0,0.0,0.0,0.0,0.0,0.0,0.0,0.0,0.0,0.0,0.0,0.0,0.0,0.0,0.0,0.0,0.0,0.0,0.0,0.0,0.0,0.0,0.0,0.0,0.0,0.0,0.0,0.0,0.0,0.0,0.0,0.0,0.0,0.0,0.0,0.0,0.0,0.0,0.0,0.0,0.0,0.0,0.0,0.0,0.0,0.0,0.0,0.0,0.0,0.0,0.0,0.0,0.0,0.0,0.0,0.0,0.0,0.0,0.0,0.0,0.0,0.0,0.0,0.0,0.0,0.0,0.0,0.0,0.0,0.0,0.0,0.0,0.0,0.0,0.0,0.0,0.0,0.0,0.0,0.0,0.0,0.0,0.0,0.0,0.0,0.0,0.0,0.0,0.0,0.0,0.0,0.0,0.0,0.0,0.0,0.0,0.0,0.0,0.0,0.0,0.0,0.0,0.0,0.0,0.0,0.0,0.0,0.0,0.0,0.0,0.0,0.0,0.0,0.0,0.0,0.0,0.0,0.0,0.0,0.0,0.0,0.0,0.0,0.0,0.0,0.0,0.0,0.0,0.0,0.0,0.0,0.0,0.0,0.0,0.0,0.0,0.0,0.0,0.0,0.0,0.0,0.0,0.0,0.0,0.0,0.0,0.0,0.0,0.0,0.0,0.0,0.0,0.0,0.0,0.0,0.0,0.0,0.0,0.0,0.0,0.0,0.0,0.0,0.0,0.0,0.0,0.0,0.0,0.0,0.0,0.0,0.0,0.0,0.0,0.0,0.0,0.0,0.0,0.0,0.0,0.0,0.0,0.0,0.0,0.0,0.0,0.0,0.0,0.0,0.0,0.0,0.0,0.0,0.0,0.0,0.0,0.0,0.0,0.0,0.0,0.0,0.0,0.0,0.0,0.0,0.0,0.0,0.0,0.0,0.0,0.0,0.0,0.0,0.0,0.0,0.0,0.0,0.0,0.0,0.0,0.0,0.0,0.0,0.0,0.0,0.0,0.0,0.0,0.0,0.0,0.0,0.0,0.0,0.0,0.0,0.0,0.0,0.0,0.0,0.0,0.0,0.0,0.0,0.0,0.0,0.0,0.0,0.0,0.0,0.0,0.0,0.0,0.0,0.0,0.0,0.0,0.0,0.0,0.0,0.0,0.0,0.0,0.0,0.0,0.0,0.0,0.0,0.0,0.0,0.0,0.0,0.0,0.0,0.0,0.0,0.0,0.0,0.0,0.0,0.0,0.0,0.0,0.0,0.0,0.0,0.0,0.0,0.0,0.0,0.0,0.0,0.0,0.0,0.0,0.0,0.0,0.0,0.0,0.0,0.0,0.0,0.0,0.0,0.0,0.0,0.0,0.0,0.0,0.0,0.0,0.0,0.0,0.0,0.0,0.0,0.0,0.0,0.0,0.0,0.0,0.0,0.0,0.0,0.0,0.0,0.0,0.0,0.0,0.0,0.0,0.0,0.0,0.0,0.0,0.0,0.0,0.0,0.0,0.0,0.0,0.0,0.0,0.0,0.0,0.0,-3.061,0.0,0.0,0.0,0.0,0.0,0.0,0.0,0.0,0.0,0.0,0.0,0.0,0.0,0.0,0.0,0.0,0.0,0.0,0.0,0.0,0.0,0.0,0.0,0.0,0.0,0.0,0.0,0.0,0.0,0.0,0.0,0.0,0.0,0.0,0.0,0.0,0.0,0.0,0.0,0.0,0.0,0.0,0.0,0.0,0.0,0.0,0.0,0.0,0.0,0.0,0.0,0.0,0.0,0.0,0.0,0.0,0.0,0.0,0.0,0.0,0.0,0.0,0.0,0.0,0.0,0.0,0.0,0.0,0.0,0.0,0.0,0.0,0.0,0.0,0.0,0.0,0.0,0.0,0.0,0.0,0.0,0.0,0.0,0.0,0.0,0.0,0.0,0.0,0.0,0.0,0.0,0.0,0.0,0.0,0.0,0.0,0.0,0.0,0.0,0.0,0.0,0.0,0.0,0.0,0.0,0.0,0.0,0.0,0.0,0.0,-3.2272,-3.2862,-3.1326,-3.0652,-3.1021,0.0,0.0,0.0,0.0,0.0,0.0,0.0,0.0,0.0,0.0,0.0,0.0,0.0,0.0,0.0,0.0,0.0,0.0,0.0,0.0,0.0,0.0,0.0,0.0,0.0,0.0,0.0,0.0,0.0,0.0,0.0,0.0,0.0,0.0,0.0,0.0,0.0,0.0,0.0,0.0,0.0,0.0,0.0,0.0,0.0,0.0,0.0,0.0,0.0,0.0,0.0,0.0,0.0,0.0,0.0,0.0,0.0,0.0,0.0,0.0,0.0,0.0,0.0,0.0,0.0,0.0,0.0,0.0,0.0,0.0,0.0,0.0,0.0,0.0,0.0,0.0,0.0,0.0,0.0,0.0,0.0,0.0,0.0,0.0,0.0,0.0,0.0,0.0,0.0,0.0,0.0,0.0,0.0,0.0,0.0,0.0,0.0,0.0,0.0,0.0,0.0,0.0,0.0,0.0,0.0,0.0,0.0,0.0,0.0,0.0,0.0,0.0,-3.1676,-3.1036,-3.1274,0.0,0.0,0.0,0.0,0.0,0.0,0.0,0.0,0.0,0.0,0.0,0.0,0.0,0.0,0.0,0.0,0.0,0.0,0.0,0.0,0.0,0.0,0.0,0.0,0.0,0.0,0.0,0.0,0.0,0.0,0.0,0.0,0.0,0.0,0.0,0.0,0.0,0.0,0.0,0.0,0.0,0.0,0.0,0.0,0.0,0.0,0.0,0.0,0.0,0.0,0.0,0.0,0.0,0.0,0.0,0.0,0.0,0.0,0.0,0.0,0.0,0.0,0.0,0.0,0.0,0.0,0.0,0.0,0.0,0.0,0.0,0.0,0.0,0.0,0.0,0.0,0.0,0.0,0.0,0.0,0.0,0.0,0.0,0.0,0.0,0.0,0.0,0.0,0.0,0.0,0.0,0.0,0.0,0.0,0.0,0.0,0.0,0.0,0.0,0.0,0.0,0.0,0.0,0.0,0.0,0.0,0.0,0.0,0.0,0.0,-3.1864,-3.2469,-3.2314,0.0,-3.0736,0.0,0.0,0.0,0.0,0.0,0.0,0.0,0.0,0.0,0.0,0.0,0.0,0.0,0.0,0.0,0.0,0.0,0.0,0.0,0.0,0.0,0.0,0.0,0.0,0.0,0.0,0.0,0.0,0.0,0.0,0.0,0.0,0.0,0.0,0.0,0.0,0.0,0.0,0.0,0.0,0.0,0.0,0.0,0.0,0.0,0.0,0.0,0.0,0.0,0.0,0.0,0.0,0.0,0.0,0.0,0.0,0.0,0.0,0.0,0.0,0.0,0.0,0.0,0.0,0.0,0.0,0.0,0.0,0.0,0.0,0.0,0.0,0.0,0.0,0.0,0.0,0.0,0.0,0.0,0.0,0.0,0.0,0.0,0.0,0.0,0.0,0.0,0.0,0.0,0.0,0.0,0.0,0.0,0.0,0.0,0.0,0.0,0.0,0.0,0.0,0.0,0.0,0.0,0.0,0.0,0.0,0.0,0.0,0.0,0.0,-3.2145,-3.2412,-3.2047,-3.1457,0.0,0.0,0.0,0.0,0.0,0.0,0.0,0.0,0.0,0.0,0.0,0.0,0.0,0.0,0.0,0.0,0.0,0.0,0.0,0.0,0.0,0.0,0.0,0.0,0.0,0.0,0.0,0.0,0.0,0.0,0.0,0.0,0.0,0.0,0.0,0.0,0.0,0.0,0.0,0.0,0.0,0.0,0.0,0.0,0.0,0.0,0.0,0.0,0.0,0.0,0.0,0.0,0.0,0.0,0.0,0.0,0.0,0.0,0.0,0.0,0.0,0.0,0.0,0.0,0.0,0.0,0.0,0.0,0.0,0.0,0.0,0.0,0.0,0.0,0.0,0.0,0.0,0.0,0.0,0.0,0.0,0.0,0.0,0.0,0.0,0.0,0.0,0.0,0.0,0.0,0.0,0.0,0.0,0.0,0.0,0.0,0.0,0.0,0.0,0.0,0.0,0.0,0.0,0.0,0.0,0.0,0.0,0.0,0.0,0.0,-3.1935,-3.2244,-3.237,-3.1977,-3.1359,-3.0526,0.0,0.0,0.0,0.0,0.0,0.0,0.0,0.0,0.0,0.0,0.0,0.0,0.0,0.0,0.0,0.0,0.0,0.0,0.0,0.0,0.0,0.0,0.0,0.0,0.0,0.0,0.0,0.0,0.0,0.0,0.0,0.0,0.0,0.0,0.0,0.0,0.0,0.0,0.0,0.0,0.0,0.0,0.0,0.0,0.0,0.0,0.0,0.0,0.0,0.0,0.0,0.0,0.0,0.0,0.0,0.0,0.0,0.0,0.0,0.0,0.0,0.0,0.0,0.0,0.0,0.0,0.0,0.0,0.0,0.0,0.0,0.0,0.0,0.0,0.0,0.0,0.0,0.0,0.0,0.0,0.0,0.0,0.0,0.0,0.0,0.0,0.0,0.0,0.0,0.0,0.0,0.0,0.0,0.0,0.0,0.0,0.0,0.0,0.0,0.0,0.0,0.0,0.0,0.0,0.0,0.0,0.0,0.0,-3.1443,-3.1499,-3.1808,-3.2384,-3.2384,-3.178,0.0,0.0,0.0,0.0,0.0,0.0,0.0,0.0,0.0,0.0,0.0,0.0,0.0,0.0,0.0,0.0,0.0,0.0,0.0,0.0,0.0,0.0,0.0,0.0,0.0,0.0,0.0,0.0,0.0,0.0,0.0,0.0,0.0,0.0,0.0,0.0,0.0,0.0,0.0,0.0,0.0,0.0,0.0,0.0,0.0,0.0,0.0,0.0,0.0,0.0,0.0,0.0,0.0,0.0,0.0,0.0,0.0,0.0,0.0,0.0,0.0,0.0,0.0,0.0,0.0,0.0,0.0,0.0,0.0,0.0,0.0,0.0,0.0,0.0,0.0,0.0,0.0,0.0,0.0,0.0,0.0,0.0,0.0,0.0,0.0,0.0,0.0,0.0,0.0,0.0,0.0,0.0,0.0,0.0,0.0,0.0,0.0,0.0,0.0,0.0,0.0,0.0,0.0,0.0,0.0,0.0,0.0,0.0,0.0,-3.0291,-3.0656,-3.1373,-3.2342,-3.1626,-3.0947,0.0,0.0,0.0,0.0,0.0,0.0,0.0,0.0,0.0,0.0,0.0,0.0,0.0,0.0,0.0,0.0,0.0,0.0,0.0,0.0,0.0,0.0,0.0,0.0,0.0,0.0,0.0,0.0,0.0,0.0,0.0,0.0,0.0,0.0,0.0,0.0,0.0,0.0,0.0,0.0,0.0,0.0,0.0,0.0,0.0,0.0,0.0,0.0,0.0,0.0,0.0,0.0,0.0,0.0,0.0,0.0,0.0,0.0,0.0,0.0,0.0,0.0,0.0,0.0,0.0,0.0,0.0,0.0,0.0,0.0,0.0,0.0,0.0,0.0,0.0,0.0,0.0,0.0,0.0,0.0,0.0,0.0,0.0,0.0,0.0,0.0,0.0,0.0,0.0,0.0,0.0,0.0,0.0,0.0,0.0,0.0,0.0,0.0,0.0,0.0,0.0,0.0,0.0,0.0,0.0,0.0,0.0,0.0,0.0,-3.0221,0.0,-3.1443,-3.2033,-3.1078,-3.0413,0.0,0.0,0.0,0.0,0.0,0.0,0.0,0.0,0.0,0.0,0.0,0.0,0.0,0.0,0.0,0.0,0.0,0.0,0.0,0.0,0.0,0.0,0.0,0.0,0.0,0.0,0.0,0.0,0.0,0.0,0.0,0.0,0.0,0.0,0.0,0.0,0.0,0.0,0.0,0.0,0.0,0.0,0.0,0.0,0.0,0.0,0.0,0.0,0.0,0.0,0.0,0.0,0.0,0.0,0.0,0.0,0.0,0.0,0.0,0.0,0.0,0.0,0.0,0.0,0.0,0.0,0.0,0.0,0.0,0.0,0.0,0.0,0.0,0.0,0.0,0.0,0.0,0.0,0.0,0.0,0.0,0.0,0.0,0.0,0.0,0.0,0.0,0.0,0.0,0.0,0.0,0.0,0.0,0.0,0.0,0.0,0.0,0.0,0.0,0.0,0.0,0.0,0.0,0.0,0.0,0.0,0.0,0.0,-3.0235,-3.1429,-3.2019,-3.2047,-3.1527,-3.0881,-3.0217,0.0,0.0,0.0,0.0,0.0,0.0,0.0,0.0,0.0,0.0,0.0,0.0,0.0,0.0,0.0,0.0,0.0,0.0,0.0,0.0,0.0,0.0,0.0,0.0,0.0,0.0,0.0,0.0,0.0,0.0,0.0,0.0,0.0,0.0,0.0,0.0,0.0,0.0,0.0,0.0,0.0,0.0,0.0,0.0,0.0,0.0,0.0,0.0,0.0,0.0,0.0,0.0,0.0,0.0,0.0,0.0,0.0,0.0,0.0,0.0,0.0,0.0,0.0,0.0,0.0,0.0,0.0,0.0,0.0,0.0,0.0,0.0,0.0,0.0,0.0,0.0,0.0,0.0,0.0,0.0,0.0,0.0,0.0,0.0,0.0,0.0,0.0,0.0,0.0,0.0,0.0,0.0,0.0,0.0,0.0,0.0,0.0,0.0,0.0,0.0,0.0,0.0,0.0,0.0,0.0,0.0,0.0,0.0,0.0,-3.1471,-3.1668,-3.1878,-3.2075,-3.1045,-3.0399,0.0,0.0,0.0,0.0,0.0,0.0,0.0,0.0,0.0,0.0,0.0,0.0,0.0,0.0,0.0,0.0,0.0,0.0,0.0,0.0,0.0,0.0,0.0,0.0,0.0,0.0,0.0,0.0,0.0,0.0,0.0,0.0,0.0,0.0,0.0,0.0,0.0,0.0,0.0,0.0,0.0,0.0,0.0,0.0,0.0,0.0,0.0,0.0,0.0,0.0,0.0,0.0,0.0,0.0,0.0,0.0,0.0,0.0,0.0,0.0,0.0,0.0,0.0,0.0,0.0,0.0,0.0,0.0,0.0,0.0,0.0,0.0,0.0,0.0,0.0,0.0,0.0,0.0,0.0,0.0,0.0,0.0,0.0,0.0,0.0,0.0,0.0,0.0,0.0,0.0,0.0,0.0,0.0,0.0,0.0,0.0,0.0,0.0,0.0,0.0,0.0,0.0,0.0,0.0,0.0,0.0,0.0,0.0,0.0,-3.1485,-3.1485,-3.1668,-3.2061,-3.0839,-3.0341,-3.0711,0.0,0.0,0.0,0.0,0.0,0.0,0.0,0.0,0.0,0.0,0.0,0.0,0.0,0.0,0.0,0.0,0.0,0.0,0.0,0.0,0.0,0.0,0.0,0.0,0.0,0.0,0.0,0.0,0.0,0.0,0.0,0.0,0.0,0.0,0.0,0.0,0.0,0.0,0.0,0.0,0.0,0.0,0.0,0.0,0.0,0.0,0.0,0.0,0.0,0.0,0.0,0.0,0.0,0.0,0.0,0.0,0.0,0.0,0.0,0.0,0.0,0.0,0.0,0.0,0.0,0.0,0.0,0.0,0.0,0.0,0.0,0.0,0.0,0.0,0.0,0.0,0.0,0.0,0.0,0.0,0.0,0.0,0.0,0.0,0.0,0.0,0.0,0.0,0.0,0.0,0.0,0.0,0.0,0.0,0.0,0.0,0.0,0.0,0.0,0.0,0.0,0.0,0.0,0.0,0.0,0.0,0.0,0.0,-3.1485,-3.1457,-3.1443,-3.1499,-3.0351,-3.0162,0.0,0.0,0.0,0.0,0.0,0.0,0.0,0.0,0.0,0.0,0.0,0.0,0.0,0.0,0.0,0.0,0.0,0.0,0.0,0.0,0.0,0.0,0.0,0.0,0.0,0.0,0.0,0.0,0.0,0.0,0.0,0.0,0.0,0.0,0.0,0.0,0.0,0.0,0.0,0.0,0.0,0.0,0.0,0.0,0.0,0.0,0.0,0.0,0.0,0.0,0.0,0.0,0.0,0.0,0.0,0.0,0.0,0.0,0.0,0.0,0.0,0.0,0.0,0.0,0.0,0.0,0.0,0.0,0.0,0.0,0.0,0.0,0.0,0.0,0.0,0.0,0.0,0.0,0.0,0.0,0.0,0.0,0.0,0.0,0.0,0.0,0.0,0.0,0.0,0.0,0.0,0.0,0.0,0.0,0.0,0.0,0.0,0.0,0.0,0.0,0.0,0.0,0.0,0.0,0.0,0.0,0.0,0.0,0.0,-3.1457,-3.1021,-3.1007,-3.1476,-3.1006,-3.0745,0.0,0.0,0.0,0.0,0.0,0.0,0.0,0.0,0.0,0.0,0.0,0.0,0.0,0.0,0.0,0.0,0.0,0.0,0.0,0.0,0.0,0.0,0.0,0.0,0.0,0.0,0.0,0.0,0.0,0.0,0.0,0.0,0.0,0.0,0.0,0.0,0.0,0.0,0.0,0.0,0.0,0.0,0.0,0.0,0.0,0.0,0.0,0.0,0.0,0.0,0.0,0.0,0.0,0.0,0.0,0.0,0.0,0.0,0.0,0.0,0.0,0.0,0.0,0.0,0.0,0.0,0.0,0.0,0.0,0.0,0.0,0.0,0.0,0.0,0.0,0.0,0.0,0.0,0.0,0.0,0.0,0.0,0.0,0.0,0.0,0.0,0.0,0.0,0.0,0.0,0.0,0.0,0.0,0.0,0.0,0.0,0.0,0.0,0.0,0.0,0.0,0.0,0.0,0.0,0.0,0.0,0.0,0.0,-3.1758,-3.2203,-3.1272,-3.1006,-3.1407,-3.1084,-3.114,0.0,0.0,0.0,0.0,0.0,0.0,0.0,0.0,0.0,0.0,0.0,0.0,0.0,0.0,0.0,0.0,0.0,0.0,0.0,0.0,0.0,0.0,0.0,0.0,0.0,0.0,0.0,0.0,0.0,0.0,0.0,0.0,0.0,0.0,0.0,0.0,0.0,0.0,0.0,0.0,0.0,0.0,0.0,0.0,0.0,0.0,0.0,0.0,0.0,0.0,0.0,0.0,0.0,0.0,0.0,0.0,0.0,0.0,0.0,0.0,0.0,0.0,0.0,0.0,0.0,0.0,0.0,0.0,0.0,0.0,0.0,0.0,0.0,0.0,0.0,0.0,0.0,0.0,0.0,0.0,0.0,0.0,0.0,0.0,0.0,0.0,0.0,0.0,0.0,0.0,0.0,0.0,0.0,0.0,0.0,0.0,0.0,0.0,0.0,0.0,0.0,0.0,0.0,0.0,0.0,0.0,0.0,0.0,-3.2952,-3.3248,-3.2054,-3.1452,-3.1442,-3.0952,-3.134,0.0,0.0,0.0,0.0,0.0,0.0,0.0,0.0,0.0,0.0,0.0,0.0,0.0,0.0,0.0,0.0,0.0,0.0,0.0,0.0,0.0,0.0,0.0,0.0,0.0,0.0,0.0,0.0,0.0,0.0,0.0,0.0,0.0,0.0,0.0,0.0,0.0,0.0,0.0,0.0,0.0,0.0,0.0,0.0,0.0,0.0,0.0,0.0,0.0,0.0,0.0,0.0,0.0,0.0,0.0,0.0,0.0,0.0,0.0,0.0,0.0,0.0,0.0,0.0,0.0,0.0,0.0,0.0,0.0,0.0,0.0,0.0,0.0,0.0,0.0,0.0,0.0,0.0,0.0,0.0,0.0,0.0,0.0,0.0,0.0,0.0,0.0,0.0,0.0,0.0,0.0,0.0,0.0,0.0,0.0,0.0,0.0,0.0,0.0,0.0,0.0,0.0,0.0,0.0,0.0,0.0,0.0,0.0,-3.2464,-3.3709,-3.3166,-3.2788,-3.2629,-3.2121,-3.1789,0.0,0.0,0.0,0.0,0.0,0.0,0.0,0.0,0.0,0.0,0.0,0.0,0.0,0.0,0.0,0.0,0.0,0.0,0.0,0.0,0.0,0.0,0.0,0.0,0.0,0.0,0.0,0.0,0.0,0.0,0.0,0.0,0.0,0.0,0.0,0.0,0.0,0.0,0.0,0.0,0.0,0.0,0.0,0.0,0.0,0.0,0.0,0.0,-2.9637,0.0,0.0,0.0,0.0,0.0,0.0,0.0,0.0,0.0,0.0,0.0,0.0,0.0,0.0,0.0,0.0,0.0,0.0,0.0,0.0,0.0,0.0,0.0,0.0,0.0,0.0,0.0,0.0,0.0,0.0,0.0,0.0,0.0,0.0,0.0,0.0,0.0,0.0,0.0,0.0,0.0,0.0,0.0,0.0,0.0,0.0,0.0,0.0,0.0,0.0,0.0,0.0,0.0,0.0,0.0,0.0,0.0,0.0,0.0,-3.3347,-3.4239,-3.3765,-3.3454,-3.3362,-3.3143,-3.2837,0.0,0.0,0.0,0.0,0.0,0.0,0.0,0.0,0.0,0.0,0.0,0.0,0.0,0.0,0.0,0.0,0.0,0.0,0.0,0.0,0.0,0.0,0.0,0.0,0.0,0.0,0.0,0.0,0.0,0.0,0.0,0.0,0.0,0.0,0.0,0.0,0.0,0.0,0.0,0.0,0.0,0.0,0.0,0.0,0.0,0.0,0.0,0.0,0.0,0.0,0.0,0.0,0.0,0.0,0.0,0.0,0.0,0.0,0.0,0.0,0.0,0.0,0.0,0.0,0.0,0.0,0.0,0.0,0.0,0.0,0.0,0.0,0.0,0.0,0.0,0.0,0.0,0.0,0.0,0.0,0.0,0.0,0.0,0.0,0.0,0.0,0.0,0.0,0.0,0.0,0.0,0.0,0.0,0.0,0.0,0.0,0.0,0.0,0.0,0.0,0.0,0.0,0.0,0.0,0.0,0.0,0.0,-3.3846,-3.4546,-3.4485,-3.4166,-3.394,-3.3743,-3.4007,-3.4065,-3.3895,0.0,0.0,0.0,0.0,0.0,0.0,0.0,0.0,0.0,0.0,0.0,0.0,0.0,0.0,0.0,0.0,0.0,0.0,0.0,0.0,0.0,0.0,0.0,0.0,0.0,0.0,0.0,0.0,0.0,0.0,0.0,0.0,0.0,0.0,0.0,0.0,0.0,0.0,-2.6749,-2.8995,0.0,0.0,0.0,0.0,0.0,0.0,0.0,0.0,-2.9113,0.0,0.0,0.0,0.0,0.0,0.0,0.0,0.0,0.0,0.0,0.0,0.0,0.0,0.0,0.0,0.0,0.0,0.0,0.0,0.0,0.0,0.0,0.0,0.0,0.0,0.0,0.0,0.0,0.0,0.0,0.0,0.0,0.0,0.0,0.0,0.0,0.0,0.0,0.0,0.0,0.0,0.0,0.0,0.0,0.0,0.0,0.0,0.0,0.0,0.0,0.0,0.0,0.0,0.0,0.0,0.0,-3.1891,-3.3825,-3.4446,-3.3669,-3.4789,-3.4758,-3.3591,-3.4635,-3.4972,-3.4373,0.0,0.0,0.0,0.0,0.0,0.0,0.0,0.0,0.0,0.0,0.0,0.0,0.0,0.0,0.0,0.0,0.0,0.0,0.0,0.0,0.0,0.0,0.0,0.0,0.0,0.0,0.0,0.0,0.0,0.0,0.0,0.0,0.0,0.0,0.0,0.0,0.0,0.0,0.0,-2.8466,-2.981,0.0,0.0,0.0,0.0,0.0,0.0,0.0,0.0,-3.0629,0.0,0.0,0.0,0.0,0.0,0.0,0.0,0.0,0.0,0.0,0.0,0.0,0.0,0.0,0.0,0.0,0.0,0.0,0.0,0.0,0.0,0.0,0.0,0.0,0.0,0.0,0.0,0.0,0.0,0.0,0.0,0.0,0.0,0.0,0.0,0.0,0.0,0.0,0.0,0.0,0.0,0.0,0.0,0.0,0.0,0.0,0.0,0.0,0.0,0.0,0.0,0.0,0.0,0.0,0.0,-3.2172,-3.3426,-3.3864,-3.3431,-3.4117,-3.4147,-3.346,-3.4429,-3.479,0.0,0.0,0.0,0.0,0.0,0.0,0.0,0.0,0.0,0.0,0.0,0.0,0.0,0.0,0.0,0.0,0.0,0.0,0.0,0.0,0.0,0.0,0.0,0.0,0.0,0.0,0.0,0.0,0.0,0.0,0.0,0.0,0.0,0.0,0.0,0.0,0.0,0.0,0.0,0.0,-2.9151,-3.0004,-3.1769,0.0,0.0,0.0,0.0,0.0,0.0,-3.092,-3.092,0.0,0.0,0.0,0.0,0.0,0.0,0.0,0.0,0.0,0.0,0.0,0.0,0.0,0.0,0.0,0.0,0.0,0.0,0.0,0.0,0.0,0.0,0.0,0.0,0.0,0.0,0.0,0.0,0.0,0.0,0.0,0.0,0.0,0.0,0.0,0.0,0.0,0.0,0.0,0.0,0.0,0.0,0.0,0.0,0.0,0.0,0.0,0.0,0.0,0.0,0.0,0.0,0.0,0.0,0.0,-3.2444,-3.3254,-3.3576,-3.3314,-3.3493,-3.3522,-3.3398,-3.4174,-3.4574,0.0,0.0,0.0,0.0,0.0,0.0,0.0,0.0,0.0,0.0,0.0,0.0,0.0,0.0,0.0,0.0,0.0,0.0,0.0,0.0,0.0,0.0,0.0,0.0,0.0,0.0,0.0,0.0,0.0,0.0,0.0,0.0,0.0,0.0,0.0,0.0,0.0,0.0,0.0,0.0,0.0,-3.0577,-3.1817,-3.1859,0.0,0.0,0.0,0.0,-3.1292,-3.1341,0.0,0.0,0.0,0.0,0.0,0.0,0.0,0.0,0.0,0.0,0.0,0.0,0.0,0.0,0.0,0.0,0.0,0.0,0.0,0.0,0.0,0.0,0.0,0.0,0.0,0.0,0.0,0.0,0.0,0.0,0.0,0.0,0.0,0.0,0.0,0.0,0.0,0.0,0.0,0.0,0.0,0.0,0.0,0.0,0.0,0.0,0.0,0.0,0.0,0.0,0.0,0.0,0.0,0.0,0.0,0.0,-3.2475,-3.3945,-3.4151,-3.3061,-3.3775,-3.39,-3.336,-3.4307,-3.4992,0.0,0.0,0.0,0.0,0.0,0.0,0.0,0.0,0.0,0.0,0.0,0.0,0.0,0.0,0.0,0.0,0.0,0.0,0.0,0.0,0.0,0.0,0.0,0.0,0.0,0.0,0.0,0.0,0.0,0.0,0.0,0.0,0.0,0.0,0.0,0.0,0.0,0.0,0.0,0.0,0.0,-3.1082,-3.1875,-3.1438,-3.1681,0.0,0.0,-3.1357,-3.2627,-3.2838,0.0,0.0,0.0,0.0,0.0,0.0,0.0,0.0,0.0,0.0,0.0,0.0,0.0,0.0,0.0,0.0,0.0,0.0,0.0,0.0,0.0,0.0,0.0,0.0,0.0,0.0,0.0,0.0,0.0,0.0,0.0,0.0,0.0,0.0,0.0,0.0,0.0,0.0,0.0,0.0,0.0,0.0,0.0,0.0,0.0,0.0,0.0,0.0,0.0,0.0,0.0,0.0,0.0,0.0,0.0,-3.297,-3.2707,-3.3525,-3.3623,-3.2955,-3.3448,-3.3545,-3.3085,-3.4431,-3.5266,0.0,0.0,0.0,0.0,0.0,0.0,0.0,0.0,0.0,0.0,0.0,0.0,0.0,0.0,0.0,0.0,0.0,0.0,0.0,0.0,0.0,0.0,0.0,0.0,0.0,0.0,0.0,0.0,0.0,0.0,0.0,0.0,0.0,0.0,0.0,0.0,0.0,0.0,0.0,0.0,0.0,0.0,-3.1898,-3.2093,0.0,0.0,0.0,-3.2384,-3.3008,0.0,0.0,0.0,0.0,0.0,0.0,0.0,0.0,0.0,0.0,0.0,0.0,0.0,0.0,0.0,0.0,0.0,0.0,0.0,0.0,0.0,0.0,0.0,0.0,0.0,0.0,0.0,0.0,0.0,0.0,0.0,0.0,0.0,0.0,0.0,0.0,0.0,0.0,0.0,0.0,0.0,0.0,0.0,0.0,0.0,0.0,0.0,0.0,0.0,0.0,0.0,0.0,0.0,0.0,0.0,0.0,0.0,-3.3022,-3.3201,-3.3282,-3.3282,-3.3572,-3.372,-3.3657,-3.4999,0.0,0.0,0.0,0.0,0.0,0.0,0.0,0.0,0.0,0.0,0.0,0.0,0.0,0.0,0.0,0.0,0.0,0.0,0.0,0.0,0.0,0.0,0.0,0.0,0.0,0.0,0.0,-2.6102,0.0,0.0,0.0,0.0,0.0,0.0,0.0,0.0,0.0,0.0,0.0,0.0,0.0,0.0,-3.1438,-3.2174,-3.2595,-3.2935,0.0,0.0,-3.3145,-3.3323,-3.338,-3.3356,0.0,0.0,0.0,0.0,0.0,0.0,0.0,0.0,0.0,0.0,0.0,0.0,0.0,0.0,0.0,0.0,0.0,0.0,0.0,0.0,0.0,0.0,0.0,0.0,0.0,0.0,0.0,0.0,0.0,0.0,0.0,0.0,0.0,0.0,0.0,0.0,0.0,0.0,0.0,0.0,0.0,0.0,0.0,0.0,0.0,0.0,0.0,0.0,0.0,0.0,0.0,0.0,0.0,0.0,0.0,-3.3347,-3.3313,-3.3609,-3.4209,-3.4775,-3.5245,-3.5607,-3.6326,-3.6596,0.0,0.0,0.0,0.0,0.0,0.0,0.0,0.0,0.0,0.0,0.0,0.0,0.0,0.0,0.0,0.0,0.0,0.0,0.0,0.0,0.0,0.0,0.0,0.0,0.0,0.0,0.0,0.0,0.0,0.0,0.0,0.0,0.0,0.0,0.0,0.0,0.0,0.0,0.0,0.0,0.0,-3.219,-3.2919,-3.2481,-3.2546,0.0,0.0,-3.3291,-3.3939,-3.402,-3.402,-3.4036,0.0,0.0,0.0,0.0,0.0,0.0,0.0,0.0,0.0,0.0,0.0,0.0,0.0,0.0,0.0,0.0,0.0,0.0,0.0,0.0,0.0,0.0,0.0,0.0,0.0,0.0,0.0,0.0,0.0,0.0,0.0,0.0,0.0,0.0,0.0,0.0,0.0,0.0,0.0,0.0,0.0,0.0,0.0,0.0,0.0,0.0,0.0,0.0,0.0,0.0,0.0,0.0,0.0,-3.3711,-3.4861,-3.4435,-3.4553,-3.5206,-3.5648,-3.5782,-3.5546,-3.6533,-3.6789,0.0,0.0,0.0,0.0,0.0,0.0,0.0,0.0,0.0,0.0,0.0,0.0,0.0,0.0,0.0,0.0,0.0,0.0,0.0,0.0,0.0,0.0,0.0,0.0,0.0,0.0,0.0,0.0,-2.7948,-2.8725,-2.9577,0.0,0.0,0.0,0.0,0.0,0.0,0.0,0.0,0.0,0.0,-3.2773,-3.3048,-3.321,0.0,0.0,-3.3874,-3.3793,-3.4052,-3.4101,-3.4101,-3.4101,-3.4101,0.0,0.0,0.0,0.0,0.0,0.0,0.0,0.0,0.0,0.0,0.0,0.0,0.0,0.0,0.0,0.0,0.0,0.0,0.0,0.0,0.0,0.0,0.0,0.0,0.0,0.0,0.0,0.0,0.0,0.0,0.0,0.0,0.0,0.0,0.0,0.0,0.0,0.0,0.0,0.0,0.0,0.0,0.0,0.0,0.0,0.0,0.0,0.0,0.0,0.0,0.0,0.0,-3.4695,-3.5951,-3.5395,-3.5433,-3.6121,-3.6459,-3.6463,-3.6193,-3.701,-3.708,0.0,0.0,0.0,0.0,0.0,0.0,0.0,0.0,0.0,0.0,0.0,0.0,0.0,0.0,0.0,0.0,0.0,0.0,0.0,0.0,0.0,0.0,0.0,0.0,0.0,0.0,0.0,0.0,-2.8697,-2.968,-3.1066,0.0,0.0,0.0,0.0,0.0,0.0,0.0,0.0,0.0,0.0,-3.3178,-3.3356,-3.3793,-3.4101,-3.4101,-3.4101,-3.4101,-3.4101,-3.4101,-3.4101,-3.4101,0.0,0.0,0.0,0.0,0.0,0.0,0.0,0.0,0.0,0.0,0.0,0.0,0.0,0.0,0.0,0.0,0.0,0.0,0.0,0.0,0.0,0.0,0.0,0.0,0.0,0.0,0.0,0.0,0.0,0.0,-3.2314,0.0,0.0,0.0,0.0,0.0,0.0,0.0,0.0,0.0,0.0,0.0,0.0,0.0,0.0,0.0,0.0,0.0,0.0,0.0,0.0,0.0,0.0,-3.5951,-3.6384,-3.6015,-3.6137,-3.6858,-3.7125,-3.7431,-3.7774,-3.7867,-3.7608,-3.6967,0.0,0.0,0.0,0.0,0.0,0.0,0.0,0.0,0.0,0.0,0.0,0.0,0.0,0.0,0.0,0.0,0.0,0.0,0.0,0.0,0.0,0.0,0.0,0.0,0.0,0.0,-2.8892,-2.9443,-3.0431,0.0,0.0,0.0,0.0,0.0,0.0,0.0,0.0,0.0,0.0,-3.308,-3.3364,-3.4003,-3.4101,-3.4133,-3.4117,-3.4117,-3.4117,-3.4101,-3.4117,-3.4101,0.0,0.0,0.0,0.0,0.0,0.0,0.0,0.0,0.0,0.0,0.0,0.0,0.0,0.0,0.0,0.0,0.0,0.0,0.0,0.0,0.0,0.0,0.0,0.0,0.0,0.0,0.0,-3.3416,-3.3245,0.0,0.0,0.0,0.0,0.0,0.0,0.0,0.0,0.0,0.0,0.0,-3.461,-3.4274,0.0,0.0,0.0,0.0,0.0,0.0,0.0,0.0,0.0,0.0,0.0,0.0,-3.6449,-3.7612,-3.6934,-3.6974,-3.7879,-3.7995,-3.7878,-3.7578,-3.7988,-3.7809,-3.6898,0.0,0.0,0.0,0.0,0.0,0.0,0.0,0.0,0.0,0.0,0.0,0.0,0.0,0.0,0.0,0.0,0.0,0.0,0.0,0.0,0.0,0.0,0.0,0.0,0.0,-3.0451,0.0,0.0,0.0,0.0,0.0,0.0,0.0,0.0,0.0,0.0,0.0,-3.3485,-3.3728,-3.4619,-3.5121,-3.4862,-3.4839,-3.4813,0.0,0.0,0.0,0.0,0.0,0.0,0.0,0.0,0.0,0.0,0.0,0.0,0.0,0.0,-3.4109,-3.4226,-3.4761,-3.5136,-3.4986,0.0,0.0,0.0,0.0,0.0,0.0,0.0,0.0,0.0,0.0,0.0,0.0,0.0,0.0,-3.3954,0.0,-3.3925,0.0,0.0,0.0,0.0,0.0,0.0,0.0,0.0,-3.3316,-3.3468,-3.4322,-3.3997,-3.4085,0.0,-3.5008,-3.572,0.0,0.0,0.0,0.0,0.0,0.0,0.0,0.0,-3.7214,-3.8141,-3.7713,-3.7725,-3.8375,-3.8391,-3.8148,-3.7594,-3.7801,-3.7636,-3.7026,-3.6205,-3.576,0.0,0.0,0.0,0.0,0.0,0.0,0.0,0.0,0.0,0.0,0.0,0.0,0.0,0.0,0.0,0.0,0.0,0.0,0.0,0.0,0.0,0.0,0.0,-3.139,0.0,0.0,0.0,0.0,0.0,0.0,0.0,0.0,0.0,-3.4149,-3.4327,-3.4489,-3.4473,-3.5315,-3.5817,-3.5606,0.0,0.0,0.0,0.0,0.0,0.0,0.0,-3.5033,-3.4554,-3.4262,-3.4101,-3.4101,-3.4311,-3.4392,-3.4149,0.0,0.0,-3.4201,-3.4634,-3.4915,-3.4735,-3.4409,-3.4185,-3.4304,-3.3715,-3.316,0.0,0.0,0.0,0.0,0.0,0.0,0.0,0.0,-3.3368,-3.3691,0.0,-3.3578,0.0,0.0,0.0,0.0,0.0,-3.2933,0.0,0.0,-3.2948,-3.2764,-3.3297,-3.3312,-3.3577,-3.4016,-3.3612,-3.4303,-3.607,-3.6952,0.0,0.0,0.0,0.0,0.0,0.0,-3.8205,-3.7943,-3.8217,-3.8391,-3.8391,-3.8391,-3.8234,-3.787,-3.73,-3.7089,-3.7373,-3.7074,-3.6535,-3.5716,-3.6314,0.0,0.0,0.0,0.0,0.0,0.0,0.0,0.0,0.0,0.0,0.0,0.0,0.0,0.0,0.0,0.0,0.0,0.0,0.0,0.0,-3.2465,0.0,0.0,0.0,0.0,0.0,0.0,0.0,0.0,0.0,0.0,-3.4392,-3.4829,-3.5234,-3.5244,0.0,0.0,0.0,0.0,-3.5487,-3.6141,-3.627,-3.6238,-3.6189,-3.5639,-3.5195,-3.5146,0.0,0.0,-3.4101,-3.4667,-3.492,-3.423,-3.4101,-3.4101,-3.4101,-3.4308,-3.4284,-3.3669,-3.3726,-3.3568,-3.295,-3.2934,-3.2829,-3.4759,0.0,0.0,0.0,0.0,-3.4171,-3.4299,-3.3922,-3.3936,-3.4034,-3.4175,-3.3557,0.0,0.0,0.0,0.0,0.0,0.0,-3.3213,-3.3507,-3.3199,-3.3108,-3.3276,-3.3276,-3.3396,-3.3542,-3.3756,-3.4045,-3.4419,-3.604,-3.7011,-3.7401,0.0,0.0,0.0,0.0,-3.7873,-3.8234,-3.8363,-3.8391,-3.8391,-3.8391,-3.8234,-3.7915,-3.6861,-3.6538,-3.709,-3.6662,-3.6477,-3.6597,-3.5948,0.0,0.0,0.0,0.0,0.0,0.0,0.0,0.0,0.0,0.0,0.0,0.0,0.0,0.0,0.0,0.0,0.0,0.0,0.0,-3.3186,-3.2902,-3.3048,0.0,0.0,0.0,0.0,0.0,0.0,0.0,0.0,0.0,-3.5671,-3.627,-3.6529,0.0,0.0,-3.7177,-3.6416,-3.6125,-3.5882,-3.5584,-3.5535,0.0,0.0,-3.4991,-3.5033,-3.4489,-3.4246,-3.4101,-3.4101,-3.4262,-3.4327,-3.4133,-3.4101,-3.4101,-3.4101,-3.4151,-3.4169,-3.4072,-3.4186,-3.41,-3.3502,-3.3429,-3.3348,-3.6712,-3.5119,-3.4974,-3.4845,-3.4809,-3.5236,-3.5399,-3.5307,-3.5054,-3.4955,-3.4876,-3.402,-3.3655,-3.3641,-3.3389,0.0,0.0,0.0,-3.3276,-3.3276,-3.3276,-3.3276,-3.3276,-3.3276,-3.3276,-3.3312,-3.3825,-3.3997,-3.3819,-3.5434,-3.6477,-3.692,0.0,0.0,-3.7551,-3.7698,-3.7931,-3.8205,-3.8335,-3.8391,-3.8391,-3.8262,-3.8103,-3.787,-3.6723,-3.6492,-3.73,-3.6476,-3.6258,-3.6815,-3.6304,-3.6157,0.0,0.0,0.0,0.0,0.0,0.0,0.0,0.0,0.0,0.0,0.0,-3.3566,0.0,0.0,0.0,0.0,-3.3696,-3.4052,-3.3947,-3.3922,0.0,0.0,0.0,0.0,0.0,0.0,0.0,-3.6443,-3.6206,-3.6206,-3.6659,-3.7036,-3.7053,-3.64,-3.6772,-3.7015,-3.674,0.0,-3.6335,-3.6432,-3.6206,-3.5882,-3.5445,-3.5266,-3.4952,-3.423,-3.4101,-3.4101,-3.4101,-3.4101,-3.4101,-3.4101,-3.4101,-3.4101,-3.4101,-3.4101,-3.4151,-3.4275,-3.4399,-3.4357,-3.4019,-3.4008,-3.3947,-3.8777,-3.8088,-3.688,-3.661,-3.6852,-3.6342,-3.6455,-3.6936,-3.6413,-3.6202,-3.6159,-3.4933,-3.4371,-3.4231,-3.3683,0.0,-3.329,-3.3389,-3.348,-3.3431,-3.3389,-3.341,-3.3431,-3.3368,-3.3276,-3.3276,-3.3791,-3.4051,-3.4119,-3.5121,-3.5479,-3.5335,-3.7237,-3.7535,-3.6352,-3.7476,-3.8017,-3.7754,-3.8046,-3.8205,-3.8234,-3.7915,-3.7725,-3.7725,-3.6769,-3.6677,-3.7562,-3.6492,-3.6039,-3.6523,-3.7057,-3.6967,-3.6173,0.0,0.0,0.0,0.0,0.0,0.0,0.0,0.0,0.0,0.0,0.0,0.0,0.0,0.0,0.0,-3.3906,0.0,-3.5228,-3.5309,0.0,0.0,0.0,-3.6659,-3.7295,-3.7311,-3.7598,-3.8311,0.0,0.0,-3.736,-3.7328,-3.7053,-3.6465,-3.5849,-3.5898,-3.7117,-3.6761,-3.6837,-3.7873,-3.7614,-3.7166,-3.6772,-3.5833,-3.4839,-3.4214,-3.4101,-3.4101,-3.4101,-3.4101,-3.4101,-3.4101,-3.4101,-3.4101,-3.4101,-3.4101,-3.4109,-3.425,-3.4399,-3.4472,-3.4448,-3.4456,-3.4447,-4.1334,-4.0631,-3.9409,-3.7932,-3.6328,-3.6174,-3.6416,-3.7003,-3.6824,-3.7035,-3.7414,-3.6669,-3.5826,-3.4964,-3.4823,-3.4211,-3.3354,-3.4331,-3.4753,-3.4725,-3.4239,-3.4267,-3.4697,-3.3761,-3.3276,-3.3312,-3.3417,-3.3556,-3.375,-3.4491,-3.4591,-3.4147,-3.5629,-3.6307,-3.6119,-3.5882,-3.5993,-3.6538,-3.6446,-3.6615,-3.6995,-3.6461,-3.6306,-3.66,-3.643,-3.6102,-3.5674,-3.6523,-3.6662,-3.5976,-3.6631,-3.6934,-3.6779,-3.6614,0.0,0.0,0.0,0.0,0.0,0.0,0.0,0.0,0.0,-3.5477,-3.5315,0.0,-3.5542,0.0,-3.5687,-3.5849,-3.6011,-3.6044,0.0,0.0,-3.708,-3.7355,-3.8068,-3.7663,-3.7598,-3.8311,-3.7748,-3.7489,-3.8068,-3.7635,-3.7231,-3.7069,-3.7404,-3.7582,-3.736,-3.7166,-3.6972,-3.6886,-3.674,-3.6351,-3.5801,-3.4959,-3.4327,-3.4133,-3.4101,-3.4101,-3.4101,-3.4101,-3.4101,-3.4101,-3.4101,-3.4101,-3.4101,-3.4101,-3.4101,-3.4151,-3.425,-3.4349,-3.4349,-3.4423,-3.4513,-4.2781,-4.2289,-4.0533,-3.9015,-3.7707,-3.7158,-3.7271,-3.7861,-3.7861,-3.785,-3.7864,-3.7245,-3.6652,-3.6019,-3.6005,-3.5602,-3.5012,-3.5414,-3.5597,-3.5555,-3.4927,-3.4829,-3.5161,-3.4486,-3.414,-3.414,-3.4377,-3.4448,-3.4327,-3.4839,-3.4708,-3.391,-3.466,-3.5014,-3.5011,-3.5177,-3.558,-3.6089,-3.5901,-3.5885,-3.6056,-3.582,-3.585,-3.6164,-3.58,-3.5561,-3.5464,-3.577,-3.5914,-3.5943,-3.6477,-3.6906,-3.715,-3.7067,-3.7106,0.0,0.0,0.0,0.0,0.0,0.0,0.0,0.0,0.0,0.0,0.0,-3.6276,-3.6276,-3.6276,-3.6405,-3.6724,-3.6772,-3.7031,-3.7728,-3.7792,-3.7954,-3.8359,-3.8035,-3.7954,-3.8343,-3.776,-3.7469,-3.7857,-3.7566,-3.7295,-3.7295,-3.7938,-3.8132,-3.7485,-3.7295,-3.7263,-3.7226,-3.6967,-3.6367,-3.5373,-3.457,-3.4101,-3.4101,-3.4101,-3.4101,-3.4101,-3.4101,-3.4101,-3.4101,-3.4101,-3.4101,-3.4101,-3.4101,-3.4101,-3.4101,-3.4151,-3.4201,-3.4201,-3.4275,-3.4325,-4.3455,-4.316,-4.0955,-3.9971,-3.9802,-3.8552,-3.8299,-3.879,-3.8958,-3.8664,-3.8102,-3.74,-3.7063,-3.6978,-3.6978,-3.6894,-3.6764,-3.6399,-3.6216,-3.6188,-3.5597,-3.5344,-3.5428,-3.5259,-3.5189,-3.5226,-3.5688,-3.5652,-3.5212,-3.5565,-3.5227,-3.4247,-3.4155,-3.3931,-3.366,-3.4865,-3.5567,-3.5742,-3.5567,-3.5404,-3.5222,-3.5454,-3.5693,-3.5896,-3.5139,-3.5026,-3.5737,-3.4843,-3.4776,-3.5879,-3.6259,-3.6615,-3.7057,-3.7445,-3.7695,0.0,-3.7799,0.0,0.0,0.0,0.0,0.0,0.0,0.0,0.0,-3.6578,-3.6578,-3.6578,-3.6594,-3.6821,-3.7376,-3.7469,-3.7695,-3.8311,-3.8391,-3.8391,-3.8391,-3.8391,-3.8391,-3.8391,-3.7813,-3.7441,-3.7517,-3.7425,-3.7441,-3.7522,-3.8003,-3.8181,-3.763,-3.7473,-3.7684,-3.8327,-3.7776,-3.6805,-3.5639,-3.4748,-3.423,-3.4149,-3.4101,-3.4101,-3.4101,-3.4101,-3.4101,-3.4101,-3.4101,-3.4101,-3.4101,-3.4101,-3.4101,-3.4101,-3.4101,-3.4101,-3.4101,-3.4101,-3.4151,-4.3216,-4.2669,-4.1685,-4.0983,-4.0421,-3.9198,-3.8494,-3.8159,-3.9156,-3.955,-3.9339,-3.8229,-3.7456,-3.6993,-3.6978,-3.6483,-3.5597,-3.6416,-3.6849,-3.6782,-3.6216,-3.6202,-3.6595,-3.5667,-3.5189,-3.5189,-3.53,-3.53,-3.5189,-3.5269,-3.4935,-3.4239,-3.417,-3.3995,-3.3633,0.0,0.0,0.0,-3.3791,-3.3962,-3.4341,-3.4394,-3.4413,-3.4509,-3.4993,0.0,-3.3928,-3.4677,-3.4942,-3.4543,-3.5222,0.0,0.0,0.0,0.0,0.0,0.0,0.0,0.0,0.0,0.0,0.0,-3.8003,-3.7987,-3.8003,-3.7987,-3.8003,-3.8003,-3.8003,-3.8051,-3.8181,-3.8197,-3.8246,-3.8391,-3.8391,-3.8391,-3.8391,-3.8391,-3.8391,-3.8391,-3.8262,-3.8181,-3.8165,-3.8197,-3.8181,-3.8165,-3.8311,-3.8343,-3.8213,-3.8149,-3.823,-3.8343,-3.7792,-3.7048,-3.6222,-3.5445,-3.4725,-3.4295,-3.4101,-3.4101,-3.4101,-3.4101,-3.4101,-3.4101,-3.4101,-3.4101,-3.4101,-3.4101,-3.4101,-3.4101,-3.4101,-3.4101,-3.4101,-3.4101,-3.4101,-4.3315,0.0,-4.2345,-4.191,0.0,-4.0617,-3.969,-3.8875,-3.9507,-3.9774,-3.976,-3.9437,-3.8945,-3.8383,-3.8678,-3.8354,-3.7496,-3.7819,-3.7737,-3.74,-3.681,-3.6722,-3.6964,-3.6399,-3.6103,-3.6089,-3.6103,-3.6103,-3.6075,-3.578,-3.5484,-3.5138,-3.4843,-3.457,-3.4369,-3.3965,-3.3599,-3.329,-3.3276,-3.3452,-3.3701,-3.3701,-3.3825,-3.4085,0.0,0.0,0.0,0.0,0.0,0.0,0.0,0.0,0.0,0.0,0.0,-3.58,-3.6196,-3.6677,-3.7221,-3.7578,-3.7886,-3.8132,-3.829,-3.8391,-3.8391,-3.8391,-3.8391,-3.8391,-3.8391,-3.8391,-3.8391,-3.8391,-3.8391,-3.8391,-3.8391,-3.8391,-3.8391,-3.8391,-3.8391,-3.8391,-3.8391,-3.8391,-3.8391,-3.8391,-3.8391,-3.8391,-3.8391,-3.8391,-3.8391,-3.8391,-3.8391,-3.8375,-3.7776,-3.7069,-3.64,-3.5655,-3.4968,-3.4295,-3.4101,-3.4101,-3.4101,-3.4101,-3.4101,-3.4101,-3.4101,-3.4101,-3.4101,-3.4101,-3.4101,-3.4101,-3.4101,-3.3955,-3.3728,-3.3858,-3.4101,-4.3231,-4.3301,-4.2781,-4.264,-4.2697,-4.205,-4.1137,-4.0097,0.0,0.0,0.0,-4.0196,-4.0083,-3.9704,-4.0154,-4.0041,-3.9423,-3.8972,-3.8341,-3.7723,-3.7217,-3.6978,-3.6978,-3.6978,-3.6978,-3.6978,-3.6978,-3.6978,-3.6964,-3.6511,-3.6216,-3.6061,-3.5597,-3.5245,-3.5006,-3.4492,-3.3908,-3.3319,-3.3276,-3.3276,-3.3276,-3.3276,-3.3521,-3.3962,-3.3542,-3.3507,-3.3914,-3.3542,-3.3507,-3.3948,-3.4206,-3.4442,-3.4624,-3.4909,-3.5121,-3.5172,-3.527,-3.5642,-3.6337,-3.6676,-3.7145,-3.7725,-3.8148,-3.8391,-3.8391,-3.8391,-3.8391,-3.8391,-3.8391,-3.8391,-3.8391,-3.8391,-3.8391,-3.8391,-3.8391,-3.8391,-3.8391,-3.8391,-3.8391,-3.8391,-3.8391,-3.8391,-3.8391,-3.8391,-3.8391,-3.8391,-3.8391,-3.8391,-3.8391,-3.8391,-3.8391,-3.8343,-3.7922,-3.7279,-3.6594,-3.5898,-3.5121,-3.4489,-3.4214,-3.4101,-3.4101,-3.4101,-3.4101,-3.4101,-3.4101,-3.4101,-3.4101,-3.4101,-3.4052,-3.3955,-3.3922,-3.3728,-3.3129,-3.3323,-3.3712,-4.2205,-4.2697,-4.2612,-4.2893,-4.3315,-4.2711,-4.2022,-4.1235,-3.969,-3.9324,-3.976,-3.9352,-3.9127,-3.9043,-3.9127,-3.8818,-3.8159,-3.8074,-3.7695,0.0,-3.706,-3.6978,-3.6978,-3.6978,-3.6978,-3.6978,-3.6978,-3.6978,-3.6964,-3.6894,-3.6599,-3.6159,-3.6019,-3.5419,-3.4413,-3.4245,-3.3908,-3.3304,-3.3276,-3.3276,-3.3276,-3.3276,-3.3347,-3.3417,-3.3347,-3.3312,-3.3417,-3.3347,-3.3312,-3.3417,-3.3437,-3.3472,-3.3507,-3.375,-3.3977,-3.4274,-3.471,-3.5139,-3.5546,-3.5837,-3.6322,-3.7145,-3.796,-3.8391,-3.8391,-3.8391,-3.8391,-3.8391,-3.8391,-3.8391,-3.8391,-3.8391,-3.8391,-3.8391,-3.8391,-3.8391,-3.8391,-3.8391,-3.8391,-3.8391,-3.8391,-3.8391,-3.8391,-3.8391,-3.8391,-3.8391,-3.8391,-3.8391,-3.8391,-3.8391,-3.8391,-3.8391,-3.8327,-3.7954,-3.7209,-3.6594,-3.5817,-3.5163,-3.4489,-3.4101,-3.4101,-3.4101,-3.4101,-3.4101,-3.4101,-3.4101,-3.4101,-3.4101,-3.3906,-3.3518,-3.3404,-3.3113,-3.2481,-3.2449,-3.2627,-4.1783,-4.2135,-4.2795,-4.3231,-4.3469,-4.3188,-4.2907,-4.2528,-4.139,-4.0477,-3.9816,-3.9816,-3.9718,-3.9422,-3.9394,-3.9057,-3.8412,-3.806,-3.7569,-3.7007,-3.6978,-3.6978,-3.6978,-3.6978,-3.6978,-3.6978,-3.6978,-3.6978,-3.6978,-3.6978,-3.6838,-3.661,-3.661,-3.5953,-3.4815,-3.4745,-3.4267,-3.3319,-3.3276,-3.3276,-3.3276,-3.3276,-3.3276,-3.3276,-3.3276,-3.3276,-3.3276,-3.3276,-3.3276,-3.3276,-3.3276,-3.3276,-3.3276,-3.3396,-3.3521,-3.3667,-3.3908,-3.4235,-3.4662,-3.524,-3.5867,-3.6507,-3.6935,-3.7191,-3.7296,-3.7988,-3.8391,-3.8391,-3.8391,-3.8391,-3.8391,-3.8391,-3.8391,-3.8391,-3.8391,-3.8391,-3.8391,-3.8391,-3.8391,-3.8391,-3.8391,-3.8391,-3.8391,-3.8391,-3.8391,-3.8391,-3.8391,-3.8391,-3.8391,-3.8391,-3.8391,-3.8391,-3.8391,-3.8084,-3.7409,-3.6756,-3.606,-3.5325,-3.457,-3.4165,-3.4101,-3.4101,-3.4101,-3.4101,-3.4101,-3.4101,-3.4101,-3.4101,-3.3939,-3.3793,-3.3631,-3.334,-3.2805,-3.2595,-3.2724,-4.1699,-4.1938,-4.3034,-4.3568,-4.368,-4.3554,-4.3483,-4.3441,-4.2823,-4.1769,-4.0603,-4.0912,-4.0786,-4.021,-4.0069,-3.9619,-3.8902,-3.8382,-3.7819,-3.7231,-3.7189,-3.7259,-3.7358,-3.7147,-3.7049,-3.7147,-3.7102,-3.6978,-3.6978,-3.6978,-3.6978,-3.6964,-3.6891,-3.6342,-3.5428,-3.5119,-3.4464,-3.3578,-3.3361,-3.3276,-3.3276,-3.3276,-3.3276,-3.3276,-3.3276,-3.3276,-3.3276,-3.3276,-3.3276,-3.3276,-3.3276,-3.3276,-3.3276,-3.3276,-3.3276,-3.3276,-3.3276,-3.3486,-3.3914,-3.4728,-3.537,-3.571,-3.5931,-3.612,-3.6384,-3.728,-3.7988,-3.8119,-3.7988,-3.796,-3.8062,-3.7988,-3.7988,-3.8119,-3.8193,-3.8221,-3.8363,-3.8391,-3.8391,-3.8391,-3.8278,-3.8177,-3.8351,-3.8278,-3.8205,-3.8363,-3.8391,-3.8391,-3.8391,-3.8391,-3.8391,-3.8359,-3.8278,-3.7938,-3.7328,-3.6562,-3.5849,-3.5244,-3.4612,-3.4198,-3.4101,-3.4101,-3.4101,-3.4101,-3.4101,-3.4101,-3.4101,-3.4101,-3.4003,-3.3809,-3.3712,-3.3501,-3.2595,-3.2611,-3.287,-4.1938,-4.2556,-4.3188,-4.3835,-4.4228,-4.3736,-4.3512,-4.3441,-4.2851,-4.2514,-4.2317,-4.2388,-4.2036,-4.1418,-4.0842,-3.9957,-3.8944,-3.8846,-3.8438,-3.7835,-3.7821,-3.8131,-3.8508,-3.7526,-3.7274,-3.7667,-3.7259,-3.7021,-3.6978,-3.6978,-3.6978,-3.6908,-3.6469,-3.6145,-3.5892,-3.4885,-3.4231,-3.4104,-3.3571,-3.3276,-3.3276,-3.3276,-3.3276,-3.3276,-3.3276,-3.3276,-3.3276,-3.3276,-3.3276,-3.3276,-3.3276,-3.3276,-3.3276,-3.3276,-3.3276,-3.3276,-3.3276,-3.3312,-3.3403,-3.4187,-3.4695,-3.478,-3.5389,-3.5853,-3.6026,-3.6198,-3.6676,-3.7177,-3.692,-3.692,-3.7342,-3.7011,-3.6981,-3.7431,-3.7535,-3.7727,-3.8221,-3.8391,-3.8391,-3.8391,-3.7976,-3.7727,-3.825,-3.7976,-3.7844,-3.8335,-3.8391,-3.8391,-3.8391,-3.8391,-3.8391,-3.8278,-3.7873,-3.7425,-3.715,-3.6141,-3.5445,-3.5163,-3.4586,-3.4182,-3.4101,-3.4101,-3.4101,-3.4101,-3.4101,-3.4101,-3.4101,-3.4084,-3.3906,-3.3582,-3.3307,-3.2838,-3.1632,-3.1801,-3.2417,-4.1432,-4.2064,-4.2683,-4.3526,-4.4298,-4.413,-4.4031,-4.4003,-4.3778,-4.3652,-4.3666,-4.3652,-4.2907,-4.1601,-4.0969,-4.0027,-3.8916,-3.8508,-3.8173,-3.7906,-3.7892,-3.8046,-3.8243,-3.8255,-3.7918,-3.7428,-3.7456,-3.7344,-3.7035,-3.6978,-3.6978,-3.6964,-3.6764,-3.63,-3.5597,-3.504,-3.4436,-3.3669,-3.3417,-3.3276,-3.3276,-3.3276,-3.3276,-3.3276,-3.3276,-3.3276,-3.3276,-3.3276,-3.3276,-3.3276,-3.3276,-3.3276,-3.3276,-3.3276,-3.3276,-3.3276,-3.3276,-3.3276,-3.3276,-3.3646,-3.3908,-3.3977,-3.4308,-3.4576,-3.4776,-3.4791,-3.5091,-3.5802,-3.6197,-3.6538,-3.6768,-3.6906,-3.6966,-3.689,-3.7147,-3.7506,-3.7756,-3.7815,-3.7931,-3.8278,-3.8148,-3.8062,-3.8307,-3.8148,-3.8119,-3.8363,-3.8363,-3.8335,-3.8363,-3.8391,-3.8391,-3.8262,-3.7469,-3.6983,-3.7036,-3.6108,-3.5357,-3.5082,-3.457,-3.4117,-3.4101,-3.4101,-3.4101,-3.4101,-3.4101,-3.4101,-3.4101,-3.4101,-3.3971,-3.3582,-3.3267,-3.2878,-3.2287,-3.2433,-3.2789,-4.132,-4.1966,-4.2739,-4.3596,-4.4397,-4.4425,-4.4425,-4.4425,-4.4425,-4.4425,-4.4425,-4.4425,-4.3582,-4.2163,-4.1306,-4.028,-3.9197,-3.8622,-3.8426,-3.8412,-3.8412,-3.851,-3.8693,-3.879,-3.8438,-3.7707,-3.7779,-3.7569,-3.7049,-3.6978,-3.6978,-3.6964,-3.6849,-3.6413,-3.5723,-3.5259,-3.4562,-3.3888,-3.3536,-3.3276,-3.3276,-3.3276,-3.3276,-3.3276,-3.3276,-3.3276,-3.3276,-3.3276,-3.3276,-3.3276,-3.3276,-3.3276,-3.3276,-3.3276,-3.3276,-3.3276,-3.3276,-3.3276,-3.3276,-3.3276,-3.3361,-3.3501,-3.3536,-3.3619,-3.3779,-3.3813,-3.4074,-3.462,-3.5287,-3.5723,-3.6103,-3.6322,-3.6337,-3.6166,-3.6585,-3.6906,-3.7087,-3.7117,-3.7312,-3.777,-3.7474,-3.7578,-3.7578,-3.7637,-3.774,-3.774,-3.7799,-3.7857,-3.7873,-3.7799,-3.7809,-3.7785,-3.6768,-3.6389,-3.6767,-3.5768,-3.504,-3.4822,-3.436,-3.4101,-3.4101,-3.4101,-3.4101,-3.4101,-3.4101,-3.4101,-3.4101,-3.4101,-3.3955,-3.3777,-3.3404,-3.2959,-3.2546,-3.287,-3.3048,-4.1952,-4.2669,-4.3835,-4.4312,-4.4425,-4.4425,-4.4425,-4.4425,-4.4425,-4.4425,-4.4425,-4.4425,-4.4031,-4.3273,-4.2135,-4.0912,-3.9859,-3.9732,-3.969,-3.9704,-3.969,-4.0013,-4.0477,-3.9479,-3.8902,-3.8705,-3.8187,-3.7639,-3.7021,-3.6978,-3.6978,-3.6964,-3.6511,-3.6441,-3.6459,-3.5152,-3.4548,-3.4781,-3.3845,-3.3276,-3.3276,-3.3276,-3.3276,-3.3276,-3.3276,-3.3276,-3.3276,-3.3276,-3.3276,-3.3276,-3.3276,-3.3276,-3.3276,-3.3276,-3.3276,-3.3276,-3.3276,-3.3276,-3.3276,-3.3276,-3.3312,-3.3326,-3.3347,-3.3396,-3.357,-3.3605,-3.3709,-3.3965,-3.4074,-3.4404,-3.4978,-3.4909,-3.4857,-3.532,-3.5497,-3.5834,-3.6353,-3.6384,-3.6461,-3.6477,-3.6197,-3.6009,-3.577,-3.6103,-3.6569,-3.6646,-3.6585,-3.66,-3.6707,-3.6631,-3.661,-3.6463,-3.5957,-3.5586,-3.6061,-3.5136,-3.4307,-3.4221,-3.4212,-3.4075,-3.4075,-3.4101,-3.4075,-3.4075,-3.4101,-3.4101,-3.4101,-3.3971,-3.3744,-3.3501,-3.3161,-3.2789,-3.24,-3.2757,-3.2951,-4.2233,-4.3231,-4.4059,-4.4425,-4.4425,-4.4425,-4.4425,-4.4425,-4.4425,-4.4425,-4.4425,-4.4425,-4.4074,-4.3469,-4.3034,-4.2135,-4.1011,-4.0955,-4.0969,-4.0955,-4.0955,-4.087,-4.0674,-4.0589,-4.0168,-3.9479,-3.8805,-3.803,-3.7063,-3.6978,-3.6978,-3.6964,-3.6782,-3.6599,-3.6286,-3.5363,-3.4773,-3.4506,-3.3733,-3.3276,-3.3276,-3.3276,-3.3276,-3.3276,-3.3276,-3.3276,-3.3276,-3.3276,-3.3276,-3.3276,-3.3276,-3.3276,-3.3276,-3.3276,-3.3276,-3.3276,-3.3276,-3.3276,-3.3276,-3.3276,-3.3276,-3.3276,-3.3276,-3.3312,-3.3396,-3.3431,-3.3431,-3.3501,-3.3501,-3.375,-3.4079,-3.4404,-3.4539,-3.4486,-3.4824,-3.5172,-3.5352,-3.5434,-3.558,-3.5868,-3.5883,-3.5899,-3.5929,-3.6259,-3.6384,-3.643,-3.6399,-3.6353,-3.6384,-3.6384,-3.6307,-3.618,-3.5449,-3.4792,-3.5008,-3.4254,-3.3585,-3.3832,-3.3908,-3.3841,-3.3841,-3.3908,-3.3933,-3.3857,-3.3908,-3.4034,-3.4034,-3.4068,-3.3777,-3.3299,-3.2959,-3.2481,-3.2077,-3.24,-3.2708,-4.2711,-4.3526,-4.4158,-4.4425,-4.4425,-4.4425,-4.4425,-4.4425,-4.4425,-4.4425,-4.4425,-4.4425,-4.4172,-4.3835,-4.3778,-4.3371,-4.25,-4.2135,-4.191,-4.1924,-4.1924,-4.1601,-4.1137,-4.1418,-4.0969,-3.9802,-3.8972,-3.8074,-3.7344,-3.7116,-3.6978,-3.6978,-3.6978,-3.6796,-3.6342,-3.5611,-3.4927,-3.4464,-3.3697,-3.3276,-3.3276,-3.3276,-3.3276,-3.3276,-3.3276,-3.3276,-3.3276,-3.3276,-3.3276,-3.3276,-3.3276,-3.3276,-3.3276,-3.3276,-3.3276,-3.3276,-3.3276,-3.3276,-3.3276,-3.3276,-3.3276,-3.3276,-3.3276,-3.3276,-3.3276,-3.3276,-3.3276,-3.3276,-3.3276,-3.3347,-3.3556,-3.4045,-3.4249,-3.3985,-3.4298,-3.4572,-3.4587,-3.4572,-3.4743,-3.5044,-3.5207,-3.5417,-3.5563,-3.5595,-3.5595,-3.5674,-3.5706,-3.5738,-3.5723,-3.5755,-3.5744,-3.5643,-3.476,-3.4162,-3.3954,-3.3249,-3.2861,-3.3044,-3.3272,-3.3335,-3.3465,-3.3585,-3.3636,-3.3626,-3.3729,-3.3882,-3.3984,-3.405,-3.3703,-3.3153,-3.2643,-3.2174,-3.2028,-3.2028,-3.2384,-4.3469,-4.3624,-4.4158,-4.4425,-4.4425,-4.4425,-4.4425,-4.4425,-4.4425,-4.4425,-4.4425,-4.4425,-4.4383,-4.4369,-4.4312,-4.4312,-4.3989,-4.3118,-4.2683,-4.2683,-4.2654,-4.2317,-4.1741,-4.1783,-4.1123,-3.9887,-3.865,-3.8046,-3.7892,-3.7442,-3.7161,-3.7049,-3.7077,-3.7021,-3.695,-3.5864,-3.5217,-3.4894,-3.3972,-3.3347,-3.3276,-3.3276,-3.3276,-3.3276,-3.3276,-3.3276,-3.3276,-3.3276,-3.3276,-3.3276,-3.3276,-3.3276,-3.3276,-3.3276,-3.3276,-3.3276,-3.3276,-3.3276,-3.3276,-3.3276,-3.3276,-3.3276,-3.3276,-3.3276,-3.3276,-3.3276,-3.3276,-3.3276,-3.3276,-3.3312,-3.3312,-3.3417,-3.3556,-3.3813,-3.3917,-3.3951,-3.3931,-3.3931,-3.3917,-3.4005,-3.4108,-3.3965,-3.4,-3.4264,-3.4419,-3.4419,-3.4486,-3.4601,-3.462,-3.4654,-3.4475,-3.4303,-3.387,-3.335,-3.2869,-3.2406,-3.2246,-3.2188,-3.2355,-3.252,-3.2738,-3.2873,-3.2926,-3.2926,-3.3124,-3.3282,-3.3481,-3.3501,-3.33,-3.2798,-3.2337,-3.1878,-3.1814,-3.1806,-3.2199,-4.375,-4.413,-4.4326,-4.4425,-4.4425,-4.4425,-4.4425,-4.4425,-4.4425,-4.4425,-4.4425,-4.4425,-4.4425,-4.4425,-4.4425,-4.4425,-4.4383,-4.3989,-4.3835,-4.3821,-4.3821,-4.3483,-4.2978,-4.2893,-4.2036,-4.0688,-4.0477,-3.976,-3.8721,-3.8396,-3.8128,-3.7695,-3.7597,-3.7386,-3.6964,-3.623,-3.5653,-3.5133,-3.4379,-3.3726,-3.3347,-3.329,-3.329,-3.3276,-3.3276,-3.3276,-3.3276,-3.3276,-3.3276,-3.3276,-3.3276,-3.3276,-3.3276,-3.3276,-3.3276,-3.3276,-3.3276,-3.3276,-3.3276,-3.3276,-3.3276,-3.3276,-3.3276,-3.3276,-3.3276,-3.3276,-3.3276,-3.3276,-3.3276,-3.3276,-3.3276,-3.3276,-3.3347,-3.3466,-3.3501,-3.3501,-3.355,-3.3501,-3.3536,-3.3689,-3.3675,-3.3744,-3.3848,-3.3951,-3.3951,-3.3965,-3.402,-3.4088,-3.4054,-3.4088,-3.404,-3.3965,-3.3271,-3.2647,-3.2382,-3.1856,-3.1352,-3.1393,-3.1595,-3.1809,-3.1992,-3.2148,-3.2203,-3.2355,-3.2532,-3.2722,-3.2926,-3.295,-3.2777,-3.2315,-3.1716,-3.1478,-3.1388,-3.1526,-3.1774,-4.4059,-4.4411,-4.4425,-4.4425,-4.4425,-4.4425,-4.4425,-4.4425,-4.4425,-4.4425,-4.4425,-4.4425,-4.4425,-4.4425,-4.4425,-4.4425,-4.4425,-4.4425,-4.4425,-4.4425,-4.4425,-4.4074,-4.3512,-4.3245,-4.264,-4.1629,-4.1545,-4.0898,-3.9633,-3.9072,-3.8538,-3.7976,-3.7681,-3.7372,-3.695,-3.6388,-3.5878,-3.5484,-3.4899,-3.4281,-3.3754,-3.3627,-3.3515,-3.3319,-3.3276,-3.3276,-3.3276,-3.3276,-3.3276,-3.3276,-3.3276,-3.3276,-3.3276,-3.3276,-3.3276,-3.3276,-3.3276,-3.3276,-3.3276,-3.3276,-3.3276,-3.3276,-3.3276,-3.3276,-3.3276,-3.3276,-3.3276,-3.3276,-3.3276,-3.3276,-3.3276,-3.3276,-3.3276,-3.3276,-3.3312,-3.3276,-3.3276,-3.3276,-3.3347,-3.3466,-3.3466,-3.355,-3.364,-3.3744,-3.3779,-3.3793,-3.3862,-3.3896,-3.3896,-3.3931,-3.3882,-3.3611,-3.2905,-3.2429,-3.2091,-3.1392,-3.0517,-3.0598,-3.0851,-3.1058,-3.1277,-3.1393,-3.148,-3.1794,-3.2033,-3.2284,-3.252,-3.2574,-3.2443,-3.1785,-3.1279,-3.1135,-3.1049,-3.0829,-3.0912,-4.4411,-4.4425,-4.4425,-4.4425,-4.4425,-4.4425,-4.4425,-4.4425,-4.4425,-4.4425,-4.4425,-4.4425,-4.4425,-4.4425,-4.4425,-4.4425,-4.4425,-4.4425,-4.4425,-4.4425,-4.4397,-4.4116,-4.3638,-4.3216,-4.2851,-4.2514,-4.2078,-4.146,-4.0786,-3.9802,-3.8705,-3.8187,-3.7653,-3.7102,-3.6936,-3.6441,-3.6174,-3.5963,-3.5442,-3.4801,-3.4175,-3.4076,-3.3838,-3.3304,-3.3276,-3.3276,-3.3276,-3.3276,-3.3276,-3.3276,-3.3276,-3.3276,-3.3276,-3.3276,-3.3276,-3.3276,-3.3276,-3.3276,-3.3276,-3.3276,-3.3276,-3.3276,-3.3276,-3.3276,-3.3276,-3.3276,-3.3276,-3.3276,-3.3276,-3.3276,-3.3276,-3.3276,-3.3276,-3.3276,-3.3276,-3.3276,-3.3276,-3.3276,-3.3312,-3.3312,-3.3276,-3.3312,-3.3361,-3.3501,-3.357,-3.3605,-3.3724,-3.3793,-3.3793,-3.3744,-3.3799,-3.3305,-3.253,-3.2021,-3.1636,-3.1017,-3.0248,-3.0205,-3.0387,-3.0568,-3.0673,-3.0792,-3.0851,-3.116,-3.148,-3.1766,-3.1908,-3.1851,-3.1936,-3.1647,-3.1259,-3.0945,-3.0674,-3.0423,-3.012,-4.4425,-4.4425,-4.4425,-4.4425,-4.4425,-4.4425,-4.4425,-4.4425,-4.4425,-4.4425,-4.4425,-4.4425,-4.4425,-4.4425,-4.4425,-4.4425,-4.4425,-4.4425,-4.4425,-4.4425,-4.4425,-4.434,-4.4186,-4.4003,-4.3638,-4.3245,-4.2978,-4.2683,-4.2064,-4.1123,-4.0224,-3.9297,-3.8536,-3.7847,-3.7105,-3.6796,-3.6525,-3.6089,-3.5513,-3.4885,-3.4273,-3.3782,-3.3473,-3.3333,-3.3276,-3.3276,-3.3276,-3.3276,-3.3276,-3.3276,-3.3276,-3.3276,-3.3276,-3.3276,-3.3276,-3.3276,-3.3276,-3.3276,-3.3276,-3.3276,-3.3276,-3.3276,-3.3276,-3.3276,-3.3276,-3.3276,-3.3276,-3.3276,-3.3276,-3.3276,-3.3276,-3.3276,-3.3276,-3.3276,-3.3276,-3.3276,-3.3276,-3.3276,-3.3276,-3.3276,-3.3276,-3.3276,-3.3326,-3.3361,-3.3396,-3.3396,-3.3466,-3.3515,-3.355,-3.3536,-3.3528,-3.2863,-3.2136,-3.164,-3.1109,-3.0534,-3.0123,-2.9974,-3.0052,-3.0189,-3.028,-3.0341,-3.0341,-3.0417,-3.0732,-3.1014,-3.094,-3.0851,-3.0999,-3.1277,-3.0974,-3.0558,-3.0298,-3.005,-2.9598,-4.4031,-4.4045,-4.4298,-4.4425,-4.4425,-4.4425,-4.4425,-4.4425,-4.4425,-4.4425,-4.4425,-4.4425,-4.4425,-4.4425,-4.4425,-4.4425,-4.4425,-4.4425,-4.4425,-4.4425,-4.4425,-4.4411,-4.434,-4.42,-4.3835,-4.3554,-4.3497,-4.2795,-4.1924,-4.1629,-4.0674,-3.9142,-3.8677,-3.7988,-3.7063,-3.6978,-3.6877,-3.6455,-3.5892,-3.525,-3.4646,-3.3992,-3.3543,-3.3375,-3.3276,-3.3276,-3.3276,-3.3276,-3.3276,-3.3276,-3.3276,-3.3276,-3.3276,-3.3276,-3.3276,-3.3276,-3.3276,-3.3276,-3.3276,-3.3276,-3.3276,-3.3276,-3.3276,-3.3276,-3.3276,-3.3276,-3.3276,-3.3276,-3.3276,-3.3276,-3.3276,-3.3276,-3.3276,-3.3276,-3.3276,-3.3276,-3.3276,-3.3276,-3.3276,-3.3276,-3.3276,-3.3276,-3.3276,-3.3276,-3.3276,-3.3312,-3.3312,-3.3326,-3.3312,-3.3262,-3.3171,-3.2657,-3.2213,-3.1787,-3.1227,-3.0627,-3.0052,-2.986,-2.9806,-2.9927,-3.0019,-3.005,-3.008,-3.0127,-3.0189,-3.0205,-3.0266,-3.0326,-3.0477,-3.0586,-3.0368,-3.0174,-2.9842,-2.9724,-2.9263,-4.3427,-4.354,-4.4088,-4.4355,-4.4411,-4.4425,-4.4425,-4.4425,-4.4425,-4.4425,-4.4425,-4.4425,-4.4425,-4.4425,-4.4425,-4.4425,-4.4425,-4.4425,-4.4425,-4.4425,-4.4425,-4.4425,-4.4369,-4.4017,-4.3793,-4.368,-4.361,-4.2669,-4.1783,-4.1643,-4.0364,-3.8833,-3.8187,-3.7653,-3.7133,-3.6978,-3.6978,-3.6824,-3.6314,-3.5709,-3.5068,-3.4413,-3.3838,-3.3347,-3.3276,-3.3276,-3.3276,-3.3276,-3.3276,-3.3276,-3.3276,-3.3276,-3.3276,-3.3276,-3.3276,-3.3276,-3.3276,-3.3276,-3.3276,-3.3276,-3.3276,-3.3276,-3.3276,-3.3276,-3.3276,-3.3276,-3.3276,-3.3276,-3.3276,-3.3276,-3.3276,-3.3276,-3.3276,-3.3276,-3.3276,-3.3276,-3.3276,-3.3276,-3.3276,-3.3276,-3.3276,-3.3276,-3.3276,-3.3276,-3.3276,-3.3276,-3.3276,-3.3276,-3.3276,-3.3276,-3.3164,-3.2932,-3.2483,-3.2075,-3.1476,-3.0829,-3.0224,-2.9802,-2.9707,-2.9741,-2.9896,-2.9927,-2.9988,-3.0019,-2.9991,-3.0021,-3.0052,-3.0113,-3.0189,-3.0206,-3.026,-2.9783,-2.9319,-2.9345,-2.9086,-4.3062,-4.3497,-4.3638,-4.3975,-4.4369,-4.4425,-4.4425,-4.4425,-4.4425,-4.4425,-4.4425,-4.4425,-4.4425,-4.4425,-4.4383,-4.4425,-4.4411,-4.4425,-4.4425,-4.4425,-4.4425,-4.4425,-4.4397,-4.4214,-4.4186,-4.4144,-4.4186,-4.3413,-4.243,-4.1826,-4.1095,-3.8972,-3.8412,-3.8114,-3.7133,-3.6978,-3.6978,-3.688,-3.6413,-3.5836,-3.5259,-3.4576,-3.3908,-3.3361,-3.3276,-3.3276,-3.3276,-3.3276,-3.3276,-3.3276,-3.3276,-3.3276,-3.3276,-3.3276,-3.3276,-3.3276,-3.3276,-3.3276,-3.3276,-3.3276,-3.3276,-3.3276,-3.3276,-3.3276,-3.3276,-3.3276,-3.3276,-3.3276,-3.3276,-3.3276,-3.3276,-3.3276,-3.3276,-3.3276,-3.3276,-3.3276,-3.3276,-3.3276,-3.3276,-3.3276,-3.3276,-3.3276,-3.3276,-3.3276,-3.3276,-3.3276,-3.3276,-3.3276,-3.3276,-3.3276,-3.3164,-3.3031,-3.2806,-3.2342,-3.1597,-3.0937,-3.0291,-2.9782,-2.9659,-2.9602,-2.9741,-2.9772,-2.9834,-2.982,-2.9806,-2.9837,-2.9867,-2.9974,-3.0066,-3.0097,-3.0113,-2.9833,-2.9534,-2.9333,-2.9059,-4.2669,-4.3469,-4.3483,-4.3863,-4.4369,-4.4425,-4.4425,-4.4425,-4.4425,-4.4425,-4.4425,-4.4425,-4.4425,-4.4383,-4.413,-4.4116,-4.4383,-4.4425,-4.4425,-4.4425,-4.4425,-4.4425,-4.4425,-4.4369,-4.4298,-4.4031,-4.3638,-4.2865,-4.1994,-4.1601,-4.0491,-3.8608,-3.8454,-3.7864,-3.7133,-3.6978,-3.6978,-3.6866,-3.6427,-3.5934,-3.5569,-3.4688,-3.3908,-3.3417,-3.3276,-3.3276,-3.3276,-3.3276,-3.3276,-3.3276,-3.3276,-3.3276,-3.3276,-3.3276,-3.3276,-3.3276,-3.3276,-3.3276,-3.3276,-3.3276,-3.3276,-3.3276,-3.3276,-3.3276,-3.3276,-3.3276,-3.3276,-3.3276,-3.3276,-3.3276,-3.3276,-3.3276,-3.3276,-3.3276,-3.3276,-3.3276,-3.3276,-3.3276,-3.3276,-3.3276,-3.3276,-3.3276,-3.3276,-3.3276,-3.3276,-3.3276,-3.3276,-3.3276,-3.3276,-3.3276,-3.3206,-3.308,-3.3002,-3.2567,-3.1719,-3.0989,-3.0319,-2.9897,-2.9631,-2.9602,-2.9634,-2.9634,-2.9634,-2.9665,-2.9682,-2.9696,-2.9727,-2.9834,-2.9913,-2.9929,-2.9934,-2.9942,-2.9789,-2.9433,-2.9132,-4.243,-4.3483,-4.3483,-4.3849,-4.4369,-4.4425,-4.4425,-4.4425,-4.4425,-4.4425,-4.4425,-4.4425,-4.4355,-4.4158,-4.375,-4.3849,-4.4158,-4.4425,-4.4425,-4.4425,-4.4425,-4.4425,-4.4425,-4.4369,-4.42,-4.3596,-4.3371,-4.243,-4.1559,-4.094,-4.0491,-3.8538,-3.8257,-3.7892,-3.7231,-3.6978,-3.6978,-3.6908,-3.6595,-3.6202,-3.5977,-3.5082,-3.4315,-3.3613,-3.3319,-3.329,-3.3276,-3.3276,-3.3276,-3.3276,-3.3276,-3.3276,-3.3276,-3.3276,-3.3276,-3.3276,-3.3276,-3.3276,-3.3276,-3.3276,-3.3276,-3.3276,-3.3276,-3.3276,-3.3276,-3.3276,-3.3276,-3.3276,-3.3276,-3.3276,-3.3276,-3.3276,-3.3276,-3.3276,-3.3276,-3.3276,-3.3276,-3.3276,-3.3276,-3.3276,-3.3276,-3.3276,-3.3276,-3.3276,-3.3276,-3.3276,-3.3276,-3.3276,-3.3276,-3.3276,-3.322,-3.3192,-3.3094,-3.2567,-3.1752,-3.0755,-3.0094,-2.9883,-2.9602,-2.9602,-2.9602,-2.9602,-2.9602,-2.9602,-2.9634,-2.9602,-2.9634,-2.9696,-2.9758,-2.9761,-2.9794,-2.9785,-2.9667,-2.9474,-2.9289,-4.2837,-4.3483,-4.3483,-4.3849,-4.4369,-4.4425,-4.4425,-4.4425,-4.4425,-4.4425,-4.4383,-4.4397,-4.4088,-4.3722,-4.3568,-4.3554,-4.3638,-4.4003,-4.4326,-4.4355,-4.4383,-4.4425,-4.4425,-4.4411,-4.4312,-4.4284,-4.3947,-4.3231,-4.2598,-4.2598,-4.1011,-3.9297,-3.9016,-3.8524,-3.733,-3.6978,-3.6978,-3.6978,-3.6796,-3.6557,-3.615,-3.5686,-3.4997,-3.402,-3.3543,-3.3304,-3.3276,-3.3276,-3.3276,-3.3276,-3.3276,-3.3276,-3.3276,-3.3276,-3.3276,-3.3276,-3.3276,-3.3276,-3.3276,-3.3276,-3.3276,-3.3276,-3.3276,-3.3276,-3.3276,-3.3276,-3.3276,-3.3276,-3.3276,-3.3276,-3.3276,-3.3276,-3.3276,-3.3276,-3.3276,-3.3276,-3.3276,-3.3276,-3.3276,-3.3276,-3.3276,-3.3276,-3.3276,-3.3276,-3.3276,-3.3276,-3.3276,-3.3276,-3.3276,-3.3276,-3.3262,-3.3262,-3.3262,-3.2539,-3.171,-3.0614,-2.9785,-2.9757,-2.9602,-2.9602,-2.9602,-2.9602,-2.9602,-2.9602,-2.9602,-2.9602,-2.9602,-2.9602,-2.9634,-2.9682,-2.9668,-2.967,-2.9626,-2.9624,-2.9754,-4.2725,-4.3519,-4.3532,-4.3863,-4.4355,-4.4425,-4.4425,-4.4425,-4.4411,-4.4228,-4.4003,-4.3919,-4.3793,-4.3371,-4.2725,-4.2528,-4.2781,-4.3554,-4.3891,-4.3975,-4.4242,-4.4425,-4.4411,-4.4411,-4.4425,-4.4312,-4.4074,-4.3708,-4.3006,-4.2191,-4.1165,-3.9746,-3.9086,-3.8159,-3.7274,-3.6978,-3.6978,-3.6978,-3.6964,-3.6852,-3.6459,-3.6061,-3.5096,-3.4365,-3.3655,-3.3319,-3.3276,-3.3276,-3.3276,-3.3276,-3.3276,-3.3276,-3.3276,-3.3276,-3.3276,-3.3276,-3.3276,-3.3276,-3.3276,-3.3276,-3.3276,-3.3276,-3.3276,-3.3276,-3.3276,-3.3276,-3.3276,-3.3276,-3.3276,-3.3276,-3.3276,-3.3276,-3.3276,-3.3276,-3.3276,-3.3276,-3.3276,-3.3276,-3.3276,-3.3276,-3.3276,-3.3276,-3.3276,-3.3276,-3.3276,-3.3276,-3.3276,-3.3276,-3.3276,-3.3276,-3.3276,-3.3164,-3.3066,-3.2384,-3.1569,-3.0628,-2.9743,-2.9631,-2.9602,-2.9602,-2.9602,-2.9602,-2.9602,-2.9602,-2.9602,-2.9602,-2.9602,-2.9602,-2.9602,-2.9602,-2.962,-2.9637,-2.9747,-2.9825,-2.9884,-4.259,-4.3477,-4.3412,-4.3682,-4.404,-4.4082,-4.4082,-4.4082,-4.4082,-4.3686,-4.325,-4.3148,-4.3082,-4.2814,-4.2315,-4.1896,-4.1924,-4.3174,-4.3736,-4.3891,-4.42,-4.4425,-4.4397,-4.427,-4.4158,-4.4031,-4.3582,-4.3399,-4.3174,-4.2163,-4.0884,-3.9943,-3.8805,-3.7864,-3.7386,-3.7077,-3.7035,-3.6978,-3.6978,-3.6978,-3.6736,-3.5864,-3.4992,-3.4379,-3.3719,-3.3276,-3.3276,-3.3276,-3.3276,-3.3276,-3.3276,-3.3276,-3.3276,-3.3276,-3.3276,-3.3276,-3.3276,-3.3276,-3.3276,-3.3276,-3.3276,-3.3276,-3.3276,-3.3276,-3.3276,-3.3276,-3.3276,-3.3276,-3.3276,-3.3276,-3.3276,-3.3276,-3.3276,-3.3276,-3.3276,-3.3276,-3.3276,-3.3276,-3.3276,-3.3276,-3.3276,-3.3276,-3.3276,-3.3276,-3.3276,-3.3276,-3.3276,-3.3276,-3.3276,-3.3276,-3.3234,-3.3038,-3.2764,-3.2131,-3.1401,-3.0698,-2.9968,-2.9617,-2.9602,-2.9602,-2.9602,-2.9602,-2.9602,-2.9602,-2.9602,-2.9602,-2.9602,-2.9602,-2.9602,-2.9602,-2.9602,-2.9634,-2.9682,-2.973,-2.9775,-4.2848,-4.297,-4.2937,-4.3012,-4.3067,-4.2991,-4.3053,-4.3039,-4.3047,-4.2726,-4.2144,-4.2125,-4.181,-4.1508,-4.2195,-4.2357,-4.2694,-4.3322,-4.3822,-4.3789,-4.4013,-4.4083,-4.4163,-4.3821,-4.3528,-4.3328,-4.2842,-4.3062,-4.2915,-4.2354,-4.1571,-4.0504,-3.9578,-3.8945,-3.763,-3.7164,-3.6993,-3.6978,-3.6978,-3.6978,-3.6782,-3.5836,-3.5217,-3.4781,-3.395,-3.3241,-3.3206,-3.3171,-3.3171,-3.3241,-3.3276,-3.3276,-3.3276,-3.3276,-3.3276,-3.3276,-3.3276,-3.3276,-3.3276,-3.3276,-3.3276,-3.3276,-3.3276,-3.3276,-3.3276,-3.3276,-3.3276,-3.3276,-3.3276,-3.3276,-3.3276,-3.3276,-3.3276,-3.3276,-3.3276,-3.3276,-3.3276,-3.3276,-3.3276,-3.3276,-3.3276,-3.3276,-3.3276,-3.3276,-3.3276,-3.3276,-3.3276,-3.3276,-3.3276,-3.3276,-3.3276,-3.3122,-3.2721,-3.2089,-3.171,-3.0923,-3.0319,-2.9813,-2.9743,-2.9715,-2.9602,-2.9602,-2.9602,-2.9602,-2.9602,-2.9602,-2.9602,-2.9602,-2.9602,-2.9602,-2.9602,-2.9602,-2.9602,-2.9634,-2.9665,-4.0249,-4.1043,-4.1015,-4.1215,-4.139,-4.1163,-4.1276,-4.1549,-4.1365,-4.116,-4.0982,-4.1007,-4.0609,-4.0415,-4.1484,-4.172,-4.1602,-4.2431,-4.2731,-4.2772,-4.2863,-4.289,-4.2595,-4.2568,-4.2573,-4.2095,-4.1576,-4.1255,-4.1556,-4.163,-4.1121,-4.0328,-3.934,-3.8352,-3.7667,-3.7184,-3.701,-3.6978,-3.6978,-3.6978,-3.6669,-3.5869,-3.5189,-3.5096,-3.3729,-3.3119,-3.2931,-3.2717,-3.2753,-3.2874,-3.2966,-3.3086,-3.3241,-3.3276,-3.3276,-3.3276,-3.3276,-3.3276,-3.3276,-3.3276,-3.3276,-3.3276,-3.3276,-3.3276,-3.3276,-3.3276,-3.3276,-3.3276,-3.3276,-3.3276,-3.3276,-3.3276,-3.3276,-3.3276,-3.3276,-3.3276,-3.3276,-3.3276,-3.3276,-3.3276,-3.3276,-3.3276,-3.3276,-3.3276,-3.3276,-3.3276,-3.3276,-3.3276,-3.3276,-3.3276,-3.3276,-3.3262,-3.2778,-3.2159,-3.1921,-3.1471,-3.0825,-3.0361,-3.0161,-3.0034,-2.9687,-2.9602,-2.9602,-2.9602,-2.9602,-2.9602,-2.9602,-2.9602,-2.9602,-2.9602,-2.9602,-2.9602,-2.9602,-2.9602,-2.9634,-3.7222,-3.8415,-3.8818,-3.927,-3.9525,-3.9144,-3.9473,-4.0056,-3.9765,-3.9693,-3.9784,-3.9792,-3.9559,-3.9559,-4.0554,-4.0946,-4.0287,-4.1151,-4.1338,-4.1385,-4.1455,-4.1569,-4.148,-4.1515,-4.1311,-4.0811,-4.0164,-3.9874,-3.9837,-3.9803,-3.9703,-3.9724,-3.8587,-3.7924,-3.7495,-3.7137,-3.694,-3.6811,-3.6626,-3.6587,-3.6392,-3.5624,-3.5068,-3.4502,-3.3661,-3.2726,-3.2538,-3.2345,-3.2345,-3.2453,-3.2704,-3.2895,-3.3051,-3.3206,-3.3276,-3.3276,-3.3276,-3.3276,-3.3276,-3.3276,-3.3276,-3.3276,-3.3276,-3.3276,-3.3276,-3.3276,-3.3276,-3.3276,-3.3276,-3.3276,-3.3276,-3.3276,-3.3276,-3.3276,-3.3276,-3.3276,-3.3276,-3.3276,-3.3276,-3.3276,-3.3276,-3.3276,-3.3276,-3.3276,-3.3276,-3.3276,-3.3276,-3.3276,-3.3276,-3.3276,-3.3276,-3.3262,-3.282,-3.2314,-3.2145,-3.1808,-3.1246,-3.0839,-3.0624,-3.0245,-2.9799,-2.9617,-2.9602,-2.9602,-2.9602,-2.9602,-2.9602,-2.9602,-2.9602,-2.9602,-2.9602,-2.9602,-2.9602,-2.9602,-2.9602,-3.4589,-3.5242,-3.679,-3.7443,-3.7517,-3.7493,-3.7866,-3.8445,-3.843,-3.8495,-3.8626,-3.8674,-3.8546,-3.8821,-3.9476,-4.0086,-4.0064,-4.0844,-4.0781,-4.0862,-4.1096,-4.0829,-4.0593,-4.0356,-4.0191,-3.9848,-3.8872,-3.8391,-3.8276,-3.7586,-3.8192,-3.8925,-3.7821,-3.7772,-3.751,-3.7007,-3.6682,-3.6417,-3.6165,-3.5951,-3.5747,-3.5229,-3.4683,-3.4058,-3.3383,-3.2711,-3.2169,-3.2032,-3.2019,-3.2128,-3.2381,-3.2596,-3.2753,-3.2994,-3.3065,-3.31,-3.31,-3.3051,-3.298,-3.3171,-3.329,-3.329,-3.3241,-3.3171,-3.31,-3.3206,-3.3241,-3.3206,-3.3157,-3.3241,-3.3276,-3.3276,-3.3276,-3.3276,-3.3276,-3.3276,-3.3276,-3.3276,-3.3276,-3.3276,-3.3276,-3.3276,-3.3276,-3.3276,-3.3276,-3.3276,-3.3276,-3.3276,-3.3276,-3.3276,-3.3276,-3.3178,-3.282,-3.2497,-3.2384,-3.2033,-3.1696,-3.1204,-3.0853,-3.0319,-2.9743,-2.9659,-2.9617,-2.9602,-2.9602,-2.9602,-2.9602,-2.9602,-2.9602,-2.9602,-2.9602,-2.9602,-2.9602,-2.9602,-2.9602,-3.3683,-3.3968,-3.4589,-3.5206,-3.5762,-3.5431,-3.5731,-3.6282,-3.6076,-3.6269,-3.6837,-3.6763,-3.6756,-3.7083,-3.7796,-3.8161,-3.7963,-3.8424,-3.8756,-3.8903,-3.895,-3.9002,-3.8939,-3.8898,-3.858,-3.8111,-3.709,-3.6627,-3.6683,-3.5876,-3.6386,-3.6856,-3.6813,-3.6651,-3.6537,-3.6497,-3.6194,-3.6005,-3.5804,-3.571,-3.5588,-3.5127,-3.468,-3.4436,-3.3127,-3.2622,-3.2262,-3.1692,-3.1659,-3.174,-3.1909,-3.2055,-3.2187,-3.2431,-3.2503,-3.2538,-3.2538,-3.2381,-3.2331,-3.2704,-3.3185,-3.298,-3.2945,-3.2838,-3.2596,-3.2574,-3.2704,-3.2775,-3.2931,-3.3016,-3.3241,-3.3276,-3.3276,-3.3276,-3.3276,-3.3276,-3.3276,-3.3276,-3.3276,-3.3276,-3.3276,-3.3276,-3.3276,-3.3276,-3.3276,-3.3276,-3.3276,-3.3276,-3.3276,-3.3276,-3.3276,-3.3276,-3.2974,-3.289,-3.2792,-3.2511,-3.2188,-3.1654,-3.1106,-3.0628,-3.0122,-2.9659,-2.9617,-2.9617,-2.9617,-2.9602,-2.9602,-2.9602,-2.9602,-2.9602,-2.9602,-2.9602,-2.9602,-2.9602,-2.9602,-3.2883,-3.2845,-3.2994,-3.3545,-3.4245,-3.3947,-3.4241,-3.4797,-3.4637,-3.4836,-3.5619,-3.5619,-3.5619,-3.5874,-3.6312,-3.6607,-3.6498,-3.668,-3.6872,-3.7041,-3.7134,-3.7099,-3.7143,-3.7155,-3.7019,-3.6332,-3.5531,-3.5133,-3.6004,-3.4615,-3.5155,-3.5845,-3.5979,-3.5936,-3.6169,-3.5707,-3.5521,-3.5521,-3.5386,-3.5304,-3.5183,-3.4915,-3.4513,-3.4272,-3.3143,-3.2443,-3.1947,-3.1325,-3.0861,-3.0947,-3.106,-3.1158,-3.1344,-3.1479,-3.1553,-3.1589,-3.1502,-3.1355,-3.1341,-3.1649,-3.2259,-3.1869,-3.1856,-3.1833,-3.1833,-3.1846,-3.2015,-3.2489,-3.2596,-3.2775,-3.3086,-3.3171,-3.3276,-3.3276,-3.3276,-3.3276,-3.3276,-3.3276,-3.3276,-3.3276,-3.3276,-3.3276,-3.329,-3.329,-3.3276,-3.3276,-3.3276,-3.3276,-3.3276,-3.3276,-3.3276,-3.3276,-3.3206,-3.3206,-3.3234,-3.296,-3.2623,-3.2159,-3.1654,-3.1232,-3.074,-3.0193,-2.9838,-2.9982,-2.9926,-2.9701,-2.9602,-2.9602,-2.9602,-2.9602,-2.9602,-2.9602,-2.9602,-2.9602,-2.9602,-3.1894,-3.1905,-3.2317,-3.2822,-3.3315,-3.3315,-3.3752,-3.4308,-3.4323,-3.469,-3.5283,-3.5379,-3.5379,-3.5404,-3.5441,-3.5417,-3.5417,-3.5477,-3.5622,-3.5742,-3.5779,-3.5716,-3.5798,-3.5879,-3.5859,-3.5382,-3.4635,-3.4541,-3.563,-3.4297,-3.4521,-3.4999,-3.5192,-3.5489,-3.6436,-3.559,-3.5112,-3.5031,-3.4605,-3.4384,-3.4275,-3.4184,-3.3936,-3.3504,-3.2748,-3.2071,-3.1565,-3.0625,-3.0139,-3.0139,-3.005,-3.005,-3.005,-3.0291,-3.0392,-3.0392,-3.0392,-3.0355,-3.0317,-3.0392,-3.0392,-3.0581,-3.0769,-3.0769,-3.1068,-3.118,-3.1267,-3.1589,-3.2042,-3.2403,-3.2739,-3.2945,-3.298,-3.3136,-3.31,-3.3065,-3.3016,-3.3016,-3.2945,-3.2909,-3.3136,-3.3276,-3.329,-3.329,-3.329,-3.3276,-3.3276,-3.3276,-3.3276,-3.3276,-3.3276,-3.3276,-3.3276,-3.3276,-3.3276,-3.3276,-3.3024,-3.2609,-3.2145,-3.1682,-3.1204,-3.0642,-3.0431,-3.0431,-3.0052,-2.9659,-2.9602,-2.9602,-2.9602,-2.9602,-2.9602,-2.9602,-2.9602,-2.9602,-2.9602,-3.1813,-3.1825,-3.1986,-3.2158,-3.2423,-3.3017,-3.3469,-3.3645,-3.3706,-3.3854,-3.4003,-3.4052,-3.4052,-3.4089,-3.4115,-3.4164,-3.4139,-3.4089,-3.4176,-3.4787,-3.4787,-3.5223,-3.5306,-3.511,-3.4974,-3.467,-3.3924,-3.3583,-3.429,-3.3443,-3.3492,-3.3897,-3.4193,-3.4413,-3.4747,-3.4389,-3.3992,-3.3852,-3.3403,-3.2993,-3.3036,-3.3023,-3.2978,-3.2751,-3.1975,-3.1382,-3.1092,-3.0022,-2.9443,-2.9406,-2.9277,-2.9211,-2.9199,-2.9447,-2.9447,-2.9498,-2.9498,-2.9303,-2.8924,-2.8688,-2.8873,-2.9381,-2.9794,-2.9756,-2.9871,-2.9833,-3.0075,-3.0469,-3.0833,-3.1193,-3.1576,-3.1759,-3.1905,-3.2345,-3.2431,-3.2431,-3.2431,-3.2431,-3.2381,-3.2395,-3.2503,-3.2717,-3.2838,-3.2838,-3.2824,-3.3016,-3.3016,-3.3206,-3.3276,-3.3276,-3.3276,-3.3276,-3.3276,-3.3276,-3.3276,-3.3276,-3.3122,-3.2707,-3.2356,-3.2019,-3.1527,-3.1162,-3.0839,-3.0755,-3.0164,-2.9602,-2.9687,-2.9729,-2.9631,-2.9602,-2.9602,-2.9602,-2.9602,-2.9602,-2.9602,-3.1226,-3.1307,-3.1444,-3.1502,-3.1639,-3.2408,-3.2764,-3.2837,-3.2914,-3.2925,-3.2848,-3.2951,-3.3032,-3.3043,-3.3017,-3.3189,-3.3258,-3.3331,-3.3419,-3.3967,-3.4028,-3.4274,-3.4436,-3.4487,-3.4185,-3.3911,-3.3446,-3.3089,-3.3982,-3.2794,-3.2852,-3.332,-3.3109,-3.3283,-3.3444,-3.3258,-3.3031,-3.2932,-3.2618,-3.2432,-3.2432,-3.2376,-3.2376,-3.2056,-3.1464,-3.075,-3.0356,-2.967,-2.8779,-2.874,-2.8633,-2.8514,-2.8462,-2.8462,-2.8462,-2.8435,-2.8383,-2.8195,-2.7857,-2.7615,-2.8007,-2.8593,-2.8819,-2.8819,-2.8779,-2.8897,-2.916,-2.9433,-2.951,-2.9999,-3.0519,-3.0694,-3.0994,-3.1466,-3.1516,-3.1502,-3.1479,-3.1466,-3.1466,-3.1502,-3.1773,-3.2028,-3.2259,-3.2295,-3.2295,-3.2489,-3.2717,-3.2909,-3.3136,-3.3206,-3.3241,-3.3241,-3.3276,-3.3276,-3.3276,-3.3276,-3.3066,-3.2778,-3.2581,-3.2412,-3.2286,-3.1977,-3.1513,-3.1092,-3.0769,-3.0431,-2.9978,-2.9838,-2.9799,-2.9687,-2.9602,-2.9602,-2.9602,-2.9602,-2.9602,-3.0227,-3.0308,-3.0778,-3.0985,-3.1077,-3.1572,-3.1802,-3.1894,-3.2282,-3.2273,-3.1894,-3.2328,-3.2466,-3.2477,-3.2466,-3.2684,-3.3032,-3.3074,-3.317,-3.3266,-3.3345,-3.3464,-3.3496,-3.3511,-3.3566,-3.3276,-3.2981,-3.3115,-3.4086,-3.2853,-3.2577,-3.2705,-3.2245,-3.2162,-3.2152,-3.2127,-3.214,-3.2152,-3.1965,-3.1821,-3.1777,-3.1909,-3.1792,-3.1421,-3.0846,-3.0313,-2.9806,-2.8999,-2.8326,-2.7978,-2.7667,-2.7423,-2.7272,-2.7231,-2.7231,-2.726,-2.733,-2.7342,-2.7353,-2.7231,-2.7231,-2.7655,-2.7505,-2.7667,-2.7938,-2.8179,-2.8355,-2.87,-2.8924,-2.9277,-2.9653,-2.9871,-3.0114,-3.0279,-3.0355,-3.0355,-3.0317,-3.0317,-3.0355,-3.0506,-3.0844,-3.1156,-3.1466,-3.1553,-3.1452,-3.1563,-3.1759,-3.2028,-3.2331,-3.3051,-3.3086,-3.3171,-3.3206,-3.3276,-3.3276,-3.3276,-3.322,-3.3002,-3.3052,-3.2974,-3.2876,-3.2637,-3.2131,-3.1738,-3.1612,-3.1274,-3.0712,-3.0277,-2.9982,-2.9897,-3.001,-2.9673,-2.9701,-2.9631,-2.9602,-3.0216,-3.0239,-3.0388,-3.0457,-3.0468,-3.0606,-3.1065,-3.1743,-3.1974,-3.1917,-3.1825,-3.1951,-3.202,-3.2032,-3.202,-3.2135,-3.2227,-3.2296,-3.2503,-3.2653,-3.281,-3.3005,-3.3155,-3.3258,-3.3269,-3.3212,-3.3124,-3.2935,-3.2781,-3.2088,-3.139,-3.0991,-3.1154,-3.097,-3.0913,-3.0824,-3.1193,-3.1371,-3.1181,-3.1048,-3.0958,-3.1003,-3.0838,-3.0402,-2.9902,-2.9418,-2.8774,-2.8134,-2.7632,-2.7423,-2.7313,-2.719,-2.719,-2.719,-2.719,-2.719,-2.7231,-2.719,-2.719,-2.719,-2.719,-2.719,-2.719,-2.7219,-2.7464,-2.7586,-2.7655,-2.8007,-2.8155,-2.8383,-2.8661,-2.8885,-2.9135,-2.9252,-2.9291,-2.933,-2.9342,-2.933,-2.933,-2.9563,-2.9948,-3.0126,-3.0456,-3.0594,-3.0506,-3.0568,-3.0732,-3.1007,-3.1502,-3.2173,-3.2668,-3.2717,-3.31,-3.3171,-3.3241,-3.3276,-3.3276,-3.3262,-3.3276,-3.3262,-3.308,-3.2848,-3.2553,-3.2272,-3.2005,-3.1696,-3.1302,-3.0909,-3.0544,-3.0642,-3.0712,-3.0193,-2.9785,-2.9729,-2.9785,-3.0216,-3.0216,-3.0216,-3.0216,-3.0216,-3.0227,-3.0618,-3.1134,-3.1375,-3.1375,-3.1192,-3.1375,-3.1467,-3.1467,-3.1479,-3.1593,-3.1871,-3.194,-3.2099,-3.2466,-3.2466,-3.2856,-3.3097,-3.3097,-3.3097,-3.3086,-3.2902,-3.2538,-3.2179,-3.1525,-3.0801,-3.0376,-3.0216,-3.0216,-3.0261,-3.0397,-3.0476,-3.0578,-3.0532,-3.0261,-3.0216,-3.0204,-2.9917,-2.9481,-2.8964,-2.8471,-2.7977,-2.7483,-2.7236,-2.719,-2.719,-2.719,-2.719,-2.719,-2.719,-2.719,-2.719,-2.719,-2.719,-2.719,-2.719,-2.719,-2.719,-2.7231,-2.7231,-2.7313,-2.7301,-2.7383,-2.7342,-2.7383,-2.7626,-2.7857,-2.8087,-2.8303,-2.8315,-2.8355,-2.8343,-2.8343,-2.8462,-2.8661,-2.8846,-2.9042,-2.9225,-2.9408,-2.9485,-2.9485,-2.9524,-2.9691,-3.0329,-3.1119,-3.1673,-3.1942,-3.2561,-3.3016,-3.31,-3.3136,-3.3171,-3.3206,-3.3276,-3.3248,-3.3192,-3.3108,-3.2883,-3.2589,-3.23,-3.2047,-3.185,-3.1527,-3.126,-3.1359,-3.1345,-3.0965,-3.0403,-2.9912,-3.0038,-3.0112,-3.0147,-3.0193,-3.0216,-3.0216,-3.0216,-3.025,-3.0273,-3.0767,-3.0698,-3.0434,-3.0744,-3.095,-3.0939,-3.095,-3.1146,-3.1306,-3.1398,-3.1639,-3.2363,-3.2328,-3.2604,-3.2833,-3.2787,-3.2833,-3.2741,-3.2477,-3.2124,-3.1995,-3.1352,-3.0583,-3.0227,-3.0216,-3.0216,-3.0216,-3.0216,-3.0306,-3.0306,-3.0306,-3.0216,-3.0216,-3.0158,-2.9963,-2.9412,-2.8919,-2.8448,-2.792,-2.7529,-2.719,-2.719,-2.719,-2.719,-2.719,-2.719,-2.719,-2.719,-2.719,-2.719,-2.719,-2.719,-2.719,-2.719,-2.719,-2.719,-2.719,-2.719,-2.719,-2.719,-2.7231,-2.7231,-2.7423,-2.7464,-2.7615,-2.7696,-2.7696,-2.7736,-2.7736,-2.7725,-2.7846,-2.7966,-2.8007,-2.8195,-2.8383,-2.8569,-2.849,-2.8395,-2.8435,-2.8593,-2.9042,-2.9935,-3.0619,-3.1119,-3.1833,-3.2417,-3.2717,-3.2789,-3.298,-3.3086,-3.3051,-3.3051,-3.2832,-3.2988,-3.3241,-3.2898,-3.2555,-3.2561,-3.2412,-3.2174,-3.2005,-3.1935,-3.1878,-3.1696,-3.1204,-3.0628,-3.0459,-2.9309,-2.9699,-3.0055,-3.0216,-3.0216,-3.0216,-3.0216,-3.0227,-3.0296,-3.0354,-3.025,-3.0354,-3.0434,-3.048,-3.048,-3.0618,-3.0641,-3.0836,-3.095,-3.1444,-3.1777,-3.2202,-3.2569,-3.2443,-3.2523,-3.2431,-3.2099,-3.1582,-3.1318,-3.079,-3.0388,-3.0239,-3.0216,-3.0216,-3.0216,-3.0216,-3.0216,-3.0216,-3.0216,-3.0216,-3.0216,-3.0078,-2.9848,-2.9217,-2.8666,-2.8253,-2.777,-2.7357,-2.719,-2.719,-2.719,-2.719,-2.719,-2.719,-2.719,-2.719,-2.719,-2.719,-2.719,-2.719,-2.719,-2.719,-2.719,-2.719,-2.719,-2.719,-2.719,-2.719,-2.719,-2.719,-2.719,-2.719,-2.719,-2.719,-2.719,-2.719,-2.719,-2.7231,-2.7313,-2.7313,-2.7272,-2.7423,-2.7655,-2.7655,-2.7464,-2.7464,-2.7493,-2.7655,-2.7886,-2.8569,-2.9614,-3.0215,-3.1044,-3.1613,-3.1919,-3.2137,-3.2209,-3.2295,-3.2223,-3.2273,-3.2381,-3.2525,-3.2668,-3.2881,-3.2848,-3.2695,-3.2723,-3.2961,-3.2793,-3.2506,-3.2372,-3.217,-3.2196,-3.1794,-3.1485,-2.8873,-2.9194,-2.9688,-3.0032,-3.0193,-3.0216,-3.0216,-3.0216,-3.0216,-3.0216,-3.0216,-3.0216,-3.0216,-3.0216,-3.0216,-3.0216,-3.0216,-3.0239,-3.0663,-3.1054,-3.1306,-3.1708,-3.1974,-3.1995,-3.2018,-3.1949,-3.1616,-3.1169,-3.0721,-3.0468,-3.0239,-3.0216,-3.0216,-3.0216,-3.0216,-3.0216,-3.0216,-3.0216,-3.0216,-3.0216,-3.0216,-3.0112,-2.986,-2.9228,-2.8723,-2.8264,-2.7793,-2.7403,-2.719,-2.719,-2.719,-2.719,-2.719,-2.719,-2.719,-2.719,-2.719,-2.719,-2.719,-2.719,-2.719,-2.719,-2.719,-2.719,-2.719,-2.719,-2.719,-2.719,-2.719,-2.719,-2.719,-2.719,-2.719,-2.719,-2.719,-2.719,-2.719,-2.7231,-2.7231,-2.7231,-2.7231,-2.7272,-2.7423,-2.7423,-2.7301,-2.7301,-2.7231,-2.7231,-2.7383,-2.7505,-2.8474,-2.9238,-2.9986,-3.0481,-3.072,-3.097,-3.118,-3.1267,-3.1355,-3.1466,-3.1576,-3.1833,-3.2037,-3.2318,-3.2525,-3.2569,-3.269,-3.2874,-3.298,-3.2667,-3.2618,-3.2619,-3.2695,-3.266,-3.238,-2.8528,-2.8677,-2.9183,-2.9619,-2.9986,-3.0009,-2.9975,-2.9998,-3.0089,-3.0112,-3.0112,-3.017,-3.0216,-3.0216,-3.0216,-3.0216,-3.0216,-3.0216,-3.056,-3.0778,-3.0996,-3.1329,-3.1398,-3.1341,-3.1387,-3.1306,-3.1054,-3.0709,-3.0319,-3.0216,-3.0216,-3.0216,-3.0216,-3.0216,-3.0216,-3.0216,-3.0216,-3.0216,-3.0216,-3.0216,-3.0216,-3.0204,-2.9883,-2.947,-2.8987,-2.8471,-2.7989,-2.7564,-2.7247,-2.719,-2.719,-2.719,-2.719,-2.719,-2.719,-2.719,-2.719,-2.719,-2.719,-2.719,-2.719,-2.719,-2.719,-2.719,-2.719,-2.719,-2.719,-2.719,-2.719,-2.719,-2.719,-2.719,-2.719,-2.719,-2.719,-2.719,-2.719,-2.719,-2.719,-2.719,-2.719,-2.719,-2.719,-2.719,-2.719,-2.719,-2.719,-2.719,-2.7231,-2.7353,-2.7817,-2.8275,-2.8727,-2.9147,-2.9626,-2.9909,-3.0203,-3.0241,-3.0367,-3.0544,-3.0807,-3.1082,-3.1429,-3.1736,-3.1932,-3.2164,-3.225,-3.2359,-3.2453,-3.2561,-3.2528,-3.2502,-3.2587,-3.2616,-3.2869,-2.7748,-2.8161,-2.8654,-2.8919,-2.901,-2.901,-2.8987,-2.9068,-2.947,-2.963,-2.9734,-3.0055,-3.0216,-3.0216,-3.0216,-3.0216,-3.0216,-3.0216,-3.0216,-3.0376,-3.0755,-3.1008,-3.1077,-3.0962,-3.079,-3.0652,-3.0537,-3.0354,-3.0216,-3.0216,-3.0216,-3.0216,-3.0216,-3.0216,-3.0216,-3.0216,-3.0216,-3.0216,-3.0216,-3.0216,-3.0216,-3.0135,-2.9917,-2.9493,-2.8987,-2.8482,-2.7989,-2.7495,-2.7259,-2.719,-2.719,-2.719,-2.719,-2.719,-2.719,-2.719,-2.719,-2.719,-2.719,-2.719,-2.719,-2.719,-2.719,-2.719,-2.719,-2.719,-2.719,-2.719,-2.719,-2.719,-2.719,-2.719,-2.719,-2.719,-2.719,-2.719,-2.719,-2.719,-2.719,-2.719,-2.719,-2.719,-2.719,-2.719,-2.719,-2.719,-2.719,-2.719,-2.719,-2.7231,-2.7272,-2.7545,-2.7817,-2.8355,-2.9003,-2.9042,-2.9252,-2.9264,-2.9342,-2.9498,-2.9794,-3.038,-3.0733,-3.0871,-3.1442,-3.1836,-3.1909,-3.1676,-3.2019,-3.2128,-3.22,-3.2209,-3.2359,-3.2467,-3.2588]}]]